<?xml version="1.0" encoding="UTF-8" standalone="no" ?>
<gpx xmlns="http://www.topografix.com/GPX/1/1" xmlns:xsi="http://www.w3.org/2001/XMLSchema-instance" xsi:schemaLocation="http://www.topografix.com/GPX/1/1 http://www.topografix.com/GPX/1/1/gpx.xsd" version="1.1" creator="VisuGPX - https://www.visugpx.com">
  <metadata>
    <name>Liaison de la VR6 vers le chemin vert de Vesoul</name>
    <desc><![CDATA[Liaison de la VR6 vers le chemin vert de Vesoul en évitant au maximum les voitures.]]></desc>
  </metadata>
  <trk>
    <name><![CDATA[2012-08-06-01]]></name>
    <trkseg>
      <trkpt lat="47.33212" lon="6.30445">
        <ele>286.2</ele>
        <time>2012-08-06T12:59:31Z</time>
      </trkpt>
      <trkpt lat="47.33211" lon="6.30445">
        <ele>286.3</ele>
        <time>2012-08-06T12:59:32Z</time>
      </trkpt>
      <trkpt lat="47.33174" lon="6.30475">
        <ele>289.7</ele>
        <time>2012-08-06T12:59:59Z</time>
      </trkpt>
      <trkpt lat="47.33163" lon="6.30503">
        <ele>291.2</ele>
        <time>2012-08-06T13:00:15Z</time>
      </trkpt>
      <trkpt lat="47.33159" lon="6.30534">
        <ele>293.2</ele>
        <time>2012-08-06T13:00:31Z</time>
      </trkpt>
      <trkpt lat="47.33158" lon="6.30566">
        <ele>294.7</ele>
        <time>2012-08-06T13:00:48Z</time>
      </trkpt>
      <trkpt lat="47.33159" lon="6.30568">
        <ele>295</ele>
        <time>2012-08-06T13:00:49Z</time>
      </trkpt>
      <trkpt lat="47.3317" lon="6.30628">
        <ele>298.2</ele>
        <time>2012-08-06T13:01:21Z</time>
      </trkpt>
      <trkpt lat="47.33191" lon="6.30623">
        <ele>300.7</ele>
        <time>2012-08-06T13:01:37Z</time>
      </trkpt>
      <trkpt lat="47.33202" lon="6.30596">
        <ele>302.2</ele>
        <time>2012-08-06T13:01:50Z</time>
      </trkpt>
      <trkpt lat="47.33204" lon="6.30593">
        <ele>302.5</ele>
        <time>2012-08-06T13:01:51Z</time>
      </trkpt>
      <trkpt lat="47.33226" lon="6.30546">
        <ele>304.2</ele>
        <time>2012-08-06T13:02:08Z</time>
      </trkpt>
      <trkpt lat="47.33242" lon="6.30524">
        <ele>305.2</ele>
        <time>2012-08-06T13:02:18Z</time>
      </trkpt>
      <trkpt lat="47.33262" lon="6.30511">
        <ele>306.2</ele>
        <time>2012-08-06T13:02:31Z</time>
      </trkpt>
      <trkpt lat="47.33283" lon="6.30507">
        <ele>307.5</ele>
        <time>2012-08-06T13:02:45Z</time>
      </trkpt>
      <trkpt lat="47.33305" lon="6.30506">
        <ele>308.7</ele>
        <time>2012-08-06T13:03:01Z</time>
      </trkpt>
      <trkpt lat="47.33306" lon="6.30506">
        <ele>309</ele>
        <time>2012-08-06T13:03:02Z</time>
      </trkpt>
      <trkpt lat="47.33349" lon="6.30504">
        <ele>313.1</ele>
        <time>2012-08-06T13:03:38Z</time>
      </trkpt>
      <trkpt lat="47.33364" lon="6.3048">
        <ele>314.7</ele>
        <time>2012-08-06T13:03:53Z</time>
      </trkpt>
      <trkpt lat="47.33377" lon="6.30454">
        <ele>315.7</ele>
        <time>2012-08-06T13:04:07Z</time>
      </trkpt>
      <trkpt lat="47.33378" lon="6.30452">
        <ele>315.7</ele>
        <time>2012-08-06T13:04:08Z</time>
      </trkpt>
      <trkpt lat="47.33397" lon="6.30399">
        <ele>316.7</ele>
        <time>2012-08-06T13:04:26Z</time>
      </trkpt>
      <trkpt lat="47.33409" lon="6.30374">
        <ele>317.2</ele>
        <time>2012-08-06T13:04:35Z</time>
      </trkpt>
      <trkpt lat="47.33419" lon="6.30348">
        <ele>318.2</ele>
        <time>2012-08-06T13:04:44Z</time>
      </trkpt>
      <trkpt lat="47.33422" lon="6.30318">
        <ele>319.5</ele>
        <time>2012-08-06T13:04:51Z</time>
      </trkpt>
      <trkpt lat="47.33412" lon="6.30291">
        <ele>322.7</ele>
        <time>2012-08-06T13:04:56Z</time>
      </trkpt>
      <trkpt lat="47.33402" lon="6.30264">
        <ele>324.7</ele>
        <time>2012-08-06T13:05:00Z</time>
      </trkpt>
      <trkpt lat="47.33389" lon="6.30246">
        <ele>324.7</ele>
        <time>2012-08-06T13:05:03Z</time>
      </trkpt>
      <trkpt lat="47.33378" lon="6.30225">
        <ele>325</ele>
        <time>2012-08-06T13:05:06Z</time>
      </trkpt>
      <trkpt lat="47.33375" lon="6.30195">
        <ele>325.5</ele>
        <time>2012-08-06T13:05:10Z</time>
      </trkpt>
      <trkpt lat="47.33375" lon="6.3019">
        <ele>325.5</ele>
        <time>2012-08-06T13:05:11Z</time>
      </trkpt>
      <trkpt lat="47.33405" lon="6.30149">
        <ele>325.7</ele>
        <time>2012-08-06T13:05:35Z</time>
      </trkpt>
      <trkpt lat="47.3342" lon="6.30127">
        <ele>327</ele>
        <time>2012-08-06T13:05:50Z</time>
      </trkpt>
      <trkpt lat="47.33434" lon="6.30113">
        <ele>328.2</ele>
        <time>2012-08-06T13:06:06Z</time>
      </trkpt>
      <trkpt lat="47.33453" lon="6.30096">
        <ele>330.6</ele>
        <time>2012-08-06T13:06:19Z</time>
      </trkpt>
      <trkpt lat="47.33454" lon="6.30095">
        <ele>330.7</ele>
        <time>2012-08-06T13:06:20Z</time>
      </trkpt>
      <trkpt lat="47.33485" lon="6.30057">
        <ele>335.2</ele>
        <time>2012-08-06T13:06:47Z</time>
      </trkpt>
      <trkpt lat="47.3348" lon="6.30025">
        <ele>337.2</ele>
        <time>2012-08-06T13:07:01Z</time>
      </trkpt>
      <trkpt lat="47.3347" lon="6.29997">
        <ele>339.5</ele>
        <time>2012-08-06T13:07:15Z</time>
      </trkpt>
      <trkpt lat="47.33461" lon="6.29967">
        <ele>340.7</ele>
        <time>2012-08-06T13:07:28Z</time>
      </trkpt>
      <trkpt lat="47.33461" lon="6.29965">
        <ele>340.7</ele>
        <time>2012-08-06T13:07:29Z</time>
      </trkpt>
      <trkpt lat="47.33446" lon="6.29908">
        <ele>341.6</ele>
        <time>2012-08-06T13:07:50Z</time>
      </trkpt>
      <trkpt lat="47.33443" lon="6.29875">
        <ele>341.7</ele>
        <time>2012-08-06T13:08:01Z</time>
      </trkpt>
      <trkpt lat="47.33446" lon="6.29843">
        <ele>341.7</ele>
        <time>2012-08-06T13:08:11Z</time>
      </trkpt>
      <trkpt lat="47.33454" lon="6.29815">
        <ele>341.7</ele>
        <time>2012-08-06T13:08:21Z</time>
      </trkpt>
      <trkpt lat="47.3346" lon="6.29785">
        <ele>342</ele>
        <time>2012-08-06T13:08:31Z</time>
      </trkpt>
      <trkpt lat="47.3346" lon="6.29782">
        <ele>342</ele>
        <time>2012-08-06T13:08:32Z</time>
      </trkpt>
      <trkpt lat="47.33446" lon="6.29724">
        <ele>341.7</ele>
        <time>2012-08-06T13:08:55Z</time>
      </trkpt>
      <trkpt lat="47.33437" lon="6.29696">
        <ele>342.1</ele>
        <time>2012-08-06T13:09:06Z</time>
      </trkpt>
      <trkpt lat="47.33429" lon="6.29666">
        <ele>342.2</ele>
        <time>2012-08-06T13:09:17Z</time>
      </trkpt>
      <trkpt lat="47.33421" lon="6.29637">
        <ele>342.7</ele>
        <time>2012-08-06T13:09:27Z</time>
      </trkpt>
      <trkpt lat="47.33412" lon="6.29609">
        <ele>343</ele>
        <time>2012-08-06T13:09:37Z</time>
      </trkpt>
      <trkpt lat="47.33412" lon="6.29607">
        <ele>343</ele>
        <time>2012-08-06T13:09:38Z</time>
      </trkpt>
      <trkpt lat="47.33396" lon="6.29551">
        <ele>343.2</ele>
        <time>2012-08-06T13:09:56Z</time>
      </trkpt>
      <trkpt lat="47.33387" lon="6.29524">
        <ele>343.7</ele>
        <time>2012-08-06T13:10:05Z</time>
      </trkpt>
      <trkpt lat="47.33388" lon="6.29491">
        <ele>344.1</ele>
        <time>2012-08-06T13:10:15Z</time>
      </trkpt>
      <trkpt lat="47.33409" lon="6.29482">
        <ele>344.2</ele>
        <time>2012-08-06T13:10:24Z</time>
      </trkpt>
      <trkpt lat="47.33428" lon="6.29475">
        <ele>344.7</ele>
        <time>2012-08-06T13:10:33Z</time>
      </trkpt>
      <trkpt lat="47.33449" lon="6.29467">
        <ele>345</ele>
        <time>2012-08-06T13:10:41Z</time>
      </trkpt>
      <trkpt lat="47.33453" lon="6.29466">
        <ele>345.1</ele>
        <time>2012-08-06T13:10:42Z</time>
      </trkpt>
      <trkpt lat="47.33489" lon="6.2945">
        <ele>346</ele>
        <time>2012-08-06T13:10:51Z</time>
      </trkpt>
      <trkpt lat="47.3351" lon="6.2944">
        <ele>346.1</ele>
        <time>2012-08-06T13:10:56Z</time>
      </trkpt>
      <trkpt lat="47.33529" lon="6.29429">
        <ele>346.2</ele>
        <time>2012-08-06T13:11:02Z</time>
      </trkpt>
      <trkpt lat="47.3355" lon="6.2942">
        <ele>346.1</ele>
        <time>2012-08-06T13:11:12Z</time>
      </trkpt>
      <trkpt lat="47.33571" lon="6.29412">
        <ele>345.7</ele>
        <time>2012-08-06T13:11:24Z</time>
      </trkpt>
      <trkpt lat="47.33592" lon="6.29403">
        <ele>345.6</ele>
        <time>2012-08-06T13:11:37Z</time>
      </trkpt>
      <trkpt lat="47.33613" lon="6.29394">
        <ele>345.2</ele>
        <time>2012-08-06T13:11:50Z</time>
      </trkpt>
      <trkpt lat="47.33615" lon="6.29394">
        <ele>345.2</ele>
        <time>2012-08-06T13:11:51Z</time>
      </trkpt>
      <trkpt lat="47.33624" lon="6.29347">
        <ele>345.2</ele>
        <time>2012-08-06T13:12:15Z</time>
      </trkpt>
      <trkpt lat="47.33635" lon="6.29319">
        <ele>345.5</ele>
        <time>2012-08-06T13:12:27Z</time>
      </trkpt>
      <trkpt lat="47.33656" lon="6.29313">
        <ele>345.6</ele>
        <time>2012-08-06T13:12:39Z</time>
      </trkpt>
      <trkpt lat="47.33676" lon="6.29308">
        <ele>345.7</ele>
        <time>2012-08-06T13:12:51Z</time>
      </trkpt>
      <trkpt lat="47.33678" lon="6.29307">
        <ele>345.7</ele>
        <time>2012-08-06T13:12:52Z</time>
      </trkpt>
      <trkpt lat="47.33712" lon="6.29278">
        <ele>346.5</ele>
        <time>2012-08-06T13:13:18Z</time>
      </trkpt>
      <trkpt lat="47.33731" lon="6.29262">
        <ele>347.2</ele>
        <time>2012-08-06T13:13:34Z</time>
      </trkpt>
      <trkpt lat="47.33752" lon="6.29255">
        <ele>348.6</ele>
        <time>2012-08-06T13:13:48Z</time>
      </trkpt>
      <trkpt lat="47.33773" lon="6.29246">
        <ele>349.7</ele>
        <time>2012-08-06T13:14:03Z</time>
      </trkpt>
      <trkpt lat="47.33775" lon="6.29245">
        <ele>350</ele>
        <time>2012-08-06T13:14:04Z</time>
      </trkpt>
      <trkpt lat="47.33814" lon="6.29226">
        <ele>352.2</ele>
        <time>2012-08-06T13:14:56Z</time>
      </trkpt>
      <trkpt lat="47.33834" lon="6.29213">
        <ele>353.2</ele>
        <time>2012-08-06T13:15:07Z</time>
      </trkpt>
      <trkpt lat="47.33836" lon="6.29212">
        <ele>353.2</ele>
        <time>2012-08-06T13:15:08Z</time>
      </trkpt>
      <trkpt lat="47.33862" lon="6.29171">
        <ele>355.1</ele>
        <time>2012-08-06T13:15:27Z</time>
      </trkpt>
      <trkpt lat="47.33862" lon="6.29138">
        <ele>357.7</ele>
        <time>2012-08-06T13:15:32Z</time>
      </trkpt>
      <trkpt lat="47.33859" lon="6.29107">
        <ele>358.2</ele>
        <time>2012-08-06T13:15:36Z</time>
      </trkpt>
      <trkpt lat="47.33858" lon="6.29081">
        <ele>358.2</ele>
        <time>2012-08-06T13:15:39Z</time>
      </trkpt>
      <trkpt lat="47.33856" lon="6.29055">
        <ele>358.1</ele>
        <time>2012-08-06T13:15:42Z</time>
      </trkpt>
      <trkpt lat="47.33854" lon="6.29023">
        <ele>357.7</ele>
        <time>2012-08-06T13:15:46Z</time>
      </trkpt>
      <trkpt lat="47.33853" lon="6.28995">
        <ele>357.6</ele>
        <time>2012-08-06T13:15:50Z</time>
      </trkpt>
      <trkpt lat="47.33851" lon="6.28966">
        <ele>357.1</ele>
        <time>2012-08-06T13:15:55Z</time>
      </trkpt>
      <trkpt lat="47.3385" lon="6.28937">
        <ele>356.2</ele>
        <time>2012-08-06T13:16:00Z</time>
      </trkpt>
      <trkpt lat="47.33848" lon="6.28907">
        <ele>355.5</ele>
        <time>2012-08-06T13:16:05Z</time>
      </trkpt>
      <trkpt lat="47.33847" lon="6.28875">
        <ele>355.2</ele>
        <time>2012-08-06T13:16:11Z</time>
      </trkpt>
      <trkpt lat="47.33847" lon="6.28871">
        <ele>355.2</ele>
        <time>2012-08-06T13:16:12Z</time>
      </trkpt>
      <trkpt lat="47.33845" lon="6.28811">
        <ele>355</ele>
        <time>2012-08-06T13:16:25Z</time>
      </trkpt>
      <trkpt lat="47.33844" lon="6.28779">
        <ele>354.7</ele>
        <time>2012-08-06T13:16:33Z</time>
      </trkpt>
      <trkpt lat="47.33842" lon="6.28747">
        <ele>354.7</ele>
        <time>2012-08-06T13:16:41Z</time>
      </trkpt>
      <trkpt lat="47.33838" lon="6.28716">
        <ele>354.6</ele>
        <time>2012-08-06T13:16:49Z</time>
      </trkpt>
      <trkpt lat="47.33847" lon="6.28686">
        <ele>354.6</ele>
        <time>2012-08-06T13:16:58Z</time>
      </trkpt>
      <trkpt lat="47.3386" lon="6.28661">
        <ele>354.6</ele>
        <time>2012-08-06T13:17:08Z</time>
      </trkpt>
      <trkpt lat="47.3387" lon="6.28634">
        <ele>354.7</ele>
        <time>2012-08-06T13:17:18Z</time>
      </trkpt>
      <trkpt lat="47.33871" lon="6.28631">
        <ele>354.7</ele>
        <time>2012-08-06T13:17:19Z</time>
      </trkpt>
      <trkpt lat="47.3389" lon="6.28578">
        <ele>355.7</ele>
        <time>2012-08-06T13:17:39Z</time>
      </trkpt>
      <trkpt lat="47.339" lon="6.28551">
        <ele>356.6</ele>
        <time>2012-08-06T13:17:50Z</time>
      </trkpt>
      <trkpt lat="47.33921" lon="6.28561">
        <ele>358.1</ele>
        <time>2012-08-06T13:18:09Z</time>
      </trkpt>
      <trkpt lat="47.33934" lon="6.28588">
        <ele>359</ele>
        <time>2012-08-06T13:18:21Z</time>
      </trkpt>
      <trkpt lat="47.33935" lon="6.2859">
        <ele>359.1</ele>
        <time>2012-08-06T13:18:22Z</time>
      </trkpt>
      <trkpt lat="47.33946" lon="6.28649">
        <ele>361.2</ele>
        <time>2012-08-06T13:18:45Z</time>
      </trkpt>
      <trkpt lat="47.33942" lon="6.28681">
        <ele>362.6</ele>
        <time>2012-08-06T13:18:57Z</time>
      </trkpt>
      <trkpt lat="47.33939" lon="6.28712">
        <ele>364.1</ele>
        <time>2012-08-06T13:19:10Z</time>
      </trkpt>
      <trkpt lat="47.33939" lon="6.28743">
        <ele>365.2</ele>
        <time>2012-08-06T13:19:22Z</time>
      </trkpt>
      <trkpt lat="47.3394" lon="6.28745">
        <ele>365.5</ele>
        <time>2012-08-06T13:19:23Z</time>
      </trkpt>
      <trkpt lat="47.33974" lon="6.28767">
        <ele>367.7</ele>
        <time>2012-08-06T13:19:45Z</time>
      </trkpt>
      <trkpt lat="47.33994" lon="6.28761">
        <ele>368.6</ele>
        <time>2012-08-06T13:19:54Z</time>
      </trkpt>
      <trkpt lat="47.34016" lon="6.28752">
        <ele>369.5</ele>
        <time>2012-08-06T13:20:04Z</time>
      </trkpt>
      <trkpt lat="47.34037" lon="6.28746">
        <ele>370.2</ele>
        <time>2012-08-06T13:20:12Z</time>
      </trkpt>
      <trkpt lat="47.34058" lon="6.28744">
        <ele>370.7</ele>
        <time>2012-08-06T13:20:20Z</time>
      </trkpt>
      <trkpt lat="47.34077" lon="6.28751">
        <ele>371.5</ele>
        <time>2012-08-06T13:20:27Z</time>
      </trkpt>
      <trkpt lat="47.3408" lon="6.28752">
        <ele>371.6</ele>
        <time>2012-08-06T13:20:28Z</time>
      </trkpt>
      <trkpt lat="47.34117" lon="6.28768">
        <ele>372.2</ele>
        <time>2012-08-06T13:20:41Z</time>
      </trkpt>
      <trkpt lat="47.34138" lon="6.28776">
        <ele>372.7</ele>
        <time>2012-08-06T13:20:47Z</time>
      </trkpt>
      <trkpt lat="47.34159" lon="6.28781">
        <ele>374.2</ele>
        <time>2012-08-06T13:20:52Z</time>
      </trkpt>
      <trkpt lat="47.34179" lon="6.28788">
        <ele>374.2</ele>
        <time>2012-08-06T13:20:56Z</time>
      </trkpt>
      <trkpt lat="47.34199" lon="6.288">
        <ele>373.7</ele>
        <time>2012-08-06T13:21:00Z</time>
      </trkpt>
      <trkpt lat="47.34216" lon="6.28812">
        <ele>373.2</ele>
        <time>2012-08-06T13:21:03Z</time>
      </trkpt>
      <trkpt lat="47.34232" lon="6.28826">
        <ele>373.2</ele>
        <time>2012-08-06T13:21:06Z</time>
      </trkpt>
      <trkpt lat="47.34247" lon="6.2884">
        <ele>372.7</ele>
        <time>2012-08-06T13:21:09Z</time>
      </trkpt>
      <trkpt lat="47.34263" lon="6.28855">
        <ele>372.2</ele>
        <time>2012-08-06T13:21:13Z</time>
      </trkpt>
      <trkpt lat="47.34281" lon="6.28872">
        <ele>372</ele>
        <time>2012-08-06T13:21:21Z</time>
      </trkpt>
      <trkpt lat="47.343" lon="6.2889">
        <ele>371.7</ele>
        <time>2012-08-06T13:21:33Z</time>
      </trkpt>
      <trkpt lat="47.34303" lon="6.28892">
        <ele>371.7</ele>
        <time>2012-08-06T13:21:34Z</time>
      </trkpt>
      <trkpt lat="47.34336" lon="6.28916">
        <ele>371.2</ele>
        <time>2012-08-06T13:21:43Z</time>
      </trkpt>
      <trkpt lat="47.34353" lon="6.28934">
        <ele>371.1</ele>
        <time>2012-08-06T13:21:50Z</time>
      </trkpt>
      <trkpt lat="47.34369" lon="6.28956">
        <ele>370.7</ele>
        <time>2012-08-06T13:21:57Z</time>
      </trkpt>
      <trkpt lat="47.34385" lon="6.28978">
        <ele>370.7</ele>
        <time>2012-08-06T13:22:04Z</time>
      </trkpt>
      <trkpt lat="47.34398" lon="6.28998">
        <ele>370.2</ele>
        <time>2012-08-06T13:22:09Z</time>
      </trkpt>
      <trkpt lat="47.34418" lon="6.2901">
        <ele>370.1</ele>
        <time>2012-08-06T13:22:17Z</time>
      </trkpt>
      <trkpt lat="47.3443" lon="6.28984">
        <ele>369.7</ele>
        <time>2012-08-06T13:22:31Z</time>
      </trkpt>
      <trkpt lat="47.3444" lon="6.28956">
        <ele>369.2</ele>
        <time>2012-08-06T13:22:43Z</time>
      </trkpt>
      <trkpt lat="47.3444" lon="6.28954">
        <ele>369.1</ele>
        <time>2012-08-06T13:22:44Z</time>
      </trkpt>
      <trkpt lat="47.34469" lon="6.28912">
        <ele>367</ele>
        <time>2012-08-06T13:23:08Z</time>
      </trkpt>
      <trkpt lat="47.34487" lon="6.28893">
        <ele>366.2</ele>
        <time>2012-08-06T13:23:22Z</time>
      </trkpt>
      <trkpt lat="47.34498" lon="6.28878">
        <ele>366.1</ele>
        <time>2012-08-06T13:23:37Z</time>
      </trkpt>
      <trkpt lat="47.34513" lon="6.28859">
        <ele>366</ele>
        <time>2012-08-06T13:23:48Z</time>
      </trkpt>
      <trkpt lat="47.34519" lon="6.28851">
        <ele>366</ele>
        <time>2012-08-06T13:23:49Z</time>
      </trkpt>
      <trkpt lat="47.3454" lon="6.28821">
        <ele>366.2</ele>
        <time>2012-08-06T13:24:13Z</time>
      </trkpt>
      <trkpt lat="47.34554" lon="6.28796">
        <ele>368.6</ele>
        <time>2012-08-06T13:24:27Z</time>
      </trkpt>
      <trkpt lat="47.34563" lon="6.28766">
        <ele>375.2</ele>
        <time>2012-08-06T13:24:45Z</time>
      </trkpt>
      <trkpt lat="47.34576" lon="6.2874">
        <ele>379.7</ele>
        <time>2012-08-06T13:24:58Z</time>
      </trkpt>
      <trkpt lat="47.34577" lon="6.28738">
        <ele>380.2</ele>
        <time>2012-08-06T13:24:59Z</time>
      </trkpt>
      <trkpt lat="47.34607" lon="6.28698">
        <ele>387.6</ele>
        <time>2012-08-06T13:25:21Z</time>
      </trkpt>
      <trkpt lat="47.3462" lon="6.28672">
        <ele>390.6</ele>
        <time>2012-08-06T13:25:35Z</time>
      </trkpt>
      <trkpt lat="47.34629" lon="6.28643">
        <ele>393.5</ele>
        <time>2012-08-06T13:25:50Z</time>
      </trkpt>
      <trkpt lat="47.34635" lon="6.28611">
        <ele>396.5</ele>
        <time>2012-08-06T13:26:06Z</time>
      </trkpt>
      <trkpt lat="47.34635" lon="6.2861">
        <ele>396.7</ele>
        <time>2012-08-06T13:26:07Z</time>
      </trkpt>
      <trkpt lat="47.34657" lon="6.28558">
        <ele>400.2</ele>
        <time>2012-08-06T13:26:36Z</time>
      </trkpt>
      <trkpt lat="47.34679" lon="6.28553">
        <ele>401.2</ele>
        <time>2012-08-06T13:26:48Z</time>
      </trkpt>
      <trkpt lat="47.34701" lon="6.28549">
        <ele>402.1</ele>
        <time>2012-08-06T13:27:04Z</time>
      </trkpt>
      <trkpt lat="47.34722" lon="6.28546">
        <ele>402.5</ele>
        <time>2012-08-06T13:30:39Z</time>
      </trkpt>
      <trkpt lat="47.34724" lon="6.28546">
        <ele>402.5</ele>
        <time>2012-08-06T13:30:40Z</time>
      </trkpt>
      <trkpt lat="47.34766" lon="6.28543">
        <ele>405.2</ele>
        <time>2012-08-06T13:32:22Z</time>
      </trkpt>
      <trkpt lat="47.34767" lon="6.28542">
        <ele>405.7</ele>
        <time>2012-08-06T13:32:23Z</time>
      </trkpt>
      <trkpt lat="47.3481" lon="6.2853">
        <ele>412.1</ele>
        <time>2012-08-06T13:32:54Z</time>
      </trkpt>
      <trkpt lat="47.34832" lon="6.28525">
        <ele>414.7</ele>
        <time>2012-08-06T13:33:07Z</time>
      </trkpt>
      <trkpt lat="47.34853" lon="6.28522">
        <ele>416.2</ele>
        <time>2012-08-06T13:33:19Z</time>
      </trkpt>
      <trkpt lat="47.34875" lon="6.28517">
        <ele>417.2</ele>
        <time>2012-08-06T13:33:31Z</time>
      </trkpt>
      <trkpt lat="47.34877" lon="6.28517">
        <ele>417.5</ele>
        <time>2012-08-06T13:33:32Z</time>
      </trkpt>
      <trkpt lat="47.34915" lon="6.28512">
        <ele>419.7</ele>
        <time>2012-08-06T13:33:50Z</time>
      </trkpt>
      <trkpt lat="47.34936" lon="6.28509">
        <ele>420.2</ele>
        <time>2012-08-06T13:33:59Z</time>
      </trkpt>
      <trkpt lat="47.34957" lon="6.28505">
        <ele>420.7</ele>
        <time>2012-08-06T13:34:10Z</time>
      </trkpt>
      <trkpt lat="47.34978" lon="6.28502">
        <ele>420.7</ele>
        <time>2012-08-06T13:34:20Z</time>
      </trkpt>
      <trkpt lat="47.34999" lon="6.285">
        <ele>420.7</ele>
        <time>2012-08-06T13:34:31Z</time>
      </trkpt>
      <trkpt lat="47.3502" lon="6.28498">
        <ele>420.6</ele>
        <time>2012-08-06T13:34:43Z</time>
      </trkpt>
      <trkpt lat="47.35022" lon="6.28499">
        <ele>420.6</ele>
        <time>2012-08-06T13:34:44Z</time>
      </trkpt>
      <trkpt lat="47.35063" lon="6.28506">
        <ele>421.2</ele>
        <time>2012-08-06T13:35:10Z</time>
      </trkpt>
      <trkpt lat="47.35084" lon="6.28512">
        <ele>421.5</ele>
        <time>2012-08-06T13:35:20Z</time>
      </trkpt>
      <trkpt lat="47.35104" lon="6.28517">
        <ele>421.5</ele>
        <time>2012-08-06T13:35:28Z</time>
      </trkpt>
      <trkpt lat="47.35125" lon="6.28523">
        <ele>421.7</ele>
        <time>2012-08-06T13:35:33Z</time>
      </trkpt>
      <trkpt lat="47.35145" lon="6.28528">
        <ele>421.7</ele>
        <time>2012-08-06T13:35:36Z</time>
      </trkpt>
      <trkpt lat="47.35166" lon="6.28534">
        <ele>421.2</ele>
        <time>2012-08-06T13:35:40Z</time>
      </trkpt>
      <trkpt lat="47.35186" lon="6.2854">
        <ele>420.7</ele>
        <time>2012-08-06T13:35:44Z</time>
      </trkpt>
      <trkpt lat="47.35191" lon="6.28541">
        <ele>420.7</ele>
        <time>2012-08-06T13:35:45Z</time>
      </trkpt>
      <trkpt lat="47.35226" lon="6.28553">
        <ele>418.7</ele>
        <time>2012-08-06T13:35:53Z</time>
      </trkpt>
      <trkpt lat="47.35245" lon="6.28559">
        <ele>418.5</ele>
        <time>2012-08-06T13:35:58Z</time>
      </trkpt>
      <trkpt lat="47.35265" lon="6.28565">
        <ele>418.2</ele>
        <time>2012-08-06T13:36:03Z</time>
      </trkpt>
      <trkpt lat="47.35287" lon="6.28572">
        <ele>417.7</ele>
        <time>2012-08-06T13:36:09Z</time>
      </trkpt>
      <trkpt lat="47.35307" lon="6.28577">
        <ele>417.7</ele>
        <time>2012-08-06T13:36:17Z</time>
      </trkpt>
      <trkpt lat="47.35325" lon="6.2858">
        <ele>417.6</ele>
        <time>2012-08-06T13:36:25Z</time>
      </trkpt>
      <trkpt lat="47.35344" lon="6.28582">
        <ele>417.7</ele>
        <time>2012-08-06T13:36:32Z</time>
      </trkpt>
      <trkpt lat="47.35365" lon="6.28588">
        <ele>417.7</ele>
        <time>2012-08-06T13:36:42Z</time>
      </trkpt>
      <trkpt lat="47.35384" lon="6.28593">
        <ele>418</ele>
        <time>2012-08-06T13:36:50Z</time>
      </trkpt>
      <trkpt lat="47.35394" lon="6.28595">
        <ele>418.2</ele>
        <time>2012-08-06T13:36:51Z</time>
      </trkpt>
      <trkpt lat="47.35423" lon="6.28602">
        <ele>419.2</ele>
        <time>2012-08-06T13:37:02Z</time>
      </trkpt>
      <trkpt lat="47.35444" lon="6.2861">
        <ele>419.7</ele>
        <time>2012-08-06T13:37:07Z</time>
      </trkpt>
      <trkpt lat="47.35465" lon="6.2862">
        <ele>420.7</ele>
        <time>2012-08-06T13:37:11Z</time>
      </trkpt>
      <trkpt lat="47.35482" lon="6.28627">
        <ele>421.7</ele>
        <time>2012-08-06T13:37:15Z</time>
      </trkpt>
      <trkpt lat="47.35499" lon="6.28632">
        <ele>422.2</ele>
        <time>2012-08-06T13:37:19Z</time>
      </trkpt>
      <trkpt lat="47.35521" lon="6.28637">
        <ele>422.2</ele>
        <time>2012-08-06T13:37:24Z</time>
      </trkpt>
      <trkpt lat="47.35541" lon="6.28642">
        <ele>422.2</ele>
        <time>2012-08-06T13:37:29Z</time>
      </trkpt>
      <trkpt lat="47.35561" lon="6.28648">
        <ele>422.1</ele>
        <time>2012-08-06T13:37:35Z</time>
      </trkpt>
      <trkpt lat="47.35581" lon="6.28655">
        <ele>421.2</ele>
        <time>2012-08-06T13:37:40Z</time>
      </trkpt>
      <trkpt lat="47.35602" lon="6.28662">
        <ele>420.1</ele>
        <time>2012-08-06T13:37:45Z</time>
      </trkpt>
      <trkpt lat="47.35622" lon="6.28667">
        <ele>419.7</ele>
        <time>2012-08-06T13:37:51Z</time>
      </trkpt>
      <trkpt lat="47.35624" lon="6.28668">
        <ele>419.7</ele>
        <time>2012-08-06T13:37:52Z</time>
      </trkpt>
      <trkpt lat="47.35661" lon="6.28677">
        <ele>420.2</ele>
        <time>2012-08-06T13:38:11Z</time>
      </trkpt>
      <trkpt lat="47.35682" lon="6.28681">
        <ele>420.5</ele>
        <time>2012-08-06T13:38:18Z</time>
      </trkpt>
      <trkpt lat="47.35701" lon="6.28688">
        <ele>420.2</ele>
        <time>2012-08-06T13:38:24Z</time>
      </trkpt>
      <trkpt lat="47.35722" lon="6.28678">
        <ele>418.7</ele>
        <time>2012-08-06T13:38:37Z</time>
      </trkpt>
      <trkpt lat="47.35729" lon="6.28648">
        <ele>418.2</ele>
        <time>2012-08-06T13:38:52Z</time>
      </trkpt>
      <trkpt lat="47.3573" lon="6.28647">
        <ele>418.2</ele>
        <time>2012-08-06T13:38:53Z</time>
      </trkpt>
      <trkpt lat="47.35748" lon="6.28589">
        <ele>418.7</ele>
        <time>2012-08-06T13:39:27Z</time>
      </trkpt>
      <trkpt lat="47.35755" lon="6.2856">
        <ele>420</ele>
        <time>2012-08-06T13:39:42Z</time>
      </trkpt>
      <trkpt lat="47.35766" lon="6.28532">
        <ele>421.6</ele>
        <time>2012-08-06T13:39:59Z</time>
      </trkpt>
      <trkpt lat="47.35766" lon="6.2853">
        <ele>421.7</ele>
        <time>2012-08-06T13:40:00Z</time>
      </trkpt>
      <trkpt lat="47.35789" lon="6.28476">
        <ele>424.6</ele>
        <time>2012-08-06T13:40:30Z</time>
      </trkpt>
      <trkpt lat="47.35802" lon="6.28451">
        <ele>425.7</ele>
        <time>2012-08-06T13:40:44Z</time>
      </trkpt>
      <trkpt lat="47.35815" lon="6.28423">
        <ele>427.2</ele>
        <time>2012-08-06T13:40:59Z</time>
      </trkpt>
      <trkpt lat="47.35827" lon="6.28396">
        <ele>428.1</ele>
        <time>2012-08-06T13:41:10Z</time>
      </trkpt>
      <trkpt lat="47.35829" lon="6.28394">
        <ele>428.1</ele>
        <time>2012-08-06T13:41:11Z</time>
      </trkpt>
      <trkpt lat="47.3585" lon="6.28345">
        <ele>428.2</ele>
        <time>2012-08-06T13:41:27Z</time>
      </trkpt>
      <trkpt lat="47.35861" lon="6.28317">
        <ele>429</ele>
        <time>2012-08-06T13:41:37Z</time>
      </trkpt>
      <trkpt lat="47.35869" lon="6.28288">
        <ele>428.6</ele>
        <time>2012-08-06T13:41:46Z</time>
      </trkpt>
      <trkpt lat="47.3588" lon="6.28259">
        <ele>427.7</ele>
        <time>2012-08-06T13:41:56Z</time>
      </trkpt>
      <trkpt lat="47.3589" lon="6.28232">
        <ele>427.2</ele>
        <time>2012-08-06T13:42:08Z</time>
      </trkpt>
      <trkpt lat="47.35901" lon="6.28204">
        <ele>428.2</ele>
        <time>2012-08-06T13:42:20Z</time>
      </trkpt>
      <trkpt lat="47.35902" lon="6.28201">
        <ele>428.5</ele>
        <time>2012-08-06T13:42:21Z</time>
      </trkpt>
      <trkpt lat="47.35929" lon="6.28157">
        <ele>430.7</ele>
        <time>2012-08-06T13:42:49Z</time>
      </trkpt>
      <trkpt lat="47.35948" lon="6.28174">
        <ele>430.7</ele>
        <time>2012-08-06T13:43:02Z</time>
      </trkpt>
      <trkpt lat="47.35969" lon="6.28185">
        <ele>430.2</ele>
        <time>2012-08-06T13:43:11Z</time>
      </trkpt>
      <trkpt lat="47.35991" lon="6.2819">
        <ele>430.2</ele>
        <time>2012-08-06T13:43:25Z</time>
      </trkpt>
      <trkpt lat="47.35992" lon="6.28189">
        <ele>430.2</ele>
        <time>2012-08-06T13:43:26Z</time>
      </trkpt>
      <trkpt lat="47.3602" lon="6.28152">
        <ele>430.1</ele>
        <time>2012-08-06T13:43:45Z</time>
      </trkpt>
      <trkpt lat="47.36029" lon="6.28122">
        <ele>430</ele>
        <time>2012-08-06T13:43:53Z</time>
      </trkpt>
      <trkpt lat="47.36041" lon="6.28094">
        <ele>429.7</ele>
        <time>2012-08-06T13:44:15Z</time>
      </trkpt>
      <trkpt lat="47.3605" lon="6.28069">
        <ele>429.2</ele>
        <time>2012-08-06T13:44:35Z</time>
      </trkpt>
      <trkpt lat="47.36052" lon="6.28065">
        <ele>429.2</ele>
        <time>2012-08-06T13:44:36Z</time>
      </trkpt>
      <trkpt lat="47.36068" lon="6.28018">
        <ele>428.2</ele>
        <time>2012-08-06T13:44:46Z</time>
      </trkpt>
      <trkpt lat="47.36077" lon="6.27988">
        <ele>427.2</ele>
        <time>2012-08-06T13:44:52Z</time>
      </trkpt>
      <trkpt lat="47.36085" lon="6.2796">
        <ele>426</ele>
        <time>2012-08-06T13:44:57Z</time>
      </trkpt>
      <trkpt lat="47.36095" lon="6.27931">
        <ele>424.6</ele>
        <time>2012-08-06T13:45:02Z</time>
      </trkpt>
      <trkpt lat="47.36106" lon="6.27909">
        <ele>424.1</ele>
        <time>2012-08-06T13:45:06Z</time>
      </trkpt>
      <trkpt lat="47.36117" lon="6.27883">
        <ele>423.2</ele>
        <time>2012-08-06T13:45:10Z</time>
      </trkpt>
      <trkpt lat="47.36126" lon="6.27858">
        <ele>422.2</ele>
        <time>2012-08-06T13:45:14Z</time>
      </trkpt>
      <trkpt lat="47.36136" lon="6.27832">
        <ele>422.2</ele>
        <time>2012-08-06T13:45:20Z</time>
      </trkpt>
      <trkpt lat="47.36145" lon="6.27804">
        <ele>421.7</ele>
        <time>2012-08-06T13:45:28Z</time>
      </trkpt>
      <trkpt lat="47.36154" lon="6.27778">
        <ele>421.1</ele>
        <time>2012-08-06T13:45:35Z</time>
      </trkpt>
      <trkpt lat="47.36167" lon="6.27754">
        <ele>420.5</ele>
        <time>2012-08-06T13:45:42Z</time>
      </trkpt>
      <trkpt lat="47.36169" lon="6.27751">
        <ele>420.2</ele>
        <time>2012-08-06T13:45:43Z</time>
      </trkpt>
      <trkpt lat="47.36186" lon="6.27699">
        <ele>419</ele>
        <time>2012-08-06T13:45:58Z</time>
      </trkpt>
      <trkpt lat="47.36191" lon="6.27668">
        <ele>418.2</ele>
        <time>2012-08-06T13:46:07Z</time>
      </trkpt>
      <trkpt lat="47.36196" lon="6.27639">
        <ele>417.7</ele>
        <time>2012-08-06T13:46:15Z</time>
      </trkpt>
      <trkpt lat="47.36198" lon="6.27607">
        <ele>417.7</ele>
        <time>2012-08-06T13:46:22Z</time>
      </trkpt>
      <trkpt lat="47.36195" lon="6.27575">
        <ele>417.6</ele>
        <time>2012-08-06T13:46:30Z</time>
      </trkpt>
      <trkpt lat="47.3619" lon="6.27545">
        <ele>417.5</ele>
        <time>2012-08-06T13:46:38Z</time>
      </trkpt>
      <trkpt lat="47.36191" lon="6.27513">
        <ele>417.5</ele>
        <time>2012-08-06T13:46:46Z</time>
      </trkpt>
      <trkpt lat="47.36193" lon="6.27509">
        <ele>417.5</ele>
        <time>2012-08-06T13:46:47Z</time>
      </trkpt>
      <trkpt lat="47.36219" lon="6.27469">
        <ele>417.1</ele>
        <time>2012-08-06T13:46:59Z</time>
      </trkpt>
      <trkpt lat="47.36235" lon="6.27449">
        <ele>416.6</ele>
        <time>2012-08-06T13:47:07Z</time>
      </trkpt>
      <trkpt lat="47.36243" lon="6.27421">
        <ele>416.2</ele>
        <time>2012-08-06T13:47:14Z</time>
      </trkpt>
      <trkpt lat="47.36256" lon="6.27396">
        <ele>415.7</ele>
        <time>2012-08-06T13:47:23Z</time>
      </trkpt>
      <trkpt lat="47.36254" lon="6.27365">
        <ele>415.2</ele>
        <time>2012-08-06T13:47:34Z</time>
      </trkpt>
      <trkpt lat="47.36247" lon="6.27335">
        <ele>415.2</ele>
        <time>2012-08-06T13:47:44Z</time>
      </trkpt>
      <trkpt lat="47.36242" lon="6.27304">
        <ele>415.2</ele>
        <time>2012-08-06T13:47:54Z</time>
      </trkpt>
      <trkpt lat="47.36242" lon="6.27301">
        <ele>415.2</ele>
        <time>2012-08-06T13:47:55Z</time>
      </trkpt>
      <trkpt lat="47.3624" lon="6.27242">
        <ele>416.2</ele>
        <time>2012-08-06T13:48:14Z</time>
      </trkpt>
      <trkpt lat="47.36239" lon="6.2721">
        <ele>417.2</ele>
        <time>2012-08-06T13:48:21Z</time>
      </trkpt>
      <trkpt lat="47.36239" lon="6.2718">
        <ele>418.7</ele>
        <time>2012-08-06T13:48:26Z</time>
      </trkpt>
      <trkpt lat="47.36239" lon="6.27147">
        <ele>419.7</ele>
        <time>2012-08-06T13:48:31Z</time>
      </trkpt>
      <trkpt lat="47.36238" lon="6.27119">
        <ele>420.5</ele>
        <time>2012-08-06T13:48:35Z</time>
      </trkpt>
      <trkpt lat="47.36237" lon="6.27088">
        <ele>420.7</ele>
        <time>2012-08-06T13:48:39Z</time>
      </trkpt>
      <trkpt lat="47.36233" lon="6.27058">
        <ele>420.7</ele>
        <time>2012-08-06T13:48:43Z</time>
      </trkpt>
      <trkpt lat="47.36229" lon="6.27028">
        <ele>420.6</ele>
        <time>2012-08-06T13:48:47Z</time>
      </trkpt>
      <trkpt lat="47.36224" lon="6.26999">
        <ele>420.2</ele>
        <time>2012-08-06T13:48:51Z</time>
      </trkpt>
      <trkpt lat="47.36217" lon="6.26972">
        <ele>419.7</ele>
        <time>2012-08-06T13:48:55Z</time>
      </trkpt>
      <trkpt lat="47.36215" lon="6.26965">
        <ele>419.7</ele>
        <time>2012-08-06T13:48:56Z</time>
      </trkpt>
      <trkpt lat="47.36197" lon="6.26922">
        <ele>419.2</ele>
        <time>2012-08-06T13:49:03Z</time>
      </trkpt>
      <trkpt lat="47.36185" lon="6.26897">
        <ele>418.7</ele>
        <time>2012-08-06T13:49:07Z</time>
      </trkpt>
      <trkpt lat="47.36173" lon="6.26872">
        <ele>418.2</ele>
        <time>2012-08-06T13:49:11Z</time>
      </trkpt>
      <trkpt lat="47.36162" lon="6.26846">
        <ele>417.7</ele>
        <time>2012-08-06T13:49:15Z</time>
      </trkpt>
      <trkpt lat="47.36157" lon="6.26815">
        <ele>417</ele>
        <time>2012-08-06T13:49:20Z</time>
      </trkpt>
      <trkpt lat="47.36155" lon="6.26785">
        <ele>416.2</ele>
        <time>2012-08-06T13:49:25Z</time>
      </trkpt>
      <trkpt lat="47.36154" lon="6.26754">
        <ele>416</ele>
        <time>2012-08-06T13:49:30Z</time>
      </trkpt>
      <trkpt lat="47.36153" lon="6.26727">
        <ele>415.7</ele>
        <time>2012-08-06T13:49:34Z</time>
      </trkpt>
      <trkpt lat="47.36151" lon="6.26698">
        <ele>415.6</ele>
        <time>2012-08-06T13:49:38Z</time>
      </trkpt>
      <trkpt lat="47.3615" lon="6.26668">
        <ele>415.5</ele>
        <time>2012-08-06T13:49:42Z</time>
      </trkpt>
      <trkpt lat="47.36148" lon="6.26636">
        <ele>415.2</ele>
        <time>2012-08-06T13:49:46Z</time>
      </trkpt>
      <trkpt lat="47.36147" lon="6.2661">
        <ele>414.7</ele>
        <time>2012-08-06T13:49:49Z</time>
      </trkpt>
      <trkpt lat="47.36145" lon="6.26581">
        <ele>414.5</ele>
        <time>2012-08-06T13:49:53Z</time>
      </trkpt>
      <trkpt lat="47.36142" lon="6.26551">
        <ele>414.2</ele>
        <time>2012-08-06T13:50:00Z</time>
      </trkpt>
      <trkpt lat="47.36142" lon="6.26548">
        <ele>414.2</ele>
        <time>2012-08-06T13:50:01Z</time>
      </trkpt>
      <trkpt lat="47.36129" lon="6.26489">
        <ele>414</ele>
        <time>2012-08-06T13:50:20Z</time>
      </trkpt>
      <trkpt lat="47.36138" lon="6.2646">
        <ele>413.6</ele>
        <time>2012-08-06T13:50:32Z</time>
      </trkpt>
      <trkpt lat="47.36159" lon="6.26451">
        <ele>413.2</ele>
        <time>2012-08-06T13:50:41Z</time>
      </trkpt>
      <trkpt lat="47.36182" lon="6.26447">
        <ele>413.2</ele>
        <time>2012-08-06T13:50:50Z</time>
      </trkpt>
      <trkpt lat="47.36203" lon="6.26443">
        <ele>412.7</ele>
        <time>2012-08-06T13:50:57Z</time>
      </trkpt>
      <trkpt lat="47.36222" lon="6.26434">
        <ele>411.7</ele>
        <time>2012-08-06T13:51:01Z</time>
      </trkpt>
      <trkpt lat="47.36227" lon="6.26432">
        <ele>411.7</ele>
        <time>2012-08-06T13:51:02Z</time>
      </trkpt>
      <trkpt lat="47.3626" lon="6.26437">
        <ele>411.2</ele>
        <time>2012-08-06T13:51:08Z</time>
      </trkpt>
      <trkpt lat="47.36275" lon="6.26449">
        <ele>411</ele>
        <time>2012-08-06T13:51:11Z</time>
      </trkpt>
      <trkpt lat="47.36294" lon="6.26465">
        <ele>410.7</ele>
        <time>2012-08-06T13:51:15Z</time>
      </trkpt>
      <trkpt lat="47.36313" lon="6.26477">
        <ele>410.6</ele>
        <time>2012-08-06T13:51:19Z</time>
      </trkpt>
      <trkpt lat="47.36333" lon="6.26482">
        <ele>410.5</ele>
        <time>2012-08-06T13:51:23Z</time>
      </trkpt>
      <trkpt lat="47.36353" lon="6.26486">
        <ele>410.2</ele>
        <time>2012-08-06T13:51:27Z</time>
      </trkpt>
      <trkpt lat="47.3637" lon="6.26489">
        <ele>409.7</ele>
        <time>2012-08-06T13:51:30Z</time>
      </trkpt>
      <trkpt lat="47.36387" lon="6.26493">
        <ele>409.7</ele>
        <time>2012-08-06T13:51:33Z</time>
      </trkpt>
      <trkpt lat="47.3641" lon="6.26494">
        <ele>409.5</ele>
        <time>2012-08-06T13:51:37Z</time>
      </trkpt>
      <trkpt lat="47.36432" lon="6.26491">
        <ele>409.2</ele>
        <time>2012-08-06T13:51:42Z</time>
      </trkpt>
      <trkpt lat="47.36452" lon="6.26491">
        <ele>409</ele>
        <time>2012-08-06T13:51:47Z</time>
      </trkpt>
      <trkpt lat="47.36474" lon="6.2649">
        <ele>409</ele>
        <time>2012-08-06T13:51:53Z</time>
      </trkpt>
      <trkpt lat="47.36493" lon="6.26485">
        <ele>408.7</ele>
        <time>2012-08-06T13:51:59Z</time>
      </trkpt>
      <trkpt lat="47.36515" lon="6.2648">
        <ele>408.7</ele>
        <time>2012-08-06T13:52:07Z</time>
      </trkpt>
      <trkpt lat="47.36517" lon="6.26479">
        <ele>408.7</ele>
        <time>2012-08-06T13:52:08Z</time>
      </trkpt>
      <trkpt lat="47.36557" lon="6.26486">
        <ele>408.2</ele>
        <time>2012-08-06T13:52:28Z</time>
      </trkpt>
      <trkpt lat="47.36575" lon="6.26503">
        <ele>408.1</ele>
        <time>2012-08-06T13:52:38Z</time>
      </trkpt>
      <trkpt lat="47.36592" lon="6.26523">
        <ele>407.7</ele>
        <time>2012-08-06T13:52:48Z</time>
      </trkpt>
      <trkpt lat="47.36607" lon="6.26545">
        <ele>407.7</ele>
        <time>2012-08-06T13:52:58Z</time>
      </trkpt>
      <trkpt lat="47.36624" lon="6.26566">
        <ele>407.7</ele>
        <time>2012-08-06T13:53:08Z</time>
      </trkpt>
      <trkpt lat="47.36642" lon="6.26579">
        <ele>407.6</ele>
        <time>2012-08-06T13:53:17Z</time>
      </trkpt>
      <trkpt lat="47.36644" lon="6.26581">
        <ele>407.5</ele>
        <time>2012-08-06T13:53:18Z</time>
      </trkpt>
      <trkpt lat="47.36681" lon="6.26607">
        <ele>407.2</ele>
        <time>2012-08-06T13:53:36Z</time>
      </trkpt>
      <trkpt lat="47.367" lon="6.26622">
        <ele>407.2</ele>
        <time>2012-08-06T13:53:46Z</time>
      </trkpt>
      <trkpt lat="47.36719" lon="6.26634">
        <ele>407.1</ele>
        <time>2012-08-06T13:53:55Z</time>
      </trkpt>
      <trkpt lat="47.36739" lon="6.26643">
        <ele>407</ele>
        <time>2012-08-06T13:54:04Z</time>
      </trkpt>
      <trkpt lat="47.36759" lon="6.2665">
        <ele>407</ele>
        <time>2012-08-06T13:54:13Z</time>
      </trkpt>
      <trkpt lat="47.3678" lon="6.2666">
        <ele>407</ele>
        <time>2012-08-06T13:54:23Z</time>
      </trkpt>
      <trkpt lat="47.36783" lon="6.26661">
        <ele>407</ele>
        <time>2012-08-06T13:54:24Z</time>
      </trkpt>
      <trkpt lat="47.3682" lon="6.26686">
        <ele>407.1</ele>
        <time>2012-08-06T13:54:42Z</time>
      </trkpt>
      <trkpt lat="47.36839" lon="6.26704">
        <ele>407.2</ele>
        <time>2012-08-06T13:54:52Z</time>
      </trkpt>
      <trkpt lat="47.36858" lon="6.26717">
        <ele>407.2</ele>
        <time>2012-08-06T13:55:00Z</time>
      </trkpt>
      <trkpt lat="47.36876" lon="6.2673">
        <ele>407.2</ele>
        <time>2012-08-06T13:55:07Z</time>
      </trkpt>
      <trkpt lat="47.36895" lon="6.26745">
        <ele>407.2</ele>
        <time>2012-08-06T13:55:14Z</time>
      </trkpt>
      <trkpt lat="47.36914" lon="6.26761">
        <ele>407.5</ele>
        <time>2012-08-06T13:55:21Z</time>
      </trkpt>
      <trkpt lat="47.36923" lon="6.26788">
        <ele>407.5</ele>
        <time>2012-08-06T13:55:27Z</time>
      </trkpt>
      <trkpt lat="47.36925" lon="6.26793">
        <ele>407.5</ele>
        <time>2012-08-06T13:55:28Z</time>
      </trkpt>
      <trkpt lat="47.36947" lon="6.26835">
        <ele>407.2</ele>
        <time>2012-08-06T13:55:39Z</time>
      </trkpt>
      <trkpt lat="47.36963" lon="6.26854">
        <ele>407.2</ele>
        <time>2012-08-06T13:55:44Z</time>
      </trkpt>
      <trkpt lat="47.3698" lon="6.26872">
        <ele>406.7</ele>
        <time>2012-08-06T13:55:49Z</time>
      </trkpt>
      <trkpt lat="47.37" lon="6.26884">
        <ele>406.5</ele>
        <time>2012-08-06T13:55:54Z</time>
      </trkpt>
      <trkpt lat="47.37019" lon="6.26888">
        <ele>406.1</ele>
        <time>2012-08-06T13:55:58Z</time>
      </trkpt>
      <trkpt lat="47.3704" lon="6.2689">
        <ele>405.6</ele>
        <time>2012-08-06T13:56:02Z</time>
      </trkpt>
      <trkpt lat="47.37061" lon="6.2689">
        <ele>405.2</ele>
        <time>2012-08-06T13:56:06Z</time>
      </trkpt>
      <trkpt lat="47.37082" lon="6.26888">
        <ele>404.7</ele>
        <time>2012-08-06T13:56:10Z</time>
      </trkpt>
      <trkpt lat="47.37101" lon="6.26889">
        <ele>404.5</ele>
        <time>2012-08-06T13:56:14Z</time>
      </trkpt>
      <trkpt lat="47.37124" lon="6.26887">
        <ele>403.7</ele>
        <time>2012-08-06T13:56:19Z</time>
      </trkpt>
      <trkpt lat="47.37141" lon="6.2689">
        <ele>402.7</ele>
        <time>2012-08-06T13:56:22Z</time>
      </trkpt>
      <trkpt lat="47.37159" lon="6.26896">
        <ele>401.7</ele>
        <time>2012-08-06T13:56:25Z</time>
      </trkpt>
      <trkpt lat="47.3718" lon="6.26903">
        <ele>400.2</ele>
        <time>2012-08-06T13:56:29Z</time>
      </trkpt>
      <trkpt lat="47.37185" lon="6.26905">
        <ele>400</ele>
        <time>2012-08-06T13:56:30Z</time>
      </trkpt>
      <trkpt lat="47.37213" lon="6.26935">
        <ele>398.6</ele>
        <time>2012-08-06T13:56:36Z</time>
      </trkpt>
      <trkpt lat="47.37231" lon="6.26951">
        <ele>397.2</ele>
        <time>2012-08-06T13:56:39Z</time>
      </trkpt>
      <trkpt lat="47.3725" lon="6.26966">
        <ele>396.1</ele>
        <time>2012-08-06T13:56:42Z</time>
      </trkpt>
      <trkpt lat="47.3727" lon="6.2698">
        <ele>395.5</ele>
        <time>2012-08-06T13:56:45Z</time>
      </trkpt>
      <trkpt lat="47.37284" lon="6.2699">
        <ele>395.2</ele>
        <time>2012-08-06T13:56:47Z</time>
      </trkpt>
      <trkpt lat="47.37299" lon="6.26999">
        <ele>395.2</ele>
        <time>2012-08-06T13:56:49Z</time>
      </trkpt>
      <trkpt lat="47.37313" lon="6.27009">
        <ele>395</ele>
        <time>2012-08-06T13:56:51Z</time>
      </trkpt>
      <trkpt lat="47.37332" lon="6.27023">
        <ele>394.6</ele>
        <time>2012-08-06T13:56:54Z</time>
      </trkpt>
      <trkpt lat="47.37351" lon="6.27035">
        <ele>393.7</ele>
        <time>2012-08-06T13:56:57Z</time>
      </trkpt>
      <trkpt lat="47.37368" lon="6.27047">
        <ele>393.2</ele>
        <time>2012-08-06T13:57:00Z</time>
      </trkpt>
      <trkpt lat="47.37388" lon="6.27058">
        <ele>392.2</ele>
        <time>2012-08-06T13:57:04Z</time>
      </trkpt>
      <trkpt lat="47.37407" lon="6.27063">
        <ele>391.2</ele>
        <time>2012-08-06T13:57:07Z</time>
      </trkpt>
      <trkpt lat="47.37425" lon="6.27061">
        <ele>390.6</ele>
        <time>2012-08-06T13:57:10Z</time>
      </trkpt>
      <trkpt lat="47.37444" lon="6.27057">
        <ele>390.1</ele>
        <time>2012-08-06T13:57:14Z</time>
      </trkpt>
      <trkpt lat="47.37464" lon="6.27066">
        <ele>389.2</ele>
        <time>2012-08-06T13:57:19Z</time>
      </trkpt>
      <trkpt lat="47.3748" lon="6.27088">
        <ele>388</ele>
        <time>2012-08-06T13:57:24Z</time>
      </trkpt>
      <trkpt lat="47.37495" lon="6.27102">
        <ele>387.1</ele>
        <time>2012-08-06T13:57:28Z</time>
      </trkpt>
      <trkpt lat="47.37516" lon="6.27102">
        <ele>386.2</ele>
        <time>2012-08-06T13:57:32Z</time>
      </trkpt>
      <trkpt lat="47.37522" lon="6.271">
        <ele>386</ele>
        <time>2012-08-06T13:57:33Z</time>
      </trkpt>
      <trkpt lat="47.3755" lon="6.27086">
        <ele>384.1</ele>
        <time>2012-08-06T13:57:38Z</time>
      </trkpt>
      <trkpt lat="47.37567" lon="6.2708">
        <ele>382.7</ele>
        <time>2012-08-06T13:57:41Z</time>
      </trkpt>
      <trkpt lat="47.37588" lon="6.27078">
        <ele>381.5</ele>
        <time>2012-08-06T13:57:45Z</time>
      </trkpt>
      <trkpt lat="47.37606" lon="6.27076">
        <ele>380.2</ele>
        <time>2012-08-06T13:57:49Z</time>
      </trkpt>
      <trkpt lat="47.37627" lon="6.27076">
        <ele>379.2</ele>
        <time>2012-08-06T13:57:54Z</time>
      </trkpt>
      <trkpt lat="47.37647" lon="6.27075">
        <ele>379</ele>
        <time>2012-08-06T13:57:58Z</time>
      </trkpt>
      <trkpt lat="47.37664" lon="6.27074">
        <ele>378.2</ele>
        <time>2012-08-06T13:58:01Z</time>
      </trkpt>
      <trkpt lat="47.37684" lon="6.27071">
        <ele>377</ele>
        <time>2012-08-06T13:58:05Z</time>
      </trkpt>
      <trkpt lat="47.37704" lon="6.27067">
        <ele>376.2</ele>
        <time>2012-08-06T13:58:10Z</time>
      </trkpt>
      <trkpt lat="47.37723" lon="6.27067">
        <ele>375.7</ele>
        <time>2012-08-06T13:58:16Z</time>
      </trkpt>
      <trkpt lat="47.37744" lon="6.27072">
        <ele>375.5</ele>
        <time>2012-08-06T13:58:22Z</time>
      </trkpt>
      <trkpt lat="47.37761" lon="6.27086">
        <ele>373.2</ele>
        <time>2012-08-06T13:58:27Z</time>
      </trkpt>
      <trkpt lat="47.37782" lon="6.27093">
        <ele>371.2</ele>
        <time>2012-08-06T13:58:31Z</time>
      </trkpt>
      <trkpt lat="47.378" lon="6.27091">
        <ele>370.2</ele>
        <time>2012-08-06T13:58:34Z</time>
      </trkpt>
      <trkpt lat="47.37806" lon="6.27088">
        <ele>370.1</ele>
        <time>2012-08-06T13:58:35Z</time>
      </trkpt>
      <trkpt lat="47.37836" lon="6.27077">
        <ele>368.7</ele>
        <time>2012-08-06T13:58:39Z</time>
      </trkpt>
      <trkpt lat="47.37852" lon="6.27073">
        <ele>368</ele>
        <time>2012-08-06T13:58:41Z</time>
      </trkpt>
      <trkpt lat="47.37869" lon="6.27076">
        <ele>367.2</ele>
        <time>2012-08-06T13:58:43Z</time>
      </trkpt>
      <trkpt lat="47.37885" lon="6.27083">
        <ele>366.6</ele>
        <time>2012-08-06T13:58:45Z</time>
      </trkpt>
      <trkpt lat="47.379" lon="6.27092">
        <ele>366.2</ele>
        <time>2012-08-06T13:58:47Z</time>
      </trkpt>
      <trkpt lat="47.3792" lon="6.27106">
        <ele>365.2</ele>
        <time>2012-08-06T13:58:50Z</time>
      </trkpt>
      <trkpt lat="47.37936" lon="6.27123">
        <ele>364.7</ele>
        <time>2012-08-06T13:58:53Z</time>
      </trkpt>
      <trkpt lat="47.37946" lon="6.27144">
        <ele>364.2</ele>
        <time>2012-08-06T13:58:56Z</time>
      </trkpt>
      <trkpt lat="47.37951" lon="6.27173">
        <ele>363.7</ele>
        <time>2012-08-06T13:59:00Z</time>
      </trkpt>
      <trkpt lat="47.37942" lon="6.27199">
        <ele>363.1</ele>
        <time>2012-08-06T13:59:05Z</time>
      </trkpt>
      <trkpt lat="47.37931" lon="6.27224">
        <ele>362</ele>
        <time>2012-08-06T13:59:10Z</time>
      </trkpt>
      <trkpt lat="47.37921" lon="6.27251">
        <ele>361.7</ele>
        <time>2012-08-06T13:59:16Z</time>
      </trkpt>
      <trkpt lat="47.37911" lon="6.27278">
        <ele>361.6</ele>
        <time>2012-08-06T13:59:22Z</time>
      </trkpt>
      <trkpt lat="47.37903" lon="6.27308">
        <ele>361</ele>
        <time>2012-08-06T13:59:32Z</time>
      </trkpt>
      <trkpt lat="47.37904" lon="6.2734">
        <ele>360.2</ele>
        <time>2012-08-06T13:59:45Z</time>
      </trkpt>
      <trkpt lat="47.37906" lon="6.27342">
        <ele>360.2</ele>
        <time>2012-08-06T13:59:46Z</time>
      </trkpt>
      <trkpt lat="47.37942" lon="6.27366">
        <ele>358.7</ele>
        <time>2012-08-06T14:00:11Z</time>
      </trkpt>
      <trkpt lat="47.37964" lon="6.27369">
        <ele>355.7</ele>
        <time>2012-08-06T14:00:16Z</time>
      </trkpt>
      <trkpt lat="47.37981" lon="6.2737">
        <ele>355</ele>
        <time>2012-08-06T14:00:19Z</time>
      </trkpt>
      <trkpt lat="47.38" lon="6.27373">
        <ele>354.5</ele>
        <time>2012-08-06T14:00:22Z</time>
      </trkpt>
      <trkpt lat="47.3802" lon="6.27377">
        <ele>354.2</ele>
        <time>2012-08-06T14:00:25Z</time>
      </trkpt>
      <trkpt lat="47.38041" lon="6.27383">
        <ele>353.7</ele>
        <time>2012-08-06T14:00:28Z</time>
      </trkpt>
      <trkpt lat="47.3806" lon="6.2739">
        <ele>353.2</ele>
        <time>2012-08-06T14:00:31Z</time>
      </trkpt>
      <trkpt lat="47.38077" lon="6.27397">
        <ele>353</ele>
        <time>2012-08-06T14:00:34Z</time>
      </trkpt>
      <trkpt lat="47.38094" lon="6.27405">
        <ele>352.7</ele>
        <time>2012-08-06T14:00:37Z</time>
      </trkpt>
      <trkpt lat="47.38114" lon="6.27413">
        <ele>352.2</ele>
        <time>2012-08-06T14:00:41Z</time>
      </trkpt>
      <trkpt lat="47.38136" lon="6.27417">
        <ele>351.7</ele>
        <time>2012-08-06T14:00:47Z</time>
      </trkpt>
      <trkpt lat="47.3814" lon="6.27417">
        <ele>351.7</ele>
        <time>2012-08-06T14:00:48Z</time>
      </trkpt>
      <trkpt lat="47.38842" lon="6.27425">
        <ele>345.5</ele>
        <time>2012-08-06T14:03:42Z</time>
      </trkpt>
      <trkpt lat="47.38866" lon="6.27431">
        <ele>337.7</ele>
        <time>2012-08-06T14:05:05Z</time>
      </trkpt>
      <trkpt lat="47.38904" lon="6.27419">
        <ele>335.5</ele>
        <time>2012-08-06T14:05:15Z</time>
      </trkpt>
      <trkpt lat="47.38921" lon="6.27411">
        <ele>333.7</ele>
        <time>2012-08-06T14:05:18Z</time>
      </trkpt>
      <trkpt lat="47.3894" lon="6.27401">
        <ele>332.7</ele>
        <time>2012-08-06T14:05:21Z</time>
      </trkpt>
      <trkpt lat="47.38957" lon="6.27389">
        <ele>332.2</ele>
        <time>2012-08-06T14:05:24Z</time>
      </trkpt>
      <trkpt lat="47.38973" lon="6.27374">
        <ele>331.7</ele>
        <time>2012-08-06T14:05:27Z</time>
      </trkpt>
      <trkpt lat="47.38991" lon="6.27361">
        <ele>331.6</ele>
        <time>2012-08-06T14:05:30Z</time>
      </trkpt>
      <trkpt lat="47.39005" lon="6.27355">
        <ele>331.5</ele>
        <time>2012-08-06T14:05:32Z</time>
      </trkpt>
      <trkpt lat="47.3902" lon="6.27351">
        <ele>331.5</ele>
        <time>2012-08-06T14:05:34Z</time>
      </trkpt>
      <trkpt lat="47.39037" lon="6.27353">
        <ele>331.5</ele>
        <time>2012-08-06T14:05:36Z</time>
      </trkpt>
      <trkpt lat="47.39056" lon="6.27356">
        <ele>331.5</ele>
        <time>2012-08-06T14:05:38Z</time>
      </trkpt>
      <trkpt lat="47.39074" lon="6.2736">
        <ele>331.5</ele>
        <time>2012-08-06T14:05:40Z</time>
      </trkpt>
      <trkpt lat="47.39091" lon="6.27362">
        <ele>331.2</ele>
        <time>2012-08-06T14:05:42Z</time>
      </trkpt>
      <trkpt lat="47.39109" lon="6.27363">
        <ele>331.2</ele>
        <time>2012-08-06T14:05:44Z</time>
      </trkpt>
      <trkpt lat="47.39127" lon="6.27362">
        <ele>331.1</ele>
        <time>2012-08-06T14:05:46Z</time>
      </trkpt>
      <trkpt lat="47.39146" lon="6.27359">
        <ele>330.7</ele>
        <time>2012-08-06T14:05:48Z</time>
      </trkpt>
      <trkpt lat="47.39165" lon="6.27354">
        <ele>330.7</ele>
        <time>2012-08-06T14:05:50Z</time>
      </trkpt>
      <trkpt lat="47.39183" lon="6.27346">
        <ele>330.6</ele>
        <time>2012-08-06T14:05:52Z</time>
      </trkpt>
      <trkpt lat="47.39201" lon="6.27336">
        <ele>330.2</ele>
        <time>2012-08-06T14:05:54Z</time>
      </trkpt>
      <trkpt lat="47.39219" lon="6.27321">
        <ele>329.7</ele>
        <time>2012-08-06T14:05:56Z</time>
      </trkpt>
      <trkpt lat="47.39236" lon="6.27303">
        <ele>329.6</ele>
        <time>2012-08-06T14:05:58Z</time>
      </trkpt>
      <trkpt lat="47.3925" lon="6.2728">
        <ele>329</ele>
        <time>2012-08-06T14:06:00Z</time>
      </trkpt>
      <trkpt lat="47.39263" lon="6.27254">
        <ele>328.2</ele>
        <time>2012-08-06T14:06:02Z</time>
      </trkpt>
      <trkpt lat="47.39276" lon="6.27227">
        <ele>327.6</ele>
        <time>2012-08-06T14:06:04Z</time>
      </trkpt>
      <trkpt lat="47.39282" lon="6.27213">
        <ele>327.2</ele>
        <time>2012-08-06T14:06:05Z</time>
      </trkpt>
      <trkpt lat="47.39287" lon="6.27198">
        <ele>327</ele>
        <time>2012-08-06T14:06:06Z</time>
      </trkpt>
      <trkpt lat="47.39293" lon="6.27183">
        <ele>326.7</ele>
        <time>2012-08-06T14:06:07Z</time>
      </trkpt>
      <trkpt lat="47.39299" lon="6.27169">
        <ele>326.2</ele>
        <time>2012-08-06T14:06:08Z</time>
      </trkpt>
      <trkpt lat="47.39307" lon="6.27155">
        <ele>326.2</ele>
        <time>2012-08-06T14:06:09Z</time>
      </trkpt>
      <trkpt lat="47.39316" lon="6.27144">
        <ele>326.1</ele>
        <time>2012-08-06T14:06:10Z</time>
      </trkpt>
      <trkpt lat="47.39325" lon="6.27134">
        <ele>325.7</ele>
        <time>2012-08-06T14:06:11Z</time>
      </trkpt>
      <trkpt lat="47.39335" lon="6.27124">
        <ele>325.7</ele>
        <time>2012-08-06T14:06:12Z</time>
      </trkpt>
      <trkpt lat="47.39344" lon="6.27115">
        <ele>325.6</ele>
        <time>2012-08-06T14:06:13Z</time>
      </trkpt>
      <trkpt lat="47.39354" lon="6.27107">
        <ele>325.2</ele>
        <time>2012-08-06T14:06:14Z</time>
      </trkpt>
      <trkpt lat="47.39364" lon="6.27098">
        <ele>325.1</ele>
        <time>2012-08-06T14:06:15Z</time>
      </trkpt>
      <trkpt lat="47.39375" lon="6.27089">
        <ele>324.5</ele>
        <time>2012-08-06T14:06:16Z</time>
      </trkpt>
      <trkpt lat="47.39385" lon="6.2708">
        <ele>323.7</ele>
        <time>2012-08-06T14:06:17Z</time>
      </trkpt>
      <trkpt lat="47.39396" lon="6.27072">
        <ele>322.7</ele>
        <time>2012-08-06T14:06:18Z</time>
      </trkpt>
      <trkpt lat="47.39406" lon="6.27063">
        <ele>321.7</ele>
        <time>2012-08-06T14:06:19Z</time>
      </trkpt>
      <trkpt lat="47.39426" lon="6.27049">
        <ele>319.5</ele>
        <time>2012-08-06T14:06:21Z</time>
      </trkpt>
      <trkpt lat="47.39445" lon="6.27034">
        <ele>317.5</ele>
        <time>2012-08-06T14:06:23Z</time>
      </trkpt>
      <trkpt lat="47.39462" lon="6.27015">
        <ele>315.7</ele>
        <time>2012-08-06T14:06:25Z</time>
      </trkpt>
      <trkpt lat="47.39474" lon="6.26991">
        <ele>314.5</ele>
        <time>2012-08-06T14:06:27Z</time>
      </trkpt>
      <trkpt lat="47.39483" lon="6.26967">
        <ele>313.2</ele>
        <time>2012-08-06T14:06:29Z</time>
      </trkpt>
      <trkpt lat="47.39491" lon="6.26942">
        <ele>312.2</ele>
        <time>2012-08-06T14:06:31Z</time>
      </trkpt>
      <trkpt lat="47.39498" lon="6.26919">
        <ele>311.5</ele>
        <time>2012-08-06T14:06:33Z</time>
      </trkpt>
      <trkpt lat="47.39503" lon="6.26897">
        <ele>310.7</ele>
        <time>2012-08-06T14:06:35Z</time>
      </trkpt>
      <trkpt lat="47.39509" lon="6.26866">
        <ele>309.6</ele>
        <time>2012-08-06T14:06:38Z</time>
      </trkpt>
      <trkpt lat="47.39516" lon="6.26838">
        <ele>308.2</ele>
        <time>2012-08-06T14:06:41Z</time>
      </trkpt>
      <trkpt lat="47.39524" lon="6.2681">
        <ele>307.1</ele>
        <time>2012-08-06T14:06:44Z</time>
      </trkpt>
      <trkpt lat="47.39532" lon="6.26783">
        <ele>305.7</ele>
        <time>2012-08-06T14:06:47Z</time>
      </trkpt>
      <trkpt lat="47.39541" lon="6.26755">
        <ele>304.6</ele>
        <time>2012-08-06T14:06:50Z</time>
      </trkpt>
      <trkpt lat="47.39549" lon="6.26728">
        <ele>303.2</ele>
        <time>2012-08-06T14:06:53Z</time>
      </trkpt>
      <trkpt lat="47.39558" lon="6.26701">
        <ele>302.2</ele>
        <time>2012-08-06T14:06:56Z</time>
      </trkpt>
      <trkpt lat="47.39567" lon="6.26673">
        <ele>301.2</ele>
        <time>2012-08-06T14:06:59Z</time>
      </trkpt>
      <trkpt lat="47.39575" lon="6.26654">
        <ele>300.2</ele>
        <time>2012-08-06T14:07:01Z</time>
      </trkpt>
      <trkpt lat="47.39584" lon="6.26636">
        <ele>299.2</ele>
        <time>2012-08-06T14:07:03Z</time>
      </trkpt>
      <trkpt lat="47.39593" lon="6.26616">
        <ele>298.5</ele>
        <time>2012-08-06T14:07:05Z</time>
      </trkpt>
      <trkpt lat="47.39602" lon="6.26598">
        <ele>297.7</ele>
        <time>2012-08-06T14:07:07Z</time>
      </trkpt>
      <trkpt lat="47.39607" lon="6.26588">
        <ele>297.2</ele>
        <time>2012-08-06T14:07:08Z</time>
      </trkpt>
      <trkpt lat="47.39621" lon="6.26551">
        <ele>296.2</ele>
        <time>2012-08-06T14:07:12Z</time>
      </trkpt>
      <trkpt lat="47.39629" lon="6.26525">
        <ele>295.2</ele>
        <time>2012-08-06T14:07:15Z</time>
      </trkpt>
      <trkpt lat="47.39634" lon="6.265">
        <ele>294.7</ele>
        <time>2012-08-06T14:07:18Z</time>
      </trkpt>
      <trkpt lat="47.39638" lon="6.26472">
        <ele>294.2</ele>
        <time>2012-08-06T14:07:22Z</time>
      </trkpt>
      <trkpt lat="47.39643" lon="6.2644">
        <ele>294</ele>
        <time>2012-08-06T14:07:28Z</time>
      </trkpt>
      <trkpt lat="47.39647" lon="6.26412">
        <ele>292.2</ele>
        <time>2012-08-06T14:07:33Z</time>
      </trkpt>
      <trkpt lat="47.39653" lon="6.26383">
        <ele>290.7</ele>
        <time>2012-08-06T14:07:38Z</time>
      </trkpt>
      <trkpt lat="47.39662" lon="6.26353">
        <ele>289.6</ele>
        <time>2012-08-06T14:07:43Z</time>
      </trkpt>
      <trkpt lat="47.3967" lon="6.26324">
        <ele>288.7</ele>
        <time>2012-08-06T14:07:47Z</time>
      </trkpt>
      <trkpt lat="47.39675" lon="6.263">
        <ele>288.2</ele>
        <time>2012-08-06T14:07:50Z</time>
      </trkpt>
      <trkpt lat="47.39675" lon="6.26271">
        <ele>287.7</ele>
        <time>2012-08-06T14:07:53Z</time>
      </trkpt>
      <trkpt lat="47.39669" lon="6.26242">
        <ele>287.2</ele>
        <time>2012-08-06T14:07:56Z</time>
      </trkpt>
      <trkpt lat="47.39661" lon="6.26213">
        <ele>287.2</ele>
        <time>2012-08-06T14:08:00Z</time>
      </trkpt>
      <trkpt lat="47.39654" lon="6.26186">
        <ele>286.6</ele>
        <time>2012-08-06T14:08:05Z</time>
      </trkpt>
      <trkpt lat="47.39653" lon="6.26154">
        <ele>286</ele>
        <time>2012-08-06T14:08:10Z</time>
      </trkpt>
      <trkpt lat="47.39654" lon="6.26147">
        <ele>285.7</ele>
        <time>2012-08-06T14:08:11Z</time>
      </trkpt>
      <trkpt lat="47.39669" lon="6.26103">
        <ele>285</ele>
        <time>2012-08-06T14:08:18Z</time>
      </trkpt>
      <trkpt lat="47.39683" lon="6.26083">
        <ele>284.5</ele>
        <time>2012-08-06T14:08:23Z</time>
      </trkpt>
      <trkpt lat="47.39699" lon="6.26062">
        <ele>284.5</ele>
        <time>2012-08-06T14:08:29Z</time>
      </trkpt>
      <trkpt lat="47.39714" lon="6.2604">
        <ele>284.2</ele>
        <time>2012-08-06T14:08:37Z</time>
      </trkpt>
      <trkpt lat="47.39728" lon="6.26018">
        <ele>284.2</ele>
        <time>2012-08-06T14:08:47Z</time>
      </trkpt>
      <trkpt lat="47.39744" lon="6.25999">
        <ele>283.7</ele>
        <time>2012-08-06T14:08:57Z</time>
      </trkpt>
      <trkpt lat="47.39762" lon="6.25979">
        <ele>283.5</ele>
        <time>2012-08-06T14:09:08Z</time>
      </trkpt>
      <trkpt lat="47.39777" lon="6.25959">
        <ele>283</ele>
        <time>2012-08-06T14:09:18Z</time>
      </trkpt>
      <trkpt lat="47.39779" lon="6.25956">
        <ele>283</ele>
        <time>2012-08-06T14:09:19Z</time>
      </trkpt>
      <trkpt lat="47.39808" lon="6.25917">
        <ele>281.7</ele>
        <time>2012-08-06T14:09:33Z</time>
      </trkpt>
      <trkpt lat="47.39825" lon="6.25903">
        <ele>281.5</ele>
        <time>2012-08-06T14:09:40Z</time>
      </trkpt>
      <trkpt lat="47.39845" lon="6.25895">
        <ele>281</ele>
        <time>2012-08-06T14:09:47Z</time>
      </trkpt>
      <trkpt lat="47.39865" lon="6.25893">
        <ele>280.2</ele>
        <time>2012-08-06T14:09:54Z</time>
      </trkpt>
      <trkpt lat="47.39886" lon="6.25882">
        <ele>279.7</ele>
        <time>2012-08-06T14:10:01Z</time>
      </trkpt>
      <trkpt lat="47.399" lon="6.25862">
        <ele>278.7</ele>
        <time>2012-08-06T14:10:08Z</time>
      </trkpt>
      <trkpt lat="47.39913" lon="6.25839">
        <ele>278.2</ele>
        <time>2012-08-06T14:10:14Z</time>
      </trkpt>
      <trkpt lat="47.39924" lon="6.25814">
        <ele>277.7</ele>
        <time>2012-08-06T14:10:20Z</time>
      </trkpt>
      <trkpt lat="47.39926" lon="6.2581">
        <ele>277.7</ele>
        <time>2012-08-06T14:10:21Z</time>
      </trkpt>
      <trkpt lat="47.39949" lon="6.25765">
        <ele>277.1</ele>
        <time>2012-08-06T14:10:32Z</time>
      </trkpt>
      <trkpt lat="47.39965" lon="6.25741">
        <ele>276.7</ele>
        <time>2012-08-06T14:10:39Z</time>
      </trkpt>
      <trkpt lat="47.39978" lon="6.2572">
        <ele>276.7</ele>
        <time>2012-08-06T14:10:45Z</time>
      </trkpt>
      <trkpt lat="47.39992" lon="6.25695">
        <ele>276.5</ele>
        <time>2012-08-06T14:10:52Z</time>
      </trkpt>
      <trkpt lat="47.40005" lon="6.25668">
        <ele>276.1</ele>
        <time>2012-08-06T14:10:59Z</time>
      </trkpt>
      <trkpt lat="47.40012" lon="6.25639">
        <ele>275.7</ele>
        <time>2012-08-06T14:11:06Z</time>
      </trkpt>
      <trkpt lat="47.4001" lon="6.25609">
        <ele>275.7</ele>
        <time>2012-08-06T14:11:13Z</time>
      </trkpt>
      <trkpt lat="47.40002" lon="6.25583">
        <ele>275.7</ele>
        <time>2012-08-06T14:11:19Z</time>
      </trkpt>
      <trkpt lat="47.39995" lon="6.25554">
        <ele>275.7</ele>
        <time>2012-08-06T14:11:26Z</time>
      </trkpt>
      <trkpt lat="47.39993" lon="6.2555">
        <ele>275.7</ele>
        <time>2012-08-06T14:11:27Z</time>
      </trkpt>
      <trkpt lat="47.39981" lon="6.25498">
        <ele>275.7</ele>
        <time>2012-08-06T14:11:44Z</time>
      </trkpt>
      <trkpt lat="47.39974" lon="6.25466">
        <ele>275.7</ele>
        <time>2012-08-06T14:11:53Z</time>
      </trkpt>
      <trkpt lat="47.39967" lon="6.25436">
        <ele>275.7</ele>
        <time>2012-08-06T14:12:03Z</time>
      </trkpt>
      <trkpt lat="47.39962" lon="6.25404">
        <ele>275.7</ele>
        <time>2012-08-06T14:12:13Z</time>
      </trkpt>
      <trkpt lat="47.39961" lon="6.25372">
        <ele>276.1</ele>
        <time>2012-08-06T14:12:23Z</time>
      </trkpt>
      <trkpt lat="47.39966" lon="6.25342">
        <ele>276.2</ele>
        <time>2012-08-06T14:12:32Z</time>
      </trkpt>
      <trkpt lat="47.39967" lon="6.25339">
        <ele>276.2</ele>
        <time>2012-08-06T14:12:33Z</time>
      </trkpt>
      <trkpt lat="47.39987" lon="6.25284">
        <ele>276.7</ele>
        <time>2012-08-06T14:12:48Z</time>
      </trkpt>
      <trkpt lat="47.39998" lon="6.25258">
        <ele>278.2</ele>
        <time>2012-08-06T14:12:53Z</time>
      </trkpt>
      <trkpt lat="47.40011" lon="6.25235">
        <ele>279</ele>
        <time>2012-08-06T14:12:57Z</time>
      </trkpt>
      <trkpt lat="47.40022" lon="6.25214">
        <ele>279.2</ele>
        <time>2012-08-06T14:13:00Z</time>
      </trkpt>
      <trkpt lat="47.40034" lon="6.25193">
        <ele>279.2</ele>
        <time>2012-08-06T14:13:03Z</time>
      </trkpt>
      <trkpt lat="47.40048" lon="6.25171">
        <ele>279.1</ele>
        <time>2012-08-06T14:13:06Z</time>
      </trkpt>
      <trkpt lat="47.40065" lon="6.25149">
        <ele>278.7</ele>
        <time>2012-08-06T14:13:09Z</time>
      </trkpt>
      <trkpt lat="47.40076" lon="6.25133">
        <ele>278.6</ele>
        <time>2012-08-06T14:13:11Z</time>
      </trkpt>
      <trkpt lat="47.40089" lon="6.25118">
        <ele>278.5</ele>
        <time>2012-08-06T14:13:13Z</time>
      </trkpt>
      <trkpt lat="47.40102" lon="6.25103">
        <ele>278.2</ele>
        <time>2012-08-06T14:13:15Z</time>
      </trkpt>
      <trkpt lat="47.40114" lon="6.25086">
        <ele>278.2</ele>
        <time>2012-08-06T14:13:17Z</time>
      </trkpt>
      <trkpt lat="47.40127" lon="6.2507">
        <ele>278.1</ele>
        <time>2012-08-06T14:13:19Z</time>
      </trkpt>
      <trkpt lat="47.4014" lon="6.25055">
        <ele>278.1</ele>
        <time>2012-08-06T14:13:21Z</time>
      </trkpt>
      <trkpt lat="47.40153" lon="6.25038">
        <ele>278.1</ele>
        <time>2012-08-06T14:13:23Z</time>
      </trkpt>
      <trkpt lat="47.40165" lon="6.2502">
        <ele>277.7</ele>
        <time>2012-08-06T14:13:25Z</time>
      </trkpt>
      <trkpt lat="47.40176" lon="6.25">
        <ele>277.7</ele>
        <time>2012-08-06T14:13:27Z</time>
      </trkpt>
      <trkpt lat="47.40187" lon="6.2498">
        <ele>277.7</ele>
        <time>2012-08-06T14:13:29Z</time>
      </trkpt>
      <trkpt lat="47.40196" lon="6.2496">
        <ele>277.6</ele>
        <time>2012-08-06T14:13:31Z</time>
      </trkpt>
      <trkpt lat="47.40204" lon="6.24939">
        <ele>277.5</ele>
        <time>2012-08-06T14:13:33Z</time>
      </trkpt>
      <trkpt lat="47.40211" lon="6.24918">
        <ele>277.5</ele>
        <time>2012-08-06T14:13:35Z</time>
      </trkpt>
      <trkpt lat="47.40214" lon="6.24908">
        <ele>277.2</ele>
        <time>2012-08-06T14:13:36Z</time>
      </trkpt>
      <trkpt lat="47.40224" lon="6.24866">
        <ele>277.2</ele>
        <time>2012-08-06T14:13:40Z</time>
      </trkpt>
      <trkpt lat="47.40232" lon="6.24837">
        <ele>276.7</ele>
        <time>2012-08-06T14:13:43Z</time>
      </trkpt>
      <trkpt lat="47.40238" lon="6.2481">
        <ele>276.7</ele>
        <time>2012-08-06T14:13:46Z</time>
      </trkpt>
      <trkpt lat="47.40245" lon="6.24785">
        <ele>276.6</ele>
        <time>2012-08-06T14:13:49Z</time>
      </trkpt>
      <trkpt lat="47.40254" lon="6.24756">
        <ele>276.5</ele>
        <time>2012-08-06T14:13:55Z</time>
      </trkpt>
      <trkpt lat="47.40263" lon="6.24728">
        <ele>276.2</ele>
        <time>2012-08-06T14:14:04Z</time>
      </trkpt>
      <trkpt lat="47.40271" lon="6.247">
        <ele>275.7</ele>
        <time>2012-08-06T14:14:12Z</time>
      </trkpt>
      <trkpt lat="47.4028" lon="6.24674">
        <ele>275.6</ele>
        <time>2012-08-06T14:14:20Z</time>
      </trkpt>
      <trkpt lat="47.4029" lon="6.24648">
        <ele>275.2</ele>
        <time>2012-08-06T14:14:27Z</time>
      </trkpt>
      <trkpt lat="47.40301" lon="6.24623">
        <ele>274.7</ele>
        <time>2012-08-06T14:14:33Z</time>
      </trkpt>
      <trkpt lat="47.40312" lon="6.24596">
        <ele>274.5</ele>
        <time>2012-08-06T14:14:39Z</time>
      </trkpt>
      <trkpt lat="47.40314" lon="6.24592">
        <ele>274.5</ele>
        <time>2012-08-06T14:14:40Z</time>
      </trkpt>
      <trkpt lat="47.40342" lon="6.24556">
        <ele>273.6</ele>
        <time>2012-08-06T14:14:52Z</time>
      </trkpt>
      <trkpt lat="47.40361" lon="6.24546">
        <ele>273.1</ele>
        <time>2012-08-06T14:14:59Z</time>
      </trkpt>
      <trkpt lat="47.40382" lon="6.24536">
        <ele>272.7</ele>
        <time>2012-08-06T14:15:07Z</time>
      </trkpt>
      <trkpt lat="47.40402" lon="6.24528">
        <ele>272.6</ele>
        <time>2012-08-06T14:15:14Z</time>
      </trkpt>
      <trkpt lat="47.40422" lon="6.24514">
        <ele>272.6</ele>
        <time>2012-08-06T14:15:22Z</time>
      </trkpt>
      <trkpt lat="47.4044" lon="6.24496">
        <ele>272.7</ele>
        <time>2012-08-06T14:15:29Z</time>
      </trkpt>
      <trkpt lat="47.40456" lon="6.24479">
        <ele>273.2</ele>
        <time>2012-08-06T14:15:34Z</time>
      </trkpt>
      <trkpt lat="47.40471" lon="6.24463">
        <ele>273.5</ele>
        <time>2012-08-06T14:15:38Z</time>
      </trkpt>
      <trkpt lat="47.40486" lon="6.24448">
        <ele>273.2</ele>
        <time>2012-08-06T14:15:41Z</time>
      </trkpt>
      <trkpt lat="47.40491" lon="6.24443">
        <ele>273.2</ele>
        <time>2012-08-06T14:15:42Z</time>
      </trkpt>
      <trkpt lat="47.40518" lon="6.24412">
        <ele>272.5</ele>
        <time>2012-08-06T14:15:47Z</time>
      </trkpt>
      <trkpt lat="47.40532" lon="6.24394">
        <ele>272.5</ele>
        <time>2012-08-06T14:15:50Z</time>
      </trkpt>
      <trkpt lat="47.40544" lon="6.24376">
        <ele>272.2</ele>
        <time>2012-08-06T14:15:53Z</time>
      </trkpt>
      <trkpt lat="47.40555" lon="6.24356">
        <ele>271.7</ele>
        <time>2012-08-06T14:15:56Z</time>
      </trkpt>
      <trkpt lat="47.4057" lon="6.24333">
        <ele>270.7</ele>
        <time>2012-08-06T14:15:59Z</time>
      </trkpt>
      <trkpt lat="47.4058" lon="6.24315">
        <ele>269.7</ele>
        <time>2012-08-06T14:16:01Z</time>
      </trkpt>
      <trkpt lat="47.4059" lon="6.24297">
        <ele>268.7</ele>
        <time>2012-08-06T14:16:03Z</time>
      </trkpt>
      <trkpt lat="47.40599" lon="6.24278">
        <ele>267.7</ele>
        <time>2012-08-06T14:16:05Z</time>
      </trkpt>
      <trkpt lat="47.40611" lon="6.24251">
        <ele>266.7</ele>
        <time>2012-08-06T14:16:08Z</time>
      </trkpt>
      <trkpt lat="47.40622" lon="6.24227">
        <ele>265.5</ele>
        <time>2012-08-06T14:16:11Z</time>
      </trkpt>
      <trkpt lat="47.40631" lon="6.24202">
        <ele>264.2</ele>
        <time>2012-08-06T14:16:15Z</time>
      </trkpt>
      <trkpt lat="47.4065" lon="6.24188">
        <ele>262.7</ele>
        <time>2012-08-06T14:16:21Z</time>
      </trkpt>
      <trkpt lat="47.40668" lon="6.24186">
        <ele>262</ele>
        <time>2012-08-06T14:16:24Z</time>
      </trkpt>
      <trkpt lat="47.4069" lon="6.24183">
        <ele>261.2</ele>
        <time>2012-08-06T14:16:27Z</time>
      </trkpt>
      <trkpt lat="47.40704" lon="6.2418">
        <ele>261</ele>
        <time>2012-08-06T14:16:29Z</time>
      </trkpt>
      <trkpt lat="47.4072" lon="6.24177">
        <ele>260.6</ele>
        <time>2012-08-06T14:16:31Z</time>
      </trkpt>
      <trkpt lat="47.40741" lon="6.24173">
        <ele>260</ele>
        <time>2012-08-06T14:16:34Z</time>
      </trkpt>
      <trkpt lat="47.40763" lon="6.24168">
        <ele>259.5</ele>
        <time>2012-08-06T14:16:37Z</time>
      </trkpt>
      <trkpt lat="47.40785" lon="6.24164">
        <ele>258.7</ele>
        <time>2012-08-06T14:16:40Z</time>
      </trkpt>
      <trkpt lat="47.40805" lon="6.24161">
        <ele>258</ele>
        <time>2012-08-06T14:16:43Z</time>
      </trkpt>
      <trkpt lat="47.40811" lon="6.24159">
        <ele>257.7</ele>
        <time>2012-08-06T14:16:44Z</time>
      </trkpt>
      <trkpt lat="47.40843" lon="6.24154">
        <ele>256.7</ele>
        <time>2012-08-06T14:16:49Z</time>
      </trkpt>
      <trkpt lat="47.4086" lon="6.24151">
        <ele>256.1</ele>
        <time>2012-08-06T14:16:52Z</time>
      </trkpt>
      <trkpt lat="47.40882" lon="6.24147">
        <ele>255.5</ele>
        <time>2012-08-06T14:16:56Z</time>
      </trkpt>
      <trkpt lat="47.40904" lon="6.24145">
        <ele>254.8</ele>
        <time>2012-08-06T14:17:00Z</time>
      </trkpt>
      <trkpt lat="47.40923" lon="6.24145">
        <ele>254</ele>
        <time>2012-08-06T14:17:04Z</time>
      </trkpt>
      <trkpt lat="47.40944" lon="6.24156">
        <ele>252.8</ele>
        <time>2012-08-06T14:17:09Z</time>
      </trkpt>
      <trkpt lat="47.40959" lon="6.24175">
        <ele>252.1</ele>
        <time>2012-08-06T14:17:14Z</time>
      </trkpt>
      <trkpt lat="47.40974" lon="6.24196">
        <ele>251.8</ele>
        <time>2012-08-06T14:17:20Z</time>
      </trkpt>
      <trkpt lat="47.40987" lon="6.24217">
        <ele>251.6</ele>
        <time>2012-08-06T14:17:26Z</time>
      </trkpt>
      <trkpt lat="47.41001" lon="6.2424">
        <ele>251.6</ele>
        <time>2012-08-06T14:17:33Z</time>
      </trkpt>
      <trkpt lat="47.41016" lon="6.24263">
        <ele>251.3</ele>
        <time>2012-08-06T14:17:40Z</time>
      </trkpt>
      <trkpt lat="47.4103" lon="6.24282">
        <ele>251.3</ele>
        <time>2012-08-06T14:17:46Z</time>
      </trkpt>
      <trkpt lat="47.41032" lon="6.24285">
        <ele>251.3</ele>
        <time>2012-08-06T14:17:47Z</time>
      </trkpt>
      <trkpt lat="47.41063" lon="6.24324">
        <ele>251.3</ele>
        <time>2012-08-06T14:18:00Z</time>
      </trkpt>
      <trkpt lat="47.41078" lon="6.24342">
        <ele>251.1</ele>
        <time>2012-08-06T14:18:06Z</time>
      </trkpt>
      <trkpt lat="47.41094" lon="6.2436">
        <ele>251.3</ele>
        <time>2012-08-06T14:18:12Z</time>
      </trkpt>
      <trkpt lat="47.41109" lon="6.24379">
        <ele>251.3</ele>
        <time>2012-08-06T14:18:18Z</time>
      </trkpt>
      <trkpt lat="47.41125" lon="6.24399">
        <ele>251.8</ele>
        <time>2012-08-06T14:18:24Z</time>
      </trkpt>
      <trkpt lat="47.41141" lon="6.24417">
        <ele>253.1</ele>
        <time>2012-08-06T14:18:29Z</time>
      </trkpt>
      <trkpt lat="47.41158" lon="6.24435">
        <ele>253.6</ele>
        <time>2012-08-06T14:18:34Z</time>
      </trkpt>
      <trkpt lat="47.41175" lon="6.24454">
        <ele>253.5</ele>
        <time>2012-08-06T14:18:39Z</time>
      </trkpt>
      <trkpt lat="47.41191" lon="6.24472">
        <ele>253.1</ele>
        <time>2012-08-06T14:18:44Z</time>
      </trkpt>
      <trkpt lat="47.41208" lon="6.24488">
        <ele>252.8</ele>
        <time>2012-08-06T14:18:49Z</time>
      </trkpt>
      <trkpt lat="47.41211" lon="6.24492">
        <ele>252.8</ele>
        <time>2012-08-06T14:18:50Z</time>
      </trkpt>
      <trkpt lat="47.41244" lon="6.24513">
        <ele>253.1</ele>
        <time>2012-08-06T14:18:58Z</time>
      </trkpt>
      <trkpt lat="47.41262" lon="6.24523">
        <ele>253.1</ele>
        <time>2012-08-06T14:19:02Z</time>
      </trkpt>
      <trkpt lat="47.41281" lon="6.24531">
        <ele>253.1</ele>
        <time>2012-08-06T14:19:06Z</time>
      </trkpt>
      <trkpt lat="47.41302" lon="6.24539">
        <ele>252.8</ele>
        <time>2012-08-06T14:19:10Z</time>
      </trkpt>
      <trkpt lat="47.41322" lon="6.24546">
        <ele>252.6</ele>
        <time>2012-08-06T14:19:14Z</time>
      </trkpt>
      <trkpt lat="47.41341" lon="6.24552">
        <ele>252.6</ele>
        <time>2012-08-06T14:19:18Z</time>
      </trkpt>
      <trkpt lat="47.41361" lon="6.24556">
        <ele>252.3</ele>
        <time>2012-08-06T14:19:22Z</time>
      </trkpt>
      <trkpt lat="47.41381" lon="6.24557">
        <ele>252.3</ele>
        <time>2012-08-06T14:19:26Z</time>
      </trkpt>
      <trkpt lat="47.41402" lon="6.24556">
        <ele>252</ele>
        <time>2012-08-06T14:19:30Z</time>
      </trkpt>
      <trkpt lat="47.41423" lon="6.24553">
        <ele>251.6</ele>
        <time>2012-08-06T14:19:34Z</time>
      </trkpt>
      <trkpt lat="47.41444" lon="6.24551">
        <ele>251.5</ele>
        <time>2012-08-06T14:19:38Z</time>
      </trkpt>
      <trkpt lat="47.41462" lon="6.24549">
        <ele>251.3</ele>
        <time>2012-08-06T14:19:42Z</time>
      </trkpt>
      <trkpt lat="47.41483" lon="6.24548">
        <ele>250.8</ele>
        <time>2012-08-06T14:19:47Z</time>
      </trkpt>
      <trkpt lat="47.41505" lon="6.24545">
        <ele>250.6</ele>
        <time>2012-08-06T14:19:53Z</time>
      </trkpt>
      <trkpt lat="47.41509" lon="6.24545">
        <ele>250.6</ele>
        <time>2012-08-06T14:19:54Z</time>
      </trkpt>
      <trkpt lat="47.41547" lon="6.24541">
        <ele>250.6</ele>
        <time>2012-08-06T14:20:05Z</time>
      </trkpt>
      <trkpt lat="47.41569" lon="6.24539">
        <ele>250.6</ele>
        <time>2012-08-06T14:20:13Z</time>
      </trkpt>
      <trkpt lat="47.41591" lon="6.24536">
        <ele>250.6</ele>
        <time>2012-08-06T14:20:21Z</time>
      </trkpt>
      <trkpt lat="47.4161" lon="6.24534">
        <ele>250.6</ele>
        <time>2012-08-06T14:20:28Z</time>
      </trkpt>
      <trkpt lat="47.41631" lon="6.24534">
        <ele>250.8</ele>
        <time>2012-08-06T14:20:35Z</time>
      </trkpt>
      <trkpt lat="47.41651" lon="6.24534">
        <ele>250.8</ele>
        <time>2012-08-06T14:20:41Z</time>
      </trkpt>
      <trkpt lat="47.4167" lon="6.24534">
        <ele>251</ele>
        <time>2012-08-06T14:20:46Z</time>
      </trkpt>
      <trkpt lat="47.41691" lon="6.24533">
        <ele>251.6</ele>
        <time>2012-08-06T14:20:51Z</time>
      </trkpt>
      <trkpt lat="47.41708" lon="6.24522">
        <ele>251.6</ele>
        <time>2012-08-06T14:20:55Z</time>
      </trkpt>
      <trkpt lat="47.41712" lon="6.24518">
        <ele>251.5</ele>
        <time>2012-08-06T14:20:56Z</time>
      </trkpt>
      <trkpt lat="47.41736" lon="6.24479">
        <ele>249.6</ele>
        <time>2012-08-06T14:21:04Z</time>
      </trkpt>
      <trkpt lat="47.41753" lon="6.24458">
        <ele>248.6</ele>
        <time>2012-08-06T14:21:09Z</time>
      </trkpt>
      <trkpt lat="47.4177" lon="6.24442">
        <ele>248.1</ele>
        <time>2012-08-06T14:21:14Z</time>
      </trkpt>
      <trkpt lat="47.4179" lon="6.24428">
        <ele>248.3</ele>
        <time>2012-08-06T14:21:19Z</time>
      </trkpt>
      <trkpt lat="47.41808" lon="6.24414">
        <ele>248.8</ele>
        <time>2012-08-06T14:21:24Z</time>
      </trkpt>
      <trkpt lat="47.41827" lon="6.24398">
        <ele>248.8</ele>
        <time>2012-08-06T14:21:30Z</time>
      </trkpt>
      <trkpt lat="47.41846" lon="6.24381">
        <ele>247.8</ele>
        <time>2012-08-06T14:21:36Z</time>
      </trkpt>
      <trkpt lat="47.41859" lon="6.2436">
        <ele>247</ele>
        <time>2012-08-06T14:21:41Z</time>
      </trkpt>
      <trkpt lat="47.41859" lon="6.2433">
        <ele>246.8</ele>
        <time>2012-08-06T14:21:46Z</time>
      </trkpt>
      <trkpt lat="47.41853" lon="6.24301">
        <ele>246.6</ele>
        <time>2012-08-06T14:21:50Z</time>
      </trkpt>
      <trkpt lat="47.41847" lon="6.24275">
        <ele>246.6</ele>
        <time>2012-08-06T14:21:54Z</time>
      </trkpt>
      <trkpt lat="47.41841" lon="6.24244">
        <ele>246.5</ele>
        <time>2012-08-06T14:22:01Z</time>
      </trkpt>
      <trkpt lat="47.4184" lon="6.24241">
        <ele>246.3</ele>
        <time>2012-08-06T14:22:02Z</time>
      </trkpt>
      <trkpt lat="47.41826" lon="6.24183">
        <ele>245.6</ele>
        <time>2012-08-06T14:22:21Z</time>
      </trkpt>
      <trkpt lat="47.41821" lon="6.24155">
        <ele>245.6</ele>
        <time>2012-08-06T14:22:29Z</time>
      </trkpt>
      <trkpt lat="47.41815" lon="6.24126">
        <ele>245.8</ele>
        <time>2012-08-06T14:22:35Z</time>
      </trkpt>
      <trkpt lat="47.41808" lon="6.241">
        <ele>245.8</ele>
        <time>2012-08-06T14:22:40Z</time>
      </trkpt>
      <trkpt lat="47.41802" lon="6.24071">
        <ele>245.8</ele>
        <time>2012-08-06T14:22:45Z</time>
      </trkpt>
      <trkpt lat="47.41796" lon="6.24039">
        <ele>246</ele>
        <time>2012-08-06T14:22:51Z</time>
      </trkpt>
      <trkpt lat="47.4179" lon="6.24013">
        <ele>246</ele>
        <time>2012-08-06T14:22:56Z</time>
      </trkpt>
      <trkpt lat="47.41785" lon="6.23986">
        <ele>245.8</ele>
        <time>2012-08-06T14:23:01Z</time>
      </trkpt>
      <trkpt lat="47.41779" lon="6.23959">
        <ele>245.6</ele>
        <time>2012-08-06T14:23:06Z</time>
      </trkpt>
      <trkpt lat="47.41778" lon="6.23953">
        <ele>245.6</ele>
        <time>2012-08-06T14:23:07Z</time>
      </trkpt>
      <trkpt lat="47.41767" lon="6.23904">
        <ele>245.8</ele>
        <time>2012-08-06T14:23:16Z</time>
      </trkpt>
      <trkpt lat="47.41761" lon="6.23874">
        <ele>245.8</ele>
        <time>2012-08-06T14:23:22Z</time>
      </trkpt>
      <trkpt lat="47.41754" lon="6.23843">
        <ele>245.8</ele>
        <time>2012-08-06T14:23:32Z</time>
      </trkpt>
      <trkpt lat="47.41746" lon="6.23815">
        <ele>246.1</ele>
        <time>2012-08-06T14:23:41Z</time>
      </trkpt>
      <trkpt lat="47.41739" lon="6.23783">
        <ele>246.6</ele>
        <time>2012-08-06T14:23:52Z</time>
      </trkpt>
      <trkpt lat="47.41733" lon="6.23753">
        <ele>247.1</ele>
        <time>2012-08-06T14:24:02Z</time>
      </trkpt>
      <trkpt lat="47.41726" lon="6.23722">
        <ele>247.6</ele>
        <time>2012-08-06T14:24:12Z</time>
      </trkpt>
      <trkpt lat="47.41726" lon="6.23719">
        <ele>247.8</ele>
        <time>2012-08-06T14:24:13Z</time>
      </trkpt>
      <trkpt lat="47.41713" lon="6.2366">
        <ele>248.8</ele>
        <time>2012-08-06T14:24:32Z</time>
      </trkpt>
      <trkpt lat="47.41706" lon="6.23633">
        <ele>249.1</ele>
        <time>2012-08-06T14:24:40Z</time>
      </trkpt>
      <trkpt lat="47.41707" lon="6.23602">
        <ele>249.5</ele>
        <time>2012-08-06T14:24:47Z</time>
      </trkpt>
      <trkpt lat="47.41725" lon="6.23583">
        <ele>249.6</ele>
        <time>2012-08-06T14:24:54Z</time>
      </trkpt>
      <trkpt lat="47.41743" lon="6.23569">
        <ele>249.8</ele>
        <time>2012-08-06T14:25:01Z</time>
      </trkpt>
      <trkpt lat="47.41761" lon="6.23555">
        <ele>250.1</ele>
        <time>2012-08-06T14:25:08Z</time>
      </trkpt>
      <trkpt lat="47.4178" lon="6.23538">
        <ele>250.6</ele>
        <time>2012-08-06T14:25:16Z</time>
      </trkpt>
      <trkpt lat="47.41782" lon="6.23536">
        <ele>250.6</ele>
        <time>2012-08-06T14:25:17Z</time>
      </trkpt>
      <trkpt lat="47.41815" lon="6.23504">
        <ele>251.6</ele>
        <time>2012-08-06T14:25:37Z</time>
      </trkpt>
      <trkpt lat="47.41833" lon="6.23487">
        <ele>252.1</ele>
        <time>2012-08-06T14:25:49Z</time>
      </trkpt>
      <trkpt lat="47.41854" lon="6.2349">
        <ele>252.6</ele>
        <time>2012-08-06T14:26:00Z</time>
      </trkpt>
      <trkpt lat="47.41874" lon="6.23497">
        <ele>253.6</ele>
        <time>2012-08-06T14:26:11Z</time>
      </trkpt>
      <trkpt lat="47.41895" lon="6.23504">
        <ele>254.8</ele>
        <time>2012-08-06T14:26:22Z</time>
      </trkpt>
      <trkpt lat="47.41897" lon="6.23505">
        <ele>255</ele>
        <time>2012-08-06T14:26:23Z</time>
      </trkpt>
      <trkpt lat="47.41938" lon="6.23515">
        <ele>257.6</ele>
        <time>2012-08-06T14:26:45Z</time>
      </trkpt>
      <trkpt lat="47.4196" lon="6.23511">
        <ele>258.7</ele>
        <time>2012-08-06T14:26:56Z</time>
      </trkpt>
      <trkpt lat="47.4198" lon="6.23497">
        <ele>259.6</ele>
        <time>2012-08-06T14:27:07Z</time>
      </trkpt>
      <trkpt lat="47.41999" lon="6.23479">
        <ele>260.6</ele>
        <time>2012-08-06T14:27:18Z</time>
      </trkpt>
      <trkpt lat="47.42017" lon="6.23464">
        <ele>261.2</ele>
        <time>2012-08-06T14:27:28Z</time>
      </trkpt>
      <trkpt lat="47.42019" lon="6.23463">
        <ele>261.2</ele>
        <time>2012-08-06T14:27:29Z</time>
      </trkpt>
      <trkpt lat="47.42054" lon="6.23438">
        <ele>262.5</ele>
        <time>2012-08-06T14:27:48Z</time>
      </trkpt>
      <trkpt lat="47.42075" lon="6.23428">
        <ele>263.2</ele>
        <time>2012-08-06T14:27:59Z</time>
      </trkpt>
      <trkpt lat="47.42095" lon="6.23419">
        <ele>264.1</ele>
        <time>2012-08-06T14:28:09Z</time>
      </trkpt>
      <trkpt lat="47.42116" lon="6.23407">
        <ele>264.7</ele>
        <time>2012-08-06T14:28:19Z</time>
      </trkpt>
      <trkpt lat="47.42135" lon="6.23397">
        <ele>265.7</ele>
        <time>2012-08-06T14:28:28Z</time>
      </trkpt>
      <trkpt lat="47.42155" lon="6.23384">
        <ele>266.2</ele>
        <time>2012-08-06T14:28:36Z</time>
      </trkpt>
      <trkpt lat="47.42158" lon="6.23382">
        <ele>266.5</ele>
        <time>2012-08-06T14:28:37Z</time>
      </trkpt>
      <trkpt lat="47.42194" lon="6.23362">
        <ele>267.6</ele>
        <time>2012-08-06T14:28:50Z</time>
      </trkpt>
      <trkpt lat="47.42215" lon="6.23352">
        <ele>268.1</ele>
        <time>2012-08-06T14:28:59Z</time>
      </trkpt>
      <trkpt lat="47.42237" lon="6.23345">
        <ele>268.5</ele>
        <time>2012-08-06T14:29:10Z</time>
      </trkpt>
      <trkpt lat="47.42257" lon="6.23344">
        <ele>269.1</ele>
        <time>2012-08-06T14:29:21Z</time>
      </trkpt>
      <trkpt lat="47.42277" lon="6.23353">
        <ele>270</ele>
        <time>2012-08-06T14:29:32Z</time>
      </trkpt>
      <trkpt lat="47.42298" lon="6.23362">
        <ele>270.7</ele>
        <time>2012-08-06T14:29:43Z</time>
      </trkpt>
      <trkpt lat="47.423" lon="6.23362">
        <ele>270.7</ele>
        <time>2012-08-06T14:29:44Z</time>
      </trkpt>
      <trkpt lat="47.42342" lon="6.23371">
        <ele>273</ele>
        <time>2012-08-06T14:30:05Z</time>
      </trkpt>
      <trkpt lat="47.42364" lon="6.23376">
        <ele>274.2</ele>
        <time>2012-08-06T14:30:15Z</time>
      </trkpt>
      <trkpt lat="47.42384" lon="6.23378">
        <ele>275</ele>
        <time>2012-08-06T14:30:22Z</time>
      </trkpt>
      <trkpt lat="47.42405" lon="6.23378">
        <ele>275.2</ele>
        <time>2012-08-06T14:30:29Z</time>
      </trkpt>
      <trkpt lat="47.42425" lon="6.23372">
        <ele>275.1</ele>
        <time>2012-08-06T14:30:34Z</time>
      </trkpt>
      <trkpt lat="47.42443" lon="6.23365">
        <ele>273.6</ele>
        <time>2012-08-06T14:30:38Z</time>
      </trkpt>
      <trkpt lat="47.4246" lon="6.23355">
        <ele>271.2</ele>
        <time>2012-08-06T14:30:41Z</time>
      </trkpt>
      <trkpt lat="47.42476" lon="6.23342">
        <ele>270</ele>
        <time>2012-08-06T14:30:45Z</time>
      </trkpt>
      <trkpt lat="47.4248" lon="6.23338">
        <ele>269.7</ele>
        <time>2012-08-06T14:30:46Z</time>
      </trkpt>
      <trkpt lat="47.4251" lon="6.23313">
        <ele>268.2</ele>
        <time>2012-08-06T14:30:53Z</time>
      </trkpt>
      <trkpt lat="47.42528" lon="6.233">
        <ele>268.1</ele>
        <time>2012-08-06T14:30:58Z</time>
      </trkpt>
      <trkpt lat="47.42548" lon="6.2329">
        <ele>268.2</ele>
        <time>2012-08-06T14:31:04Z</time>
      </trkpt>
      <trkpt lat="47.42567" lon="6.2328">
        <ele>268.5</ele>
        <time>2012-08-06T14:31:10Z</time>
      </trkpt>
      <trkpt lat="47.42586" lon="6.2327">
        <ele>268.7</ele>
        <time>2012-08-06T14:31:16Z</time>
      </trkpt>
      <trkpt lat="47.42606" lon="6.23261">
        <ele>269.2</ele>
        <time>2012-08-06T14:31:22Z</time>
      </trkpt>
      <trkpt lat="47.42627" lon="6.23255">
        <ele>269.7</ele>
        <time>2012-08-06T14:31:29Z</time>
      </trkpt>
      <trkpt lat="47.42649" lon="6.23251">
        <ele>270.5</ele>
        <time>2012-08-06T14:31:36Z</time>
      </trkpt>
      <trkpt lat="47.42669" lon="6.23249">
        <ele>271</ele>
        <time>2012-08-06T14:31:42Z</time>
      </trkpt>
      <trkpt lat="47.4269" lon="6.23247">
        <ele>271.2</ele>
        <time>2012-08-06T14:31:48Z</time>
      </trkpt>
      <trkpt lat="47.42693" lon="6.23247">
        <ele>271.2</ele>
        <time>2012-08-06T14:31:49Z</time>
      </trkpt>
      <trkpt lat="47.42733" lon="6.23245">
        <ele>272.1</ele>
        <time>2012-08-06T14:32:02Z</time>
      </trkpt>
      <trkpt lat="47.42755" lon="6.23243">
        <ele>272.2</ele>
        <time>2012-08-06T14:32:09Z</time>
      </trkpt>
      <trkpt lat="47.42775" lon="6.23241">
        <ele>272.5</ele>
        <time>2012-08-06T14:32:16Z</time>
      </trkpt>
      <trkpt lat="47.42796" lon="6.2324">
        <ele>272.6</ele>
        <time>2012-08-06T14:32:22Z</time>
      </trkpt>
      <trkpt lat="47.42817" lon="6.23237">
        <ele>272.7</ele>
        <time>2012-08-06T14:32:28Z</time>
      </trkpt>
      <trkpt lat="47.42838" lon="6.23234">
        <ele>272.7</ele>
        <time>2012-08-06T14:32:34Z</time>
      </trkpt>
      <trkpt lat="47.42858" lon="6.23228">
        <ele>272.7</ele>
        <time>2012-08-06T14:32:40Z</time>
      </trkpt>
      <trkpt lat="47.42878" lon="6.23223">
        <ele>272.7</ele>
        <time>2012-08-06T14:32:46Z</time>
      </trkpt>
      <trkpt lat="47.42897" lon="6.23218">
        <ele>272.7</ele>
        <time>2012-08-06T14:32:52Z</time>
      </trkpt>
      <trkpt lat="47.429" lon="6.23218">
        <ele>272.7</ele>
        <time>2012-08-06T14:32:53Z</time>
      </trkpt>
      <trkpt lat="47.42939" lon="6.23224">
        <ele>272.2</ele>
        <time>2012-08-06T14:33:06Z</time>
      </trkpt>
      <trkpt lat="47.4296" lon="6.23235">
        <ele>272.6</ele>
        <time>2012-08-06T14:33:14Z</time>
      </trkpt>
      <trkpt lat="47.4298" lon="6.23249">
        <ele>273.2</ele>
        <time>2012-08-06T14:33:20Z</time>
      </trkpt>
      <trkpt lat="47.42998" lon="6.23262">
        <ele>273.7</ele>
        <time>2012-08-06T14:33:26Z</time>
      </trkpt>
      <trkpt lat="47.43019" lon="6.23276">
        <ele>274.2</ele>
        <time>2012-08-06T14:33:33Z</time>
      </trkpt>
      <trkpt lat="47.43035" lon="6.23289">
        <ele>275</ele>
        <time>2012-08-06T14:33:40Z</time>
      </trkpt>
      <trkpt lat="47.43055" lon="6.23304">
        <ele>276</ele>
        <time>2012-08-06T14:33:46Z</time>
      </trkpt>
      <trkpt lat="47.43072" lon="6.23314">
        <ele>276.7</ele>
        <time>2012-08-06T14:33:51Z</time>
      </trkpt>
      <trkpt lat="47.43094" lon="6.23322">
        <ele>277.7</ele>
        <time>2012-08-06T14:33:58Z</time>
      </trkpt>
      <trkpt lat="47.43097" lon="6.23322">
        <ele>277.7</ele>
        <time>2012-08-06T14:33:59Z</time>
      </trkpt>
      <trkpt lat="47.43134" lon="6.2333">
        <ele>277.7</ele>
        <time>2012-08-06T14:34:10Z</time>
      </trkpt>
      <trkpt lat="47.43155" lon="6.23336">
        <ele>277.2</ele>
        <time>2012-08-06T14:34:18Z</time>
      </trkpt>
      <trkpt lat="47.43176" lon="6.23344">
        <ele>276.6</ele>
        <time>2012-08-06T14:34:27Z</time>
      </trkpt>
      <trkpt lat="47.43197" lon="6.23355">
        <ele>276.2</ele>
        <time>2012-08-06T14:34:36Z</time>
      </trkpt>
      <trkpt lat="47.43216" lon="6.23365">
        <ele>276.1</ele>
        <time>2012-08-06T14:34:45Z</time>
      </trkpt>
      <trkpt lat="47.43236" lon="6.23377">
        <ele>276.2</ele>
        <time>2012-08-06T14:34:55Z</time>
      </trkpt>
      <trkpt lat="47.43257" lon="6.23375">
        <ele>276.2</ele>
        <time>2012-08-06T14:35:07Z</time>
      </trkpt>
      <trkpt lat="47.43258" lon="6.23372">
        <ele>276.2</ele>
        <time>2012-08-06T14:35:08Z</time>
      </trkpt>
      <trkpt lat="47.43268" lon="6.23314">
        <ele>276.5</ele>
        <time>2012-08-06T14:35:23Z</time>
      </trkpt>
      <trkpt lat="47.43273" lon="6.23283">
        <ele>276.7</ele>
        <time>2012-08-06T14:35:30Z</time>
      </trkpt>
      <trkpt lat="47.43277" lon="6.23253">
        <ele>277.1</ele>
        <time>2012-08-06T14:35:37Z</time>
      </trkpt>
      <trkpt lat="47.43281" lon="6.23221">
        <ele>277.2</ele>
        <time>2012-08-06T14:35:44Z</time>
      </trkpt>
      <trkpt lat="47.43282" lon="6.2319">
        <ele>277.6</ele>
        <time>2012-08-06T14:35:52Z</time>
      </trkpt>
      <trkpt lat="47.43281" lon="6.23159">
        <ele>278.2</ele>
        <time>2012-08-06T14:36:54Z</time>
      </trkpt>
      <trkpt lat="47.43282" lon="6.23155">
        <ele>278.2</ele>
        <time>2012-08-06T14:36:55Z</time>
      </trkpt>
      <trkpt lat="47.43286" lon="6.23096">
        <ele>279</ele>
        <time>2012-08-06T14:37:12Z</time>
      </trkpt>
      <trkpt lat="47.43287" lon="6.23065">
        <ele>279.2</ele>
        <time>2012-08-06T14:37:21Z</time>
      </trkpt>
      <trkpt lat="47.43289" lon="6.23035">
        <ele>279.6</ele>
        <time>2012-08-06T14:37:29Z</time>
      </trkpt>
      <trkpt lat="47.4329" lon="6.23005">
        <ele>279.7</ele>
        <time>2012-08-06T14:37:36Z</time>
      </trkpt>
      <trkpt lat="47.43292" lon="6.22974">
        <ele>279.7</ele>
        <time>2012-08-06T14:37:43Z</time>
      </trkpt>
      <trkpt lat="47.43294" lon="6.22941">
        <ele>279.7</ele>
        <time>2012-08-06T14:37:49Z</time>
      </trkpt>
      <trkpt lat="47.43296" lon="6.22911">
        <ele>279.7</ele>
        <time>2012-08-06T14:37:55Z</time>
      </trkpt>
      <trkpt lat="47.43296" lon="6.22907">
        <ele>279.7</ele>
        <time>2012-08-06T14:37:56Z</time>
      </trkpt>
      <trkpt lat="47.43299" lon="6.22851">
        <ele>279.7</ele>
        <time>2012-08-06T14:38:09Z</time>
      </trkpt>
      <trkpt lat="47.433" lon="6.2282">
        <ele>280</ele>
        <time>2012-08-06T14:38:15Z</time>
      </trkpt>
      <trkpt lat="47.43302" lon="6.22789">
        <ele>279.7</ele>
        <time>2012-08-06T14:38:21Z</time>
      </trkpt>
      <trkpt lat="47.43304" lon="6.22759">
        <ele>279.7</ele>
        <time>2012-08-06T14:38:27Z</time>
      </trkpt>
      <trkpt lat="47.43307" lon="6.22731">
        <ele>279.7</ele>
        <time>2012-08-06T14:38:32Z</time>
      </trkpt>
      <trkpt lat="47.4331" lon="6.22698">
        <ele>279.2</ele>
        <time>2012-08-06T14:38:37Z</time>
      </trkpt>
      <trkpt lat="47.43314" lon="6.22669">
        <ele>279</ele>
        <time>2012-08-06T14:38:41Z</time>
      </trkpt>
      <trkpt lat="47.43318" lon="6.2264">
        <ele>278.6</ele>
        <time>2012-08-06T14:38:45Z</time>
      </trkpt>
      <trkpt lat="47.43325" lon="6.22612">
        <ele>278.6</ele>
        <time>2012-08-06T14:38:50Z</time>
      </trkpt>
      <trkpt lat="47.43333" lon="6.22582">
        <ele>278.2</ele>
        <time>2012-08-06T14:38:59Z</time>
      </trkpt>
      <trkpt lat="47.43334" lon="6.22579">
        <ele>278.2</ele>
        <time>2012-08-06T14:39:00Z</time>
      </trkpt>
      <trkpt lat="47.43348" lon="6.22521">
        <ele>277.7</ele>
        <time>2012-08-06T14:39:22Z</time>
      </trkpt>
      <trkpt lat="47.43355" lon="6.22492">
        <ele>277.2</ele>
        <time>2012-08-06T14:39:31Z</time>
      </trkpt>
      <trkpt lat="47.43363" lon="6.22463">
        <ele>277.1</ele>
        <time>2012-08-06T14:39:40Z</time>
      </trkpt>
      <trkpt lat="47.43372" lon="6.22432">
        <ele>276.7</ele>
        <time>2012-08-06T14:39:49Z</time>
      </trkpt>
      <trkpt lat="47.43379" lon="6.22402">
        <ele>276.5</ele>
        <time>2012-08-06T14:39:57Z</time>
      </trkpt>
      <trkpt lat="47.43387" lon="6.22372">
        <ele>276.2</ele>
        <time>2012-08-06T14:40:05Z</time>
      </trkpt>
      <trkpt lat="47.43388" lon="6.22368">
        <ele>276.2</ele>
        <time>2012-08-06T14:40:06Z</time>
      </trkpt>
      <trkpt lat="47.43401" lon="6.22313">
        <ele>276.1</ele>
        <time>2012-08-06T14:40:24Z</time>
      </trkpt>
      <trkpt lat="47.43407" lon="6.22282">
        <ele>275.7</ele>
        <time>2012-08-06T14:41:08Z</time>
      </trkpt>
      <trkpt lat="47.43408" lon="6.22279">
        <ele>275.7</ele>
        <time>2012-08-06T14:41:09Z</time>
      </trkpt>
      <trkpt lat="47.43423" lon="6.22222">
        <ele>275.7</ele>
        <time>2012-08-06T14:41:30Z</time>
      </trkpt>
      <trkpt lat="47.4343" lon="6.22191">
        <ele>275.7</ele>
        <time>2012-08-06T14:41:41Z</time>
      </trkpt>
      <trkpt lat="47.43422" lon="6.22161">
        <ele>275.7</ele>
        <time>2012-08-06T14:41:52Z</time>
      </trkpt>
      <trkpt lat="47.43407" lon="6.22137">
        <ele>275.7</ele>
        <time>2012-08-06T14:42:02Z</time>
      </trkpt>
      <trkpt lat="47.43393" lon="6.22113">
        <ele>275.7</ele>
        <time>2012-08-06T14:42:09Z</time>
      </trkpt>
      <trkpt lat="47.43391" lon="6.22109">
        <ele>275.7</ele>
        <time>2012-08-06T14:42:10Z</time>
      </trkpt>
      <trkpt lat="47.43366" lon="6.22069">
        <ele>276</ele>
        <time>2012-08-06T14:42:21Z</time>
      </trkpt>
      <trkpt lat="47.43356" lon="6.2204">
        <ele>276.1</ele>
        <time>2012-08-06T14:42:29Z</time>
      </trkpt>
      <trkpt lat="47.43374" lon="6.22026">
        <ele>276.1</ele>
        <time>2012-08-06T14:42:38Z</time>
      </trkpt>
      <trkpt lat="47.43392" lon="6.22012">
        <ele>276.1</ele>
        <time>2012-08-06T14:42:46Z</time>
      </trkpt>
      <trkpt lat="47.4341" lon="6.21997">
        <ele>276.2</ele>
        <time>2012-08-06T14:42:54Z</time>
      </trkpt>
      <trkpt lat="47.43428" lon="6.21981">
        <ele>276.2</ele>
        <time>2012-08-06T14:43:02Z</time>
      </trkpt>
      <trkpt lat="47.43447" lon="6.21965">
        <ele>276.2</ele>
        <time>2012-08-06T14:43:13Z</time>
      </trkpt>
      <trkpt lat="47.43449" lon="6.21963">
        <ele>276.2</ele>
        <time>2012-08-06T14:43:14Z</time>
      </trkpt>
      <trkpt lat="47.43485" lon="6.21934">
        <ele>276.2</ele>
        <time>2012-08-06T14:43:34Z</time>
      </trkpt>
      <trkpt lat="47.43504" lon="6.21917">
        <ele>276.7</ele>
        <time>2012-08-06T14:44:56Z</time>
      </trkpt>
      <trkpt lat="47.43506" lon="6.21915">
        <ele>276.7</ele>
        <time>2012-08-06T14:44:57Z</time>
      </trkpt>
      <trkpt lat="47.4354" lon="6.21885">
        <ele>276.7</ele>
        <time>2012-08-06T14:45:13Z</time>
      </trkpt>
      <trkpt lat="47.43558" lon="6.21868">
        <ele>276.6</ele>
        <time>2012-08-06T14:45:20Z</time>
      </trkpt>
      <trkpt lat="47.43576" lon="6.21849">
        <ele>276.5</ele>
        <time>2012-08-06T14:45:27Z</time>
      </trkpt>
      <trkpt lat="47.43593" lon="6.2183">
        <ele>276.5</ele>
        <time>2012-08-06T14:45:33Z</time>
      </trkpt>
      <trkpt lat="47.4361" lon="6.2181">
        <ele>276.7</ele>
        <time>2012-08-06T14:45:38Z</time>
      </trkpt>
      <trkpt lat="47.43626" lon="6.21791">
        <ele>276.7</ele>
        <time>2012-08-06T14:45:42Z</time>
      </trkpt>
      <trkpt lat="47.43642" lon="6.2177">
        <ele>276.7</ele>
        <time>2012-08-06T14:45:46Z</time>
      </trkpt>
      <trkpt lat="47.43659" lon="6.21749">
        <ele>276.7</ele>
        <time>2012-08-06T14:45:50Z</time>
      </trkpt>
      <trkpt lat="47.43673" lon="6.21731">
        <ele>276.7</ele>
        <time>2012-08-06T14:45:53Z</time>
      </trkpt>
      <trkpt lat="47.43689" lon="6.21709">
        <ele>276.7</ele>
        <time>2012-08-06T14:45:56Z</time>
      </trkpt>
      <trkpt lat="47.43702" lon="6.21693">
        <ele>276.5</ele>
        <time>2012-08-06T14:45:58Z</time>
      </trkpt>
      <trkpt lat="47.43708" lon="6.21685">
        <ele>276.2</ele>
        <time>2012-08-06T14:45:59Z</time>
      </trkpt>
      <trkpt lat="47.43727" lon="6.21659">
        <ele>276.1</ele>
        <time>2012-08-06T14:46:02Z</time>
      </trkpt>
      <trkpt lat="47.43739" lon="6.21642">
        <ele>276</ele>
        <time>2012-08-06T14:46:04Z</time>
      </trkpt>
      <trkpt lat="47.43751" lon="6.21625">
        <ele>275.7</ele>
        <time>2012-08-06T14:46:06Z</time>
      </trkpt>
      <trkpt lat="47.43762" lon="6.21609">
        <ele>275.7</ele>
        <time>2012-08-06T14:46:08Z</time>
      </trkpt>
      <trkpt lat="47.43777" lon="6.21587">
        <ele>275.7</ele>
        <time>2012-08-06T14:46:11Z</time>
      </trkpt>
      <trkpt lat="47.43791" lon="6.21564">
        <ele>275.2</ele>
        <time>2012-08-06T14:46:15Z</time>
      </trkpt>
      <trkpt lat="47.43808" lon="6.21542">
        <ele>274.7</ele>
        <time>2012-08-06T14:46:20Z</time>
      </trkpt>
      <trkpt lat="47.43821" lon="6.21524">
        <ele>274.7</ele>
        <time>2012-08-06T14:46:24Z</time>
      </trkpt>
      <trkpt lat="47.43834" lon="6.21509">
        <ele>274.2</ele>
        <time>2012-08-06T14:46:27Z</time>
      </trkpt>
      <trkpt lat="47.43848" lon="6.21489">
        <ele>273.6</ele>
        <time>2012-08-06T14:46:30Z</time>
      </trkpt>
      <trkpt lat="47.43862" lon="6.21466">
        <ele>272.7</ele>
        <time>2012-08-06T14:46:33Z</time>
      </trkpt>
      <trkpt lat="47.43875" lon="6.21442">
        <ele>272.2</ele>
        <time>2012-08-06T14:46:36Z</time>
      </trkpt>
      <trkpt lat="47.43887" lon="6.21423">
        <ele>271.6</ele>
        <time>2012-08-06T14:46:39Z</time>
      </trkpt>
      <trkpt lat="47.43908" lon="6.21422">
        <ele>270</ele>
        <time>2012-08-06T14:46:43Z</time>
      </trkpt>
      <trkpt lat="47.43923" lon="6.21437">
        <ele>268.6</ele>
        <time>2012-08-06T14:46:46Z</time>
      </trkpt>
      <trkpt lat="47.43944" lon="6.21441">
        <ele>266.2</ele>
        <time>2012-08-06T14:46:51Z</time>
      </trkpt>
      <trkpt lat="47.43957" lon="6.21415">
        <ele>265.7</ele>
        <time>2012-08-06T14:46:58Z</time>
      </trkpt>
      <trkpt lat="47.43948" lon="6.21387">
        <ele>264.6</ele>
        <time>2012-08-06T14:47:09Z</time>
      </trkpt>
      <trkpt lat="47.43946" lon="6.21385">
        <ele>264.5</ele>
        <time>2012-08-06T14:47:10Z</time>
      </trkpt>
      <trkpt lat="47.43948" lon="6.21386">
        <ele>254.8</ele>
        <time>2012-08-06T14:49:17Z</time>
      </trkpt>
      <trkpt lat="47.43946" lon="6.21383">
        <ele>254.8</ele>
        <time>2012-08-06T14:49:18Z</time>
      </trkpt>
      <trkpt lat="47.4395" lon="6.21331">
        <ele>253.8</ele>
        <time>2012-08-06T14:49:37Z</time>
      </trkpt>
      <trkpt lat="47.43965" lon="6.21307">
        <ele>253.3</ele>
        <time>2012-08-06T14:50:03Z</time>
      </trkpt>
      <trkpt lat="47.4398" lon="6.21283">
        <ele>253.6</ele>
        <time>2012-08-06T14:50:16Z</time>
      </trkpt>
      <trkpt lat="47.43995" lon="6.21261">
        <ele>254.3</ele>
        <time>2012-08-06T14:51:04Z</time>
      </trkpt>
      <trkpt lat="47.43996" lon="6.21259">
        <ele>254.5</ele>
        <time>2012-08-06T14:51:05Z</time>
      </trkpt>
      <trkpt lat="47.44026" lon="6.21215">
        <ele>257.2</ele>
        <time>2012-08-06T14:51:29Z</time>
      </trkpt>
      <trkpt lat="47.44042" lon="6.21194">
        <ele>258.2</ele>
        <time>2012-08-06T14:51:40Z</time>
      </trkpt>
      <trkpt lat="47.44058" lon="6.21172">
        <ele>259.2</ele>
        <time>2012-08-06T14:51:50Z</time>
      </trkpt>
      <trkpt lat="47.44073" lon="6.21151">
        <ele>260</ele>
        <time>2012-08-06T14:51:57Z</time>
      </trkpt>
      <trkpt lat="47.44087" lon="6.21132">
        <ele>262.2</ele>
        <time>2012-08-06T14:52:02Z</time>
      </trkpt>
      <trkpt lat="47.44102" lon="6.2111">
        <ele>264</ele>
        <time>2012-08-06T14:52:07Z</time>
      </trkpt>
      <trkpt lat="47.44105" lon="6.21105">
        <ele>264.1</ele>
        <time>2012-08-06T14:52:08Z</time>
      </trkpt>
      <trkpt lat="47.44134" lon="6.21066">
        <ele>264.7</ele>
        <time>2012-08-06T14:52:18Z</time>
      </trkpt>
      <trkpt lat="47.44148" lon="6.21046">
        <ele>264.7</ele>
        <time>2012-08-06T14:52:24Z</time>
      </trkpt>
      <trkpt lat="47.44162" lon="6.21026">
        <ele>264.7</ele>
        <time>2012-08-06T14:52:30Z</time>
      </trkpt>
      <trkpt lat="47.44177" lon="6.21003">
        <ele>264.7</ele>
        <time>2012-08-06T14:52:37Z</time>
      </trkpt>
      <trkpt lat="47.44191" lon="6.20981">
        <ele>264.7</ele>
        <time>2012-08-06T14:52:44Z</time>
      </trkpt>
      <trkpt lat="47.44206" lon="6.20959">
        <ele>264.7</ele>
        <time>2012-08-06T14:52:51Z</time>
      </trkpt>
      <trkpt lat="47.44221" lon="6.20936">
        <ele>264.7</ele>
        <time>2012-08-06T14:52:59Z</time>
      </trkpt>
      <trkpt lat="47.44237" lon="6.20914">
        <ele>265</ele>
        <time>2012-08-06T14:53:13Z</time>
      </trkpt>
      <trkpt lat="47.44238" lon="6.20913">
        <ele>265</ele>
        <time>2012-08-06T14:53:14Z</time>
      </trkpt>
      <trkpt lat="47.44268" lon="6.20872">
        <ele>265.5</ele>
        <time>2012-08-06T14:53:34Z</time>
      </trkpt>
      <trkpt lat="47.44283" lon="6.20851">
        <ele>265.7</ele>
        <time>2012-08-06T14:53:42Z</time>
      </trkpt>
      <trkpt lat="47.44301" lon="6.2083">
        <ele>265.7</ele>
        <time>2012-08-06T14:53:50Z</time>
      </trkpt>
      <trkpt lat="47.44318" lon="6.20812">
        <ele>266.2</ele>
        <time>2012-08-06T14:53:56Z</time>
      </trkpt>
      <trkpt lat="47.44332" lon="6.20795">
        <ele>266.6</ele>
        <time>2012-08-06T14:54:00Z</time>
      </trkpt>
      <trkpt lat="47.44347" lon="6.20777">
        <ele>266.5</ele>
        <time>2012-08-06T14:54:04Z</time>
      </trkpt>
      <trkpt lat="47.44363" lon="6.20757">
        <ele>266.2</ele>
        <time>2012-08-06T14:54:09Z</time>
      </trkpt>
      <trkpt lat="47.44379" lon="6.20739">
        <ele>266.1</ele>
        <time>2012-08-06T14:54:14Z</time>
      </trkpt>
      <trkpt lat="47.44395" lon="6.20721">
        <ele>266</ele>
        <time>2012-08-06T14:54:18Z</time>
      </trkpt>
      <trkpt lat="47.44399" lon="6.20717">
        <ele>266</ele>
        <time>2012-08-06T14:54:19Z</time>
      </trkpt>
      <trkpt lat="47.44427" lon="6.20689">
        <ele>266.1</ele>
        <time>2012-08-06T14:54:27Z</time>
      </trkpt>
      <trkpt lat="47.44445" lon="6.20672">
        <ele>266.2</ele>
        <time>2012-08-06T14:54:35Z</time>
      </trkpt>
      <trkpt lat="47.44467" lon="6.20677">
        <ele>265.7</ele>
        <time>2012-08-06T14:54:47Z</time>
      </trkpt>
      <trkpt lat="47.44488" lon="6.20675">
        <ele>265.1</ele>
        <time>2012-08-06T14:54:55Z</time>
      </trkpt>
      <trkpt lat="47.44511" lon="6.20672">
        <ele>263.1</ele>
        <time>2012-08-06T14:55:24Z</time>
      </trkpt>
      <trkpt lat="47.44513" lon="6.20672">
        <ele>263</ele>
        <time>2012-08-06T14:55:25Z</time>
      </trkpt>
      <trkpt lat="47.44553" lon="6.20671">
        <ele>261.1</ele>
        <time>2012-08-06T14:55:39Z</time>
      </trkpt>
      <trkpt lat="47.44575" lon="6.2067">
        <ele>260.2</ele>
        <time>2012-08-06T14:55:46Z</time>
      </trkpt>
      <trkpt lat="47.44597" lon="6.20667">
        <ele>259.2</ele>
        <time>2012-08-06T14:55:59Z</time>
      </trkpt>
      <trkpt lat="47.44615" lon="6.20668">
        <ele>258.7</ele>
        <time>2012-08-06T14:56:18Z</time>
      </trkpt>
      <trkpt lat="47.44636" lon="6.20666">
        <ele>261.1</ele>
        <time>2012-08-06T14:57:46Z</time>
      </trkpt>
      <trkpt lat="47.44638" lon="6.20666">
        <ele>261.2</ele>
        <time>2012-08-06T14:57:47Z</time>
      </trkpt>
      <trkpt lat="47.44677" lon="6.20658">
        <ele>262.2</ele>
        <time>2012-08-06T14:58:02Z</time>
      </trkpt>
      <trkpt lat="47.44698" lon="6.20653">
        <ele>262.2</ele>
        <time>2012-08-06T14:58:10Z</time>
      </trkpt>
      <trkpt lat="47.44719" lon="6.20648">
        <ele>262.1</ele>
        <time>2012-08-06T14:58:21Z</time>
      </trkpt>
      <trkpt lat="47.44741" lon="6.20643">
        <ele>261.7</ele>
        <time>2012-08-06T14:58:30Z</time>
      </trkpt>
      <trkpt lat="47.44762" lon="6.20645">
        <ele>261.6</ele>
        <time>2012-08-06T14:58:40Z</time>
      </trkpt>
      <trkpt lat="47.44771" lon="6.20673">
        <ele>261.6</ele>
        <time>2012-08-06T14:58:51Z</time>
      </trkpt>
      <trkpt lat="47.44772" lon="6.20676">
        <ele>261.6</ele>
        <time>2012-08-06T14:58:52Z</time>
      </trkpt>
      <trkpt lat="47.44789" lon="6.20729">
        <ele>262</ele>
        <time>2012-08-06T14:59:11Z</time>
      </trkpt>
      <trkpt lat="47.44799" lon="6.20756">
        <ele>262.6</ele>
        <time>2012-08-06T14:59:22Z</time>
      </trkpt>
      <trkpt lat="47.4481" lon="6.20782">
        <ele>263.2</ele>
        <time>2012-08-06T14:59:32Z</time>
      </trkpt>
      <trkpt lat="47.44821" lon="6.2081">
        <ele>264</ele>
        <time>2012-08-06T14:59:42Z</time>
      </trkpt>
      <trkpt lat="47.44832" lon="6.20837">
        <ele>264.7</ele>
        <time>2012-08-06T14:59:53Z</time>
      </trkpt>
      <trkpt lat="47.44833" lon="6.2084">
        <ele>264.7</ele>
        <time>2012-08-06T14:59:54Z</time>
      </trkpt>
      <trkpt lat="47.44853" lon="6.20891">
        <ele>266.2</ele>
        <time>2012-08-06T15:00:13Z</time>
      </trkpt>
      <trkpt lat="47.44864" lon="6.20919">
        <ele>267</ele>
        <time>2012-08-06T15:00:24Z</time>
      </trkpt>
      <trkpt lat="47.44874" lon="6.20948">
        <ele>267.7</ele>
        <time>2012-08-06T15:00:35Z</time>
      </trkpt>
      <trkpt lat="47.44885" lon="6.20975">
        <ele>268.7</ele>
        <time>2012-08-06T15:00:45Z</time>
      </trkpt>
      <trkpt lat="47.44895" lon="6.21003">
        <ele>269.6</ele>
        <time>2012-08-06T15:00:55Z</time>
      </trkpt>
      <trkpt lat="47.44897" lon="6.21005">
        <ele>269.6</ele>
        <time>2012-08-06T15:00:56Z</time>
      </trkpt>
      <trkpt lat="47.44918" lon="6.21058">
        <ele>271.2</ele>
        <time>2012-08-06T15:01:15Z</time>
      </trkpt>
      <trkpt lat="47.44929" lon="6.21086">
        <ele>272.2</ele>
        <time>2012-08-06T15:01:25Z</time>
      </trkpt>
      <trkpt lat="47.44939" lon="6.21112">
        <ele>272.7</ele>
        <time>2012-08-06T15:01:34Z</time>
      </trkpt>
      <trkpt lat="47.4495" lon="6.2114">
        <ele>273.7</ele>
        <time>2012-08-06T15:01:44Z</time>
      </trkpt>
      <trkpt lat="47.44961" lon="6.21169">
        <ele>274.5</ele>
        <time>2012-08-06T15:01:54Z</time>
      </trkpt>
      <trkpt lat="47.44971" lon="6.21196">
        <ele>275.1</ele>
        <time>2012-08-06T15:02:03Z</time>
      </trkpt>
      <trkpt lat="47.44972" lon="6.21199">
        <ele>275.2</ele>
        <time>2012-08-06T15:02:04Z</time>
      </trkpt>
      <trkpt lat="47.44992" lon="6.2125">
        <ele>276.2</ele>
        <time>2012-08-06T15:02:21Z</time>
      </trkpt>
      <trkpt lat="47.45002" lon="6.21279">
        <ele>276.7</ele>
        <time>2012-08-06T15:02:30Z</time>
      </trkpt>
      <trkpt lat="47.45011" lon="6.21308">
        <ele>277.2</ele>
        <time>2012-08-06T15:02:39Z</time>
      </trkpt>
      <trkpt lat="47.45019" lon="6.21336">
        <ele>277.7</ele>
        <time>2012-08-06T15:02:48Z</time>
      </trkpt>
      <trkpt lat="47.45027" lon="6.21364">
        <ele>278.1</ele>
        <time>2012-08-06T15:02:57Z</time>
      </trkpt>
      <trkpt lat="47.45034" lon="6.21393">
        <ele>278.6</ele>
        <time>2012-08-06T15:03:06Z</time>
      </trkpt>
      <trkpt lat="47.45035" lon="6.21396">
        <ele>278.7</ele>
        <time>2012-08-06T15:03:07Z</time>
      </trkpt>
      <trkpt lat="47.45049" lon="6.21453">
        <ele>279.7</ele>
        <time>2012-08-06T15:03:24Z</time>
      </trkpt>
      <trkpt lat="47.45057" lon="6.21483">
        <ele>280.6</ele>
        <time>2012-08-06T15:03:34Z</time>
      </trkpt>
      <trkpt lat="47.45064" lon="6.21514">
        <ele>281.2</ele>
        <time>2012-08-06T15:03:44Z</time>
      </trkpt>
      <trkpt lat="47.45071" lon="6.21542">
        <ele>282.1</ele>
        <time>2012-08-06T15:03:53Z</time>
      </trkpt>
      <trkpt lat="47.45078" lon="6.21573">
        <ele>282.7</ele>
        <time>2012-08-06T15:04:02Z</time>
      </trkpt>
      <trkpt lat="47.45083" lon="6.21604">
        <ele>283.2</ele>
        <time>2012-08-06T15:04:09Z</time>
      </trkpt>
      <trkpt lat="47.45084" lon="6.21608">
        <ele>283.2</ele>
        <time>2012-08-06T15:04:10Z</time>
      </trkpt>
      <trkpt lat="47.45093" lon="6.21667">
        <ele>284.5</ele>
        <time>2012-08-06T15:04:23Z</time>
      </trkpt>
      <trkpt lat="47.45096" lon="6.21699">
        <ele>285.1</ele>
        <time>2012-08-06T15:04:30Z</time>
      </trkpt>
      <trkpt lat="47.45099" lon="6.21728">
        <ele>285.7</ele>
        <time>2012-08-06T15:04:36Z</time>
      </trkpt>
      <trkpt lat="47.45102" lon="6.21758">
        <ele>288.7</ele>
        <time>2012-08-06T15:04:41Z</time>
      </trkpt>
      <trkpt lat="47.45104" lon="6.21786">
        <ele>290</ele>
        <time>2012-08-06T15:04:45Z</time>
      </trkpt>
      <trkpt lat="47.45107" lon="6.21815">
        <ele>290.5</ele>
        <time>2012-08-06T15:04:49Z</time>
      </trkpt>
      <trkpt lat="47.45109" lon="6.21846">
        <ele>290.7</ele>
        <time>2012-08-06T15:04:53Z</time>
      </trkpt>
      <trkpt lat="47.45112" lon="6.21878">
        <ele>291</ele>
        <time>2012-08-06T15:04:57Z</time>
      </trkpt>
      <trkpt lat="47.45115" lon="6.21903">
        <ele>291.1</ele>
        <time>2012-08-06T15:05:00Z</time>
      </trkpt>
      <trkpt lat="47.45118" lon="6.21929">
        <ele>291.2</ele>
        <time>2012-08-06T15:05:03Z</time>
      </trkpt>
      <trkpt lat="47.45122" lon="6.21959">
        <ele>291.5</ele>
        <time>2012-08-06T15:05:06Z</time>
      </trkpt>
      <trkpt lat="47.45128" lon="6.2199">
        <ele>291.2</ele>
        <time>2012-08-06T15:05:09Z</time>
      </trkpt>
      <trkpt lat="47.45132" lon="6.22012">
        <ele>291.2</ele>
        <time>2012-08-06T15:05:11Z</time>
      </trkpt>
      <trkpt lat="47.45135" lon="6.22023">
        <ele>291.2</ele>
        <time>2012-08-06T15:05:12Z</time>
      </trkpt>
      <trkpt lat="47.45143" lon="6.22059">
        <ele>291.2</ele>
        <time>2012-08-06T15:05:15Z</time>
      </trkpt>
      <trkpt lat="47.4515" lon="6.22085">
        <ele>291.2</ele>
        <time>2012-08-06T15:05:17Z</time>
      </trkpt>
      <trkpt lat="47.45157" lon="6.22111">
        <ele>291.1</ele>
        <time>2012-08-06T15:05:19Z</time>
      </trkpt>
      <trkpt lat="47.45164" lon="6.22138">
        <ele>291</ele>
        <time>2012-08-06T15:05:21Z</time>
      </trkpt>
      <trkpt lat="47.45172" lon="6.22166">
        <ele>290.7</ele>
        <time>2012-08-06T15:05:23Z</time>
      </trkpt>
      <trkpt lat="47.4518" lon="6.22192">
        <ele>290.7</ele>
        <time>2012-08-06T15:05:25Z</time>
      </trkpt>
      <trkpt lat="47.45187" lon="6.22219">
        <ele>290.7</ele>
        <time>2012-08-06T15:05:27Z</time>
      </trkpt>
      <trkpt lat="47.45195" lon="6.22244">
        <ele>290.7</ele>
        <time>2012-08-06T15:05:29Z</time>
      </trkpt>
      <trkpt lat="47.45202" lon="6.22267">
        <ele>290.5</ele>
        <time>2012-08-06T15:05:31Z</time>
      </trkpt>
      <trkpt lat="47.4521" lon="6.22289">
        <ele>290.2</ele>
        <time>2012-08-06T15:05:33Z</time>
      </trkpt>
      <trkpt lat="47.45218" lon="6.2231">
        <ele>290.1</ele>
        <time>2012-08-06T15:05:35Z</time>
      </trkpt>
      <trkpt lat="47.45226" lon="6.2233">
        <ele>289.7</ele>
        <time>2012-08-06T15:05:37Z</time>
      </trkpt>
      <trkpt lat="47.45234" lon="6.22348">
        <ele>289.6</ele>
        <time>2012-08-06T15:05:39Z</time>
      </trkpt>
      <trkpt lat="47.45247" lon="6.22375">
        <ele>289.2</ele>
        <time>2012-08-06T15:05:42Z</time>
      </trkpt>
      <trkpt lat="47.4526" lon="6.22401">
        <ele>289.1</ele>
        <time>2012-08-06T15:05:45Z</time>
      </trkpt>
      <trkpt lat="47.45274" lon="6.22427">
        <ele>288.7</ele>
        <time>2012-08-06T15:05:48Z</time>
      </trkpt>
      <trkpt lat="47.45287" lon="6.22452">
        <ele>288.2</ele>
        <time>2012-08-06T15:05:51Z</time>
      </trkpt>
      <trkpt lat="47.453" lon="6.22477">
        <ele>288.1</ele>
        <time>2012-08-06T15:05:54Z</time>
      </trkpt>
      <trkpt lat="47.45314" lon="6.22502">
        <ele>287.7</ele>
        <time>2012-08-06T15:05:57Z</time>
      </trkpt>
      <trkpt lat="47.45327" lon="6.22526">
        <ele>287.7</ele>
        <time>2012-08-06T15:06:00Z</time>
      </trkpt>
      <trkpt lat="47.45339" lon="6.22549">
        <ele>287.2</ele>
        <time>2012-08-06T15:06:03Z</time>
      </trkpt>
      <trkpt lat="47.45352" lon="6.22573">
        <ele>287.1</ele>
        <time>2012-08-06T15:06:06Z</time>
      </trkpt>
      <trkpt lat="47.45364" lon="6.22597">
        <ele>286.7</ele>
        <time>2012-08-06T15:06:09Z</time>
      </trkpt>
      <trkpt lat="47.45377" lon="6.22622">
        <ele>286.7</ele>
        <time>2012-08-06T15:06:12Z</time>
      </trkpt>
      <trkpt lat="47.45381" lon="6.22631">
        <ele>286.7</ele>
        <time>2012-08-06T15:06:13Z</time>
      </trkpt>
      <trkpt lat="47.45399" lon="6.22667">
        <ele>286.5</ele>
        <time>2012-08-06T15:06:17Z</time>
      </trkpt>
      <trkpt lat="47.45408" lon="6.22687">
        <ele>286.5</ele>
        <time>2012-08-06T15:06:19Z</time>
      </trkpt>
      <trkpt lat="47.45417" lon="6.22708">
        <ele>286.2</ele>
        <time>2012-08-06T15:06:21Z</time>
      </trkpt>
      <trkpt lat="47.45426" lon="6.2273">
        <ele>286.2</ele>
        <time>2012-08-06T15:06:23Z</time>
      </trkpt>
      <trkpt lat="47.45435" lon="6.22753">
        <ele>286.1</ele>
        <time>2012-08-06T15:06:25Z</time>
      </trkpt>
      <trkpt lat="47.45444" lon="6.22776">
        <ele>286.1</ele>
        <time>2012-08-06T15:06:27Z</time>
      </trkpt>
      <trkpt lat="47.45454" lon="6.22799">
        <ele>286</ele>
        <time>2012-08-06T15:06:29Z</time>
      </trkpt>
      <trkpt lat="47.45463" lon="6.22822">
        <ele>285.7</ele>
        <time>2012-08-06T15:06:31Z</time>
      </trkpt>
      <trkpt lat="47.45473" lon="6.22845">
        <ele>285.7</ele>
        <time>2012-08-06T15:06:33Z</time>
      </trkpt>
      <trkpt lat="47.45482" lon="6.22867">
        <ele>285.7</ele>
        <time>2012-08-06T15:06:35Z</time>
      </trkpt>
      <trkpt lat="47.45492" lon="6.22889">
        <ele>285.6</ele>
        <time>2012-08-06T15:06:37Z</time>
      </trkpt>
      <trkpt lat="47.45502" lon="6.22909">
        <ele>285.2</ele>
        <time>2012-08-06T15:06:39Z</time>
      </trkpt>
      <trkpt lat="47.45513" lon="6.22927">
        <ele>284.7</ele>
        <time>2012-08-06T15:06:41Z</time>
      </trkpt>
      <trkpt lat="47.45528" lon="6.22951">
        <ele>284.1</ele>
        <time>2012-08-06T15:06:44Z</time>
      </trkpt>
      <trkpt lat="47.45541" lon="6.22972">
        <ele>283.2</ele>
        <time>2012-08-06T15:06:47Z</time>
      </trkpt>
      <trkpt lat="47.45558" lon="6.22994">
        <ele>282.2</ele>
        <time>2012-08-06T15:06:51Z</time>
      </trkpt>
      <trkpt lat="47.45574" lon="6.23016">
        <ele>281.2</ele>
        <time>2012-08-06T15:06:56Z</time>
      </trkpt>
      <trkpt lat="47.45588" lon="6.23036">
        <ele>281.2</ele>
        <time>2012-08-06T15:07:02Z</time>
      </trkpt>
      <trkpt lat="47.45604" lon="6.23056">
        <ele>280.7</ele>
        <time>2012-08-06T15:07:09Z</time>
      </trkpt>
      <trkpt lat="47.45618" lon="6.23076">
        <ele>280.7</ele>
        <time>2012-08-06T15:07:16Z</time>
      </trkpt>
      <trkpt lat="47.4562" lon="6.23078">
        <ele>280.6</ele>
        <time>2012-08-06T15:07:17Z</time>
      </trkpt>
      <trkpt lat="47.45651" lon="6.23119">
        <ele>280.1</ele>
        <time>2012-08-06T15:07:32Z</time>
      </trkpt>
      <trkpt lat="47.45666" lon="6.2314">
        <ele>279.7</ele>
        <time>2012-08-06T15:07:39Z</time>
      </trkpt>
      <trkpt lat="47.4568" lon="6.2316">
        <ele>279.6</ele>
        <time>2012-08-06T15:07:46Z</time>
      </trkpt>
      <trkpt lat="47.45695" lon="6.23181">
        <ele>279.2</ele>
        <time>2012-08-06T15:07:53Z</time>
      </trkpt>
      <trkpt lat="47.45709" lon="6.23204">
        <ele>279.2</ele>
        <time>2012-08-06T15:08:00Z</time>
      </trkpt>
      <trkpt lat="47.45722" lon="6.23227">
        <ele>279.2</ele>
        <time>2012-08-06T15:08:07Z</time>
      </trkpt>
      <trkpt lat="47.45734" lon="6.23253">
        <ele>279.2</ele>
        <time>2012-08-06T15:08:14Z</time>
      </trkpt>
      <trkpt lat="47.45744" lon="6.23279">
        <ele>279.2</ele>
        <time>2012-08-06T15:08:21Z</time>
      </trkpt>
      <trkpt lat="47.45746" lon="6.23282">
        <ele>279.2</ele>
        <time>2012-08-06T15:08:22Z</time>
      </trkpt>
      <trkpt lat="47.45763" lon="6.23335">
        <ele>279.7</ele>
        <time>2012-08-06T15:08:38Z</time>
      </trkpt>
      <trkpt lat="47.45778" lon="6.23358">
        <ele>280.2</ele>
        <time>2012-08-06T15:08:49Z</time>
      </trkpt>
      <trkpt lat="47.45793" lon="6.23378">
        <ele>280.6</ele>
        <time>2012-08-06T15:08:58Z</time>
      </trkpt>
      <trkpt lat="47.4581" lon="6.234">
        <ele>280.7</ele>
        <time>2012-08-06T15:09:07Z</time>
      </trkpt>
      <trkpt lat="47.45796" lon="6.2338">
        <ele>293.2</ele>
        <time>2012-08-06T15:21:13Z</time>
      </trkpt>
      <trkpt lat="47.45793" lon="6.23377">
        <ele>293.2</ele>
        <time>2012-08-06T15:21:14Z</time>
      </trkpt>
      <trkpt lat="47.45768" lon="6.23337">
        <ele>292.2</ele>
        <time>2012-08-06T15:21:24Z</time>
      </trkpt>
      <trkpt lat="47.45761" lon="6.23307">
        <ele>289.1</ele>
        <time>2012-08-06T15:21:29Z</time>
      </trkpt>
      <trkpt lat="47.45753" lon="6.23282">
        <ele>287.7</ele>
        <time>2012-08-06T15:21:33Z</time>
      </trkpt>
      <trkpt lat="47.45743" lon="6.23257">
        <ele>286.7</ele>
        <time>2012-08-06T15:21:37Z</time>
      </trkpt>
      <trkpt lat="47.45733" lon="6.23233">
        <ele>286.1</ele>
        <time>2012-08-06T15:21:41Z</time>
      </trkpt>
      <trkpt lat="47.45719" lon="6.23209">
        <ele>285.7</ele>
        <time>2012-08-06T15:21:45Z</time>
      </trkpt>
      <trkpt lat="47.45706" lon="6.23185">
        <ele>285.2</ele>
        <time>2012-08-06T15:21:49Z</time>
      </trkpt>
      <trkpt lat="47.4569" lon="6.23163">
        <ele>284.7</ele>
        <time>2012-08-06T15:21:53Z</time>
      </trkpt>
      <trkpt lat="47.45675" lon="6.23142">
        <ele>284.1</ele>
        <time>2012-08-06T15:21:57Z</time>
      </trkpt>
      <trkpt lat="47.4566" lon="6.2312">
        <ele>283.6</ele>
        <time>2012-08-06T15:22:01Z</time>
      </trkpt>
      <trkpt lat="47.45644" lon="6.23099">
        <ele>283.2</ele>
        <time>2012-08-06T15:22:05Z</time>
      </trkpt>
      <trkpt lat="47.45628" lon="6.23079">
        <ele>282.6</ele>
        <time>2012-08-06T15:22:09Z</time>
      </trkpt>
      <trkpt lat="47.45612" lon="6.23058">
        <ele>282.1</ele>
        <time>2012-08-06T15:22:13Z</time>
      </trkpt>
      <trkpt lat="47.45597" lon="6.23037">
        <ele>281.7</ele>
        <time>2012-08-06T15:22:17Z</time>
      </trkpt>
      <trkpt lat="47.45593" lon="6.23031">
        <ele>281.6</ele>
        <time>2012-08-06T15:22:18Z</time>
      </trkpt>
      <trkpt lat="47.45568" lon="6.22998">
        <ele>281.1</ele>
        <time>2012-08-06T15:22:24Z</time>
      </trkpt>
      <trkpt lat="47.45555" lon="6.2298">
        <ele>280.6</ele>
        <time>2012-08-06T15:22:27Z</time>
      </trkpt>
      <trkpt lat="47.45541" lon="6.22962">
        <ele>280.2</ele>
        <time>2012-08-06T15:22:30Z</time>
      </trkpt>
      <trkpt lat="47.45528" lon="6.22942">
        <ele>280</ele>
        <time>2012-08-06T15:22:33Z</time>
      </trkpt>
      <trkpt lat="47.45515" lon="6.22921">
        <ele>279.6</ele>
        <time>2012-08-06T15:22:36Z</time>
      </trkpt>
      <trkpt lat="47.45502" lon="6.229">
        <ele>279.2</ele>
        <time>2012-08-06T15:22:39Z</time>
      </trkpt>
      <trkpt lat="47.45491" lon="6.22878">
        <ele>278.7</ele>
        <time>2012-08-06T15:22:42Z</time>
      </trkpt>
      <trkpt lat="47.45481" lon="6.22857">
        <ele>278.7</ele>
        <time>2012-08-06T15:22:45Z</time>
      </trkpt>
      <trkpt lat="47.45471" lon="6.22832">
        <ele>278.5</ele>
        <time>2012-08-06T15:22:49Z</time>
      </trkpt>
      <trkpt lat="47.4546" lon="6.22806">
        <ele>278.2</ele>
        <time>2012-08-06T15:22:54Z</time>
      </trkpt>
      <trkpt lat="47.4545" lon="6.2278">
        <ele>278.2</ele>
        <time>2012-08-06T15:23:00Z</time>
      </trkpt>
      <trkpt lat="47.45439" lon="6.22752">
        <ele>278.2</ele>
        <time>2012-08-06T15:23:08Z</time>
      </trkpt>
      <trkpt lat="47.45429" lon="6.22726">
        <ele>278.2</ele>
        <time>2012-08-06T15:23:15Z</time>
      </trkpt>
      <trkpt lat="47.45418" lon="6.227">
        <ele>278.2</ele>
        <time>2012-08-06T15:23:22Z</time>
      </trkpt>
      <trkpt lat="47.45417" lon="6.22696">
        <ele>278.2</ele>
        <time>2012-08-06T15:23:23Z</time>
      </trkpt>
      <trkpt lat="47.45409" lon="6.22644">
        <ele>278.2</ele>
        <time>2012-08-06T15:23:38Z</time>
      </trkpt>
      <trkpt lat="47.45423" lon="6.2262">
        <ele>278.6</ele>
        <time>2012-08-06T15:24:26Z</time>
      </trkpt>
      <trkpt lat="47.45424" lon="6.22617">
        <ele>278.6</ele>
        <time>2012-08-06T15:24:27Z</time>
      </trkpt>
      <trkpt lat="47.45446" lon="6.22567">
        <ele>278.7</ele>
        <time>2012-08-06T15:24:43Z</time>
      </trkpt>
      <trkpt lat="47.45456" lon="6.22541">
        <ele>278.7</ele>
        <time>2012-08-06T15:24:51Z</time>
      </trkpt>
      <trkpt lat="47.45466" lon="6.22514">
        <ele>278.7</ele>
        <time>2012-08-06T15:24:59Z</time>
      </trkpt>
      <trkpt lat="47.45478" lon="6.2249">
        <ele>278.7</ele>
        <time>2012-08-06T15:25:07Z</time>
      </trkpt>
      <trkpt lat="47.45492" lon="6.22464">
        <ele>279.1</ele>
        <time>2012-08-06T15:25:17Z</time>
      </trkpt>
      <trkpt lat="47.45505" lon="6.22442">
        <ele>279.1</ele>
        <time>2012-08-06T15:25:28Z</time>
      </trkpt>
      <trkpt lat="47.45507" lon="6.2244">
        <ele>279.1</ele>
        <time>2012-08-06T15:25:29Z</time>
      </trkpt>
      <trkpt lat="47.45536" lon="6.22395">
        <ele>279.2</ele>
        <time>2012-08-06T15:25:51Z</time>
      </trkpt>
      <trkpt lat="47.45551" lon="6.22372">
        <ele>279.6</ele>
        <time>2012-08-06T15:26:03Z</time>
      </trkpt>
      <trkpt lat="47.45566" lon="6.22348">
        <ele>279.7</ele>
        <time>2012-08-06T15:26:16Z</time>
      </trkpt>
      <trkpt lat="47.45581" lon="6.22325">
        <ele>280.2</ele>
        <time>2012-08-06T15:26:28Z</time>
      </trkpt>
      <trkpt lat="47.45594" lon="6.223">
        <ele>280.7</ele>
        <time>2012-08-06T15:26:39Z</time>
      </trkpt>
      <trkpt lat="47.45595" lon="6.22299">
        <ele>280.7</ele>
        <time>2012-08-06T15:26:40Z</time>
      </trkpt>
      <trkpt lat="47.45621" lon="6.22248">
        <ele>284.6</ele>
        <time>2012-08-06T15:27:26Z</time>
      </trkpt>
      <trkpt lat="47.45634" lon="6.22223">
        <ele>286.2</ele>
        <time>2012-08-06T15:27:37Z</time>
      </trkpt>
      <trkpt lat="47.45618" lon="6.22201">
        <ele>288.7</ele>
        <time>2012-08-06T15:27:57Z</time>
      </trkpt>
      <trkpt lat="47.45617" lon="6.22199">
        <ele>288.7</ele>
        <time>2012-08-06T15:27:58Z</time>
      </trkpt>
      <trkpt lat="47.45593" lon="6.22147">
        <ele>292</ele>
        <time>2012-08-06T15:28:36Z</time>
      </trkpt>
      <trkpt lat="47.45582" lon="6.2212">
        <ele>295.2</ele>
        <time>2012-08-06T15:28:53Z</time>
      </trkpt>
      <trkpt lat="47.45569" lon="6.22095">
        <ele>297.7</ele>
        <time>2012-08-06T15:29:10Z</time>
      </trkpt>
      <trkpt lat="47.45568" lon="6.22093">
        <ele>297.7</ele>
        <time>2012-08-06T15:29:11Z</time>
      </trkpt>
      <trkpt lat="47.45545" lon="6.22043">
        <ele>299.7</ele>
        <time>2012-08-06T15:29:33Z</time>
      </trkpt>
      <trkpt lat="47.45539" lon="6.22012">
        <ele>300.6</ele>
        <time>2012-08-06T15:31:07Z</time>
      </trkpt>
      <trkpt lat="47.45538" lon="6.22011">
        <ele>300.6</ele>
        <time>2012-08-06T15:31:08Z</time>
      </trkpt>
      <trkpt lat="47.45531" lon="6.21948">
        <ele>301</ele>
        <time>2012-08-06T15:31:33Z</time>
      </trkpt>
      <trkpt lat="47.45526" lon="6.21919">
        <ele>301.2</ele>
        <time>2012-08-06T15:31:44Z</time>
      </trkpt>
      <trkpt lat="47.45513" lon="6.21892">
        <ele>301.2</ele>
        <time>2012-08-06T15:31:55Z</time>
      </trkpt>
      <trkpt lat="47.45499" lon="6.21871">
        <ele>301.7</ele>
        <time>2012-08-06T15:32:06Z</time>
      </trkpt>
      <trkpt lat="47.45485" lon="6.21846">
        <ele>302.6</ele>
        <time>2012-08-06T15:32:18Z</time>
      </trkpt>
      <trkpt lat="47.45484" lon="6.21844">
        <ele>302.6</ele>
        <time>2012-08-06T15:32:19Z</time>
      </trkpt>
      <trkpt lat="47.45477" lon="6.21785">
        <ele>304.2</ele>
        <time>2012-08-06T15:32:41Z</time>
      </trkpt>
      <trkpt lat="47.45477" lon="6.21754">
        <ele>305.2</ele>
        <time>2012-08-06T15:32:53Z</time>
      </trkpt>
      <trkpt lat="47.45476" lon="6.21723">
        <ele>306.2</ele>
        <time>2012-08-06T15:33:04Z</time>
      </trkpt>
      <trkpt lat="47.45478" lon="6.21693">
        <ele>307</ele>
        <time>2012-08-06T15:33:13Z</time>
      </trkpt>
      <trkpt lat="47.45479" lon="6.21661">
        <ele>307.5</ele>
        <time>2012-08-06T15:33:22Z</time>
      </trkpt>
      <trkpt lat="47.45479" lon="6.21658">
        <ele>307.6</ele>
        <time>2012-08-06T15:33:23Z</time>
      </trkpt>
      <trkpt lat="47.45481" lon="6.21599">
        <ele>309</ele>
        <time>2012-08-06T15:33:39Z</time>
      </trkpt>
      <trkpt lat="47.4548" lon="6.2157">
        <ele>309.7</ele>
        <time>2012-08-06T15:33:45Z</time>
      </trkpt>
      <trkpt lat="47.4548" lon="6.21539">
        <ele>310.5</ele>
        <time>2012-08-06T15:33:51Z</time>
      </trkpt>
      <trkpt lat="47.45481" lon="6.21507">
        <ele>311.2</ele>
        <time>2012-08-06T15:33:57Z</time>
      </trkpt>
      <trkpt lat="47.45482" lon="6.21478">
        <ele>313.7</ele>
        <time>2012-08-06T15:34:02Z</time>
      </trkpt>
      <trkpt lat="47.45483" lon="6.21449">
        <ele>315.1</ele>
        <time>2012-08-06T15:34:06Z</time>
      </trkpt>
      <trkpt lat="47.45484" lon="6.21417">
        <ele>315.2</ele>
        <time>2012-08-06T15:34:10Z</time>
      </trkpt>
      <trkpt lat="47.45483" lon="6.21387">
        <ele>315.2</ele>
        <time>2012-08-06T15:34:14Z</time>
      </trkpt>
      <trkpt lat="47.45476" lon="6.21356">
        <ele>314.7</ele>
        <time>2012-08-06T15:34:18Z</time>
      </trkpt>
      <trkpt lat="47.45466" lon="6.21332">
        <ele>314.2</ele>
        <time>2012-08-06T15:34:21Z</time>
      </trkpt>
      <trkpt lat="47.45455" lon="6.21305">
        <ele>313.7</ele>
        <time>2012-08-06T15:34:24Z</time>
      </trkpt>
      <trkpt lat="47.45451" lon="6.21296">
        <ele>313.7</ele>
        <time>2012-08-06T15:34:25Z</time>
      </trkpt>
      <trkpt lat="47.45437" lon="6.21267">
        <ele>313.2</ele>
        <time>2012-08-06T15:34:28Z</time>
      </trkpt>
      <trkpt lat="47.45427" lon="6.21246">
        <ele>312.7</ele>
        <time>2012-08-06T15:34:30Z</time>
      </trkpt>
      <trkpt lat="47.45415" lon="6.21226">
        <ele>312.2</ele>
        <time>2012-08-06T15:34:32Z</time>
      </trkpt>
      <trkpt lat="47.45402" lon="6.21206">
        <ele>311.2</ele>
        <time>2012-08-06T15:34:34Z</time>
      </trkpt>
      <trkpt lat="47.45386" lon="6.21187">
        <ele>310.2</ele>
        <time>2012-08-06T15:34:36Z</time>
      </trkpt>
      <trkpt lat="47.45369" lon="6.2117">
        <ele>309.5</ele>
        <time>2012-08-06T15:34:38Z</time>
      </trkpt>
      <trkpt lat="47.4535" lon="6.21154">
        <ele>308.7</ele>
        <time>2012-08-06T15:34:40Z</time>
      </trkpt>
      <trkpt lat="47.45332" lon="6.21137">
        <ele>308.1</ele>
        <time>2012-08-06T15:34:42Z</time>
      </trkpt>
      <trkpt lat="47.45314" lon="6.2112">
        <ele>307.2</ele>
        <time>2012-08-06T15:34:44Z</time>
      </trkpt>
      <trkpt lat="47.45299" lon="6.21102">
        <ele>307</ele>
        <time>2012-08-06T15:34:46Z</time>
      </trkpt>
      <trkpt lat="47.45285" lon="6.21087">
        <ele>306</ele>
        <time>2012-08-06T15:34:48Z</time>
      </trkpt>
      <trkpt lat="47.45272" lon="6.21072">
        <ele>304.5</ele>
        <time>2012-08-06T15:34:50Z</time>
      </trkpt>
      <trkpt lat="47.45257" lon="6.21059">
        <ele>302.5</ele>
        <time>2012-08-06T15:34:52Z</time>
      </trkpt>
      <trkpt lat="47.4524" lon="6.21049">
        <ele>299.7</ele>
        <time>2012-08-06T15:34:54Z</time>
      </trkpt>
      <trkpt lat="47.45223" lon="6.21038">
        <ele>297.2</ele>
        <time>2012-08-06T15:34:56Z</time>
      </trkpt>
      <trkpt lat="47.45207" lon="6.21026">
        <ele>294.5</ele>
        <time>2012-08-06T15:34:58Z</time>
      </trkpt>
      <trkpt lat="47.45192" lon="6.21013">
        <ele>292</ele>
        <time>2012-08-06T15:35:00Z</time>
      </trkpt>
      <trkpt lat="47.45179" lon="6.20998">
        <ele>290.1</ele>
        <time>2012-08-06T15:35:02Z</time>
      </trkpt>
      <trkpt lat="47.45167" lon="6.20976">
        <ele>288</ele>
        <time>2012-08-06T15:35:05Z</time>
      </trkpt>
      <trkpt lat="47.4517" lon="6.20946">
        <ele>285.2</ele>
        <time>2012-08-06T15:35:09Z</time>
      </trkpt>
      <trkpt lat="47.4518" lon="6.20918">
        <ele>282.7</ele>
        <time>2012-08-06T15:35:13Z</time>
      </trkpt>
      <trkpt lat="47.45194" lon="6.20901">
        <ele>281.2</ele>
        <time>2012-08-06T15:35:16Z</time>
      </trkpt>
      <trkpt lat="47.4521" lon="6.20886">
        <ele>280.1</ele>
        <time>2012-08-06T15:35:19Z</time>
      </trkpt>
      <trkpt lat="47.45225" lon="6.20873">
        <ele>278.7</ele>
        <time>2012-08-06T15:35:22Z</time>
      </trkpt>
      <trkpt lat="47.45238" lon="6.20848">
        <ele>276.2</ele>
        <time>2012-08-06T15:35:26Z</time>
      </trkpt>
      <trkpt lat="47.45238" lon="6.20839">
        <ele>275.7</ele>
        <time>2012-08-06T15:35:27Z</time>
      </trkpt>
      <trkpt lat="47.45236" lon="6.20788">
        <ele>272.7</ele>
        <time>2012-08-06T15:35:32Z</time>
      </trkpt>
      <trkpt lat="47.45233" lon="6.20766">
        <ele>271.7</ele>
        <time>2012-08-06T15:35:34Z</time>
      </trkpt>
      <trkpt lat="47.4523" lon="6.20744">
        <ele>270.7</ele>
        <time>2012-08-06T15:35:36Z</time>
      </trkpt>
      <trkpt lat="47.45226" lon="6.20721">
        <ele>269.7</ele>
        <time>2012-08-06T15:35:38Z</time>
      </trkpt>
      <trkpt lat="47.45223" lon="6.20699">
        <ele>268.6</ele>
        <time>2012-08-06T15:35:40Z</time>
      </trkpt>
      <trkpt lat="47.45218" lon="6.20675">
        <ele>267.2</ele>
        <time>2012-08-06T15:35:42Z</time>
      </trkpt>
      <trkpt lat="47.45215" lon="6.20651">
        <ele>266</ele>
        <time>2012-08-06T15:35:44Z</time>
      </trkpt>
      <trkpt lat="47.45212" lon="6.2062">
        <ele>264.2</ele>
        <time>2012-08-06T15:35:47Z</time>
      </trkpt>
      <trkpt lat="47.45203" lon="6.20592">
        <ele>262.7</ele>
        <time>2012-08-06T15:35:56Z</time>
      </trkpt>
      <trkpt lat="47.45182" lon="6.20595">
        <ele>261.7</ele>
        <time>2012-08-06T15:36:02Z</time>
      </trkpt>
      <trkpt lat="47.45162" lon="6.20603">
        <ele>260.1</ele>
        <time>2012-08-06T15:36:07Z</time>
      </trkpt>
      <trkpt lat="47.45146" lon="6.2062">
        <ele>259.7</ele>
        <time>2012-08-06T15:36:13Z</time>
      </trkpt>
      <trkpt lat="47.45127" lon="6.20637">
        <ele>259.2</ele>
        <time>2012-08-06T15:36:20Z</time>
      </trkpt>
      <trkpt lat="47.4511" lon="6.2065">
        <ele>259</ele>
        <time>2012-08-06T15:36:26Z</time>
      </trkpt>
      <trkpt lat="47.4509" lon="6.20665">
        <ele>258.6</ele>
        <time>2012-08-06T15:36:33Z</time>
      </trkpt>
      <trkpt lat="47.45087" lon="6.20667">
        <ele>258.5</ele>
        <time>2012-08-06T15:36:34Z</time>
      </trkpt>
      <trkpt lat="47.45054" lon="6.20688">
        <ele>257.7</ele>
        <time>2012-08-06T15:36:45Z</time>
      </trkpt>
      <trkpt lat="47.45033" lon="6.20697">
        <ele>257.6</ele>
        <time>2012-08-06T15:36:53Z</time>
      </trkpt>
      <trkpt lat="47.45012" lon="6.20701">
        <ele>257.2</ele>
        <time>2012-08-06T15:37:01Z</time>
      </trkpt>
      <trkpt lat="47.44991" lon="6.20704">
        <ele>257.1</ele>
        <time>2012-08-06T15:37:09Z</time>
      </trkpt>
      <trkpt lat="47.44971" lon="6.20708">
        <ele>257.1</ele>
        <time>2012-08-06T15:37:17Z</time>
      </trkpt>
      <trkpt lat="47.44951" lon="6.20711">
        <ele>257</ele>
        <time>2012-08-06T15:37:25Z</time>
      </trkpt>
      <trkpt lat="47.44931" lon="6.20708">
        <ele>257.1</ele>
        <time>2012-08-06T15:37:33Z</time>
      </trkpt>
      <trkpt lat="47.44911" lon="6.20698">
        <ele>257.2</ele>
        <time>2012-08-06T15:37:41Z</time>
      </trkpt>
      <trkpt lat="47.44909" lon="6.20697">
        <ele>257.5</ele>
        <time>2012-08-06T15:37:42Z</time>
      </trkpt>
      <trkpt lat="47.44874" lon="6.20669">
        <ele>258.2</ele>
        <time>2012-08-06T15:37:57Z</time>
      </trkpt>
      <trkpt lat="47.44855" lon="6.20651">
        <ele>258.7</ele>
        <time>2012-08-06T15:38:06Z</time>
      </trkpt>
      <trkpt lat="47.44836" lon="6.20639">
        <ele>259.2</ele>
        <time>2012-08-06T15:38:14Z</time>
      </trkpt>
      <trkpt lat="47.44816" lon="6.20633">
        <ele>259.6</ele>
        <time>2012-08-06T15:38:22Z</time>
      </trkpt>
      <trkpt lat="47.44796" lon="6.20631">
        <ele>259.7</ele>
        <time>2012-08-06T15:38:28Z</time>
      </trkpt>
      <trkpt lat="47.44775" lon="6.20632">
        <ele>260.7</ele>
        <time>2012-08-06T15:38:34Z</time>
      </trkpt>
      <trkpt lat="47.44753" lon="6.20635">
        <ele>260.7</ele>
        <time>2012-08-06T15:38:45Z</time>
      </trkpt>
      <trkpt lat="47.4475" lon="6.20636">
        <ele>260.7</ele>
        <time>2012-08-06T15:38:46Z</time>
      </trkpt>
      <trkpt lat="47.44709" lon="6.20647">
        <ele>260.6</ele>
        <time>2012-08-06T15:38:56Z</time>
      </trkpt>
      <trkpt lat="47.4469" lon="6.20651">
        <ele>260.5</ele>
        <time>2012-08-06T15:39:00Z</time>
      </trkpt>
      <trkpt lat="47.44671" lon="6.20657">
        <ele>260.2</ele>
        <time>2012-08-06T15:39:04Z</time>
      </trkpt>
      <trkpt lat="47.44651" lon="6.20661">
        <ele>259.7</ele>
        <time>2012-08-06T15:39:09Z</time>
      </trkpt>
      <trkpt lat="47.44632" lon="6.20663">
        <ele>259.2</ele>
        <time>2012-08-06T15:39:14Z</time>
      </trkpt>
      <trkpt lat="47.44613" lon="6.20663">
        <ele>259.2</ele>
        <time>2012-08-06T15:39:19Z</time>
      </trkpt>
      <trkpt lat="47.44591" lon="6.20662">
        <ele>259.2</ele>
        <time>2012-08-06T15:39:24Z</time>
      </trkpt>
      <trkpt lat="47.44572" lon="6.20663">
        <ele>259.2</ele>
        <time>2012-08-06T15:39:28Z</time>
      </trkpt>
      <trkpt lat="47.44555" lon="6.20666">
        <ele>259.1</ele>
        <time>2012-08-06T15:39:31Z</time>
      </trkpt>
      <trkpt lat="47.44536" lon="6.20668">
        <ele>258.7</ele>
        <time>2012-08-06T15:39:34Z</time>
      </trkpt>
      <trkpt lat="47.44517" lon="6.20671">
        <ele>258.7</ele>
        <time>2012-08-06T15:39:37Z</time>
      </trkpt>
      <trkpt lat="47.44496" lon="6.20673">
        <ele>258.6</ele>
        <time>2012-08-06T15:39:40Z</time>
      </trkpt>
      <trkpt lat="47.44476" lon="6.20675">
        <ele>258.6</ele>
        <time>2012-08-06T15:39:43Z</time>
      </trkpt>
      <trkpt lat="47.44456" lon="6.20676">
        <ele>258.6</ele>
        <time>2012-08-06T15:39:46Z</time>
      </trkpt>
      <trkpt lat="47.44435" lon="6.20674">
        <ele>258.5</ele>
        <time>2012-08-06T15:39:51Z</time>
      </trkpt>
      <trkpt lat="47.44433" lon="6.20676">
        <ele>258.5</ele>
        <time>2012-08-06T15:39:52Z</time>
      </trkpt>
      <trkpt lat="47.44402" lon="6.20713">
        <ele>257.7</ele>
        <time>2012-08-06T15:40:11Z</time>
      </trkpt>
      <trkpt lat="47.44384" lon="6.20732">
        <ele>257.5</ele>
        <time>2012-08-06T15:40:21Z</time>
      </trkpt>
      <trkpt lat="47.44367" lon="6.20752">
        <ele>257.2</ele>
        <time>2012-08-06T15:40:30Z</time>
      </trkpt>
      <trkpt lat="47.44351" lon="6.20772">
        <ele>257.2</ele>
        <time>2012-08-06T15:40:41Z</time>
      </trkpt>
      <trkpt lat="47.44334" lon="6.20793">
        <ele>257.6</ele>
        <time>2012-08-06T15:40:52Z</time>
      </trkpt>
      <trkpt lat="47.44318" lon="6.20811">
        <ele>258.2</ele>
        <time>2012-08-06T15:41:02Z</time>
      </trkpt>
      <trkpt lat="47.44316" lon="6.20813">
        <ele>258.2</ele>
        <time>2012-08-06T15:41:03Z</time>
      </trkpt>
      <trkpt lat="47.44284" lon="6.20852">
        <ele>260</ele>
        <time>2012-08-06T15:41:22Z</time>
      </trkpt>
      <trkpt lat="47.4427" lon="6.20873">
        <ele>260.5</ele>
        <time>2012-08-06T15:41:29Z</time>
      </trkpt>
      <trkpt lat="47.44253" lon="6.20895">
        <ele>263.2</ele>
        <time>2012-08-06T15:41:34Z</time>
      </trkpt>
      <trkpt lat="47.4424" lon="6.20916">
        <ele>264</ele>
        <time>2012-08-06T15:41:38Z</time>
      </trkpt>
      <trkpt lat="47.44226" lon="6.20935">
        <ele>264.2</ele>
        <time>2012-08-06T15:41:42Z</time>
      </trkpt>
      <trkpt lat="47.44212" lon="6.20955">
        <ele>264.2</ele>
        <time>2012-08-06T15:41:46Z</time>
      </trkpt>
      <trkpt lat="47.44198" lon="6.20975">
        <ele>264.2</ele>
        <time>2012-08-06T15:41:50Z</time>
      </trkpt>
      <trkpt lat="47.44183" lon="6.20998">
        <ele>264.2</ele>
        <time>2012-08-06T15:41:54Z</time>
      </trkpt>
      <trkpt lat="47.44168" lon="6.21021">
        <ele>264.1</ele>
        <time>2012-08-06T15:41:58Z</time>
      </trkpt>
      <trkpt lat="47.44156" lon="6.21039">
        <ele>264.1</ele>
        <time>2012-08-06T15:42:01Z</time>
      </trkpt>
      <trkpt lat="47.4414" lon="6.21061">
        <ele>264.1</ele>
        <time>2012-08-06T15:42:05Z</time>
      </trkpt>
      <trkpt lat="47.44136" lon="6.21066">
        <ele>264.1</ele>
        <time>2012-08-06T15:42:06Z</time>
      </trkpt>
      <trkpt lat="47.44112" lon="6.211">
        <ele>264.1</ele>
        <time>2012-08-06T15:42:13Z</time>
      </trkpt>
      <trkpt lat="47.44097" lon="6.21122">
        <ele>263.6</ele>
        <time>2012-08-06T15:42:18Z</time>
      </trkpt>
      <trkpt lat="47.44082" lon="6.21142">
        <ele>263.6</ele>
        <time>2012-08-06T15:42:24Z</time>
      </trkpt>
      <trkpt lat="47.44066" lon="6.21164">
        <ele>263.6</ele>
        <time>2012-08-06T15:42:32Z</time>
      </trkpt>
      <trkpt lat="47.44052" lon="6.21184">
        <ele>263.6</ele>
        <time>2012-08-06T15:42:38Z</time>
      </trkpt>
      <trkpt lat="47.44036" lon="6.21206">
        <ele>263.5</ele>
        <time>2012-08-06T15:42:45Z</time>
      </trkpt>
      <trkpt lat="47.44022" lon="6.21225">
        <ele>263.2</ele>
        <time>2012-08-06T15:42:50Z</time>
      </trkpt>
      <trkpt lat="47.44009" lon="6.21244">
        <ele>263.2</ele>
        <time>2012-08-06T15:42:54Z</time>
      </trkpt>
      <trkpt lat="47.43993" lon="6.21266">
        <ele>263.1</ele>
        <time>2012-08-06T15:42:58Z</time>
      </trkpt>
      <trkpt lat="47.4398" lon="6.21284">
        <ele>262.7</ele>
        <time>2012-08-06T15:43:01Z</time>
      </trkpt>
      <trkpt lat="47.43967" lon="6.21304">
        <ele>262.2</ele>
        <time>2012-08-06T15:43:04Z</time>
      </trkpt>
      <trkpt lat="47.43955" lon="6.21325">
        <ele>261.7</ele>
        <time>2012-08-06T15:43:07Z</time>
      </trkpt>
      <trkpt lat="47.43951" lon="6.21332">
        <ele>261.5</ele>
        <time>2012-08-06T15:43:08Z</time>
      </trkpt>
      <trkpt lat="47.43944" lon="6.2138">
        <ele>257.2</ele>
        <time>2012-08-06T15:45:22Z</time>
      </trkpt>
      <trkpt lat="47.43945" lon="6.21383">
        <ele>257.2</ele>
        <time>2012-08-06T15:45:23Z</time>
      </trkpt>
      <trkpt lat="47.43944" lon="6.21434">
        <ele>255.3</ele>
        <time>2012-08-06T15:45:36Z</time>
      </trkpt>
      <trkpt lat="47.43922" lon="6.21437">
        <ele>254.5</ele>
        <time>2012-08-06T15:45:45Z</time>
      </trkpt>
      <trkpt lat="47.43905" lon="6.2142">
        <ele>253.6</ele>
        <time>2012-08-06T15:45:54Z</time>
      </trkpt>
      <trkpt lat="47.43885" lon="6.21426">
        <ele>252.8</ele>
        <time>2012-08-06T15:46:03Z</time>
      </trkpt>
      <trkpt lat="47.4387" lon="6.21447">
        <ele>252.1</ele>
        <time>2012-08-06T15:46:11Z</time>
      </trkpt>
      <trkpt lat="47.43857" lon="6.21474">
        <ele>251.8</ele>
        <time>2012-08-06T15:46:20Z</time>
      </trkpt>
      <trkpt lat="47.43843" lon="6.21496">
        <ele>251.6</ele>
        <time>2012-08-06T15:46:30Z</time>
      </trkpt>
      <trkpt lat="47.43841" lon="6.21498">
        <ele>251.6</ele>
        <time>2012-08-06T15:46:31Z</time>
      </trkpt>
      <trkpt lat="47.43812" lon="6.21543">
        <ele>252.6</ele>
        <time>2012-08-06T15:46:51Z</time>
      </trkpt>
      <trkpt lat="47.43796" lon="6.21563">
        <ele>253.6</ele>
        <time>2012-08-06T15:47:01Z</time>
      </trkpt>
      <trkpt lat="47.43779" lon="6.21585">
        <ele>254.6</ele>
        <time>2012-08-06T15:47:11Z</time>
      </trkpt>
      <trkpt lat="47.43763" lon="6.21608">
        <ele>255.6</ele>
        <time>2012-08-06T15:47:21Z</time>
      </trkpt>
      <trkpt lat="47.43748" lon="6.21631">
        <ele>256.7</ele>
        <time>2012-08-06T15:47:31Z</time>
      </trkpt>
      <trkpt lat="47.43733" lon="6.21652">
        <ele>257.6</ele>
        <time>2012-08-06T15:47:41Z</time>
      </trkpt>
      <trkpt lat="47.43731" lon="6.21654">
        <ele>257.7</ele>
        <time>2012-08-06T15:47:42Z</time>
      </trkpt>
      <trkpt lat="47.437" lon="6.21697">
        <ele>259.2</ele>
        <time>2012-08-06T15:48:01Z</time>
      </trkpt>
      <trkpt lat="47.43685" lon="6.2172">
        <ele>260.2</ele>
        <time>2012-08-06T15:48:11Z</time>
      </trkpt>
      <trkpt lat="47.43667" lon="6.21741">
        <ele>261.2</ele>
        <time>2012-08-06T15:48:21Z</time>
      </trkpt>
      <trkpt lat="47.43652" lon="6.21761">
        <ele>262.2</ele>
        <time>2012-08-06T15:48:30Z</time>
      </trkpt>
      <trkpt lat="47.43635" lon="6.21782">
        <ele>263.6</ele>
        <time>2012-08-06T15:48:39Z</time>
      </trkpt>
      <trkpt lat="47.43621" lon="6.21802">
        <ele>264.7</ele>
        <time>2012-08-06T15:48:47Z</time>
      </trkpt>
      <trkpt lat="47.43618" lon="6.21804">
        <ele>264.7</ele>
        <time>2012-08-06T15:48:48Z</time>
      </trkpt>
      <trkpt lat="47.43587" lon="6.21843">
        <ele>267.2</ele>
        <time>2012-08-06T15:49:05Z</time>
      </trkpt>
      <trkpt lat="47.4357" lon="6.2186">
        <ele>268.5</ele>
        <time>2012-08-06T15:49:14Z</time>
      </trkpt>
      <trkpt lat="47.43551" lon="6.21877">
        <ele>269.6</ele>
        <time>2012-08-06T15:49:22Z</time>
      </trkpt>
      <trkpt lat="47.43534" lon="6.2189">
        <ele>270.2</ele>
        <time>2012-08-06T15:49:28Z</time>
      </trkpt>
      <trkpt lat="47.43515" lon="6.21906">
        <ele>273.7</ele>
        <time>2012-08-06T15:49:33Z</time>
      </trkpt>
      <trkpt lat="47.43498" lon="6.21923">
        <ele>275.7</ele>
        <time>2012-08-06T15:49:37Z</time>
      </trkpt>
      <trkpt lat="47.43479" lon="6.2194">
        <ele>276.5</ele>
        <time>2012-08-06T15:49:41Z</time>
      </trkpt>
      <trkpt lat="47.4346" lon="6.21956">
        <ele>276.7</ele>
        <time>2012-08-06T15:49:45Z</time>
      </trkpt>
      <trkpt lat="47.43445" lon="6.2197">
        <ele>276.7</ele>
        <time>2012-08-06T15:49:48Z</time>
      </trkpt>
      <trkpt lat="47.43429" lon="6.21984">
        <ele>277.1</ele>
        <time>2012-08-06T15:49:51Z</time>
      </trkpt>
      <trkpt lat="47.43424" lon="6.21988">
        <ele>277.1</ele>
        <time>2012-08-06T15:49:52Z</time>
      </trkpt>
      <trkpt lat="47.43396" lon="6.22012">
        <ele>276.7</ele>
        <time>2012-08-06T15:49:58Z</time>
      </trkpt>
      <trkpt lat="47.43378" lon="6.22027">
        <ele>276.2</ele>
        <time>2012-08-06T15:50:03Z</time>
      </trkpt>
      <trkpt lat="47.43359" lon="6.22043">
        <ele>276.2</ele>
        <time>2012-08-06T15:50:09Z</time>
      </trkpt>
      <trkpt lat="47.43366" lon="6.22072">
        <ele>276.2</ele>
        <time>2012-08-06T15:50:16Z</time>
      </trkpt>
      <trkpt lat="47.4338" lon="6.22095">
        <ele>275.7</ele>
        <time>2012-08-06T15:50:21Z</time>
      </trkpt>
      <trkpt lat="47.43395" lon="6.22119">
        <ele>275.7</ele>
        <time>2012-08-06T15:50:27Z</time>
      </trkpt>
      <trkpt lat="47.43408" lon="6.2214">
        <ele>275.7</ele>
        <time>2012-08-06T15:50:33Z</time>
      </trkpt>
      <trkpt lat="47.43424" lon="6.22163">
        <ele>275.7</ele>
        <time>2012-08-06T15:50:39Z</time>
      </trkpt>
      <trkpt lat="47.43431" lon="6.22192">
        <ele>275.5</ele>
        <time>2012-08-06T15:50:45Z</time>
      </trkpt>
      <trkpt lat="47.43425" lon="6.22218">
        <ele>275.1</ele>
        <time>2012-08-06T15:50:50Z</time>
      </trkpt>
      <trkpt lat="47.43418" lon="6.22245">
        <ele>275.1</ele>
        <time>2012-08-06T15:50:54Z</time>
      </trkpt>
      <trkpt lat="47.43416" lon="6.22252">
        <ele>275.1</ele>
        <time>2012-08-06T15:50:55Z</time>
      </trkpt>
      <trkpt lat="47.43404" lon="6.223">
        <ele>275.1</ele>
        <time>2012-08-06T15:51:02Z</time>
      </trkpt>
      <trkpt lat="47.43396" lon="6.2233">
        <ele>275</ele>
        <time>2012-08-06T15:51:06Z</time>
      </trkpt>
      <trkpt lat="47.4339" lon="6.22355">
        <ele>275</ele>
        <time>2012-08-06T15:51:09Z</time>
      </trkpt>
      <trkpt lat="47.43382" lon="6.22386">
        <ele>275</ele>
        <time>2012-08-06T15:51:13Z</time>
      </trkpt>
      <trkpt lat="47.43375" lon="6.22413">
        <ele>274.7</ele>
        <time>2012-08-06T15:51:17Z</time>
      </trkpt>
      <trkpt lat="47.43368" lon="6.22442">
        <ele>274.7</ele>
        <time>2012-08-06T15:51:22Z</time>
      </trkpt>
      <trkpt lat="47.4336" lon="6.22467">
        <ele>274.5</ele>
        <time>2012-08-06T15:51:26Z</time>
      </trkpt>
      <trkpt lat="47.43353" lon="6.22496">
        <ele>274.2</ele>
        <time>2012-08-06T15:51:30Z</time>
      </trkpt>
      <trkpt lat="47.43345" lon="6.22526">
        <ele>274.1</ele>
        <time>2012-08-06T15:51:34Z</time>
      </trkpt>
      <trkpt lat="47.43339" lon="6.22549">
        <ele>273.7</ele>
        <time>2012-08-06T15:51:37Z</time>
      </trkpt>
      <trkpt lat="47.43333" lon="6.22573">
        <ele>273.7</ele>
        <time>2012-08-06T15:51:40Z</time>
      </trkpt>
      <trkpt lat="47.43327" lon="6.22599">
        <ele>273.6</ele>
        <time>2012-08-06T15:51:43Z</time>
      </trkpt>
      <trkpt lat="47.43322" lon="6.22624">
        <ele>273.2</ele>
        <time>2012-08-06T15:51:46Z</time>
      </trkpt>
      <trkpt lat="47.43315" lon="6.22652">
        <ele>273</ele>
        <time>2012-08-06T15:51:50Z</time>
      </trkpt>
      <trkpt lat="47.43311" lon="6.22683">
        <ele>272.6</ele>
        <time>2012-08-06T15:51:55Z</time>
      </trkpt>
      <trkpt lat="47.43308" lon="6.22713">
        <ele>272.5</ele>
        <time>2012-08-06T15:52:03Z</time>
      </trkpt>
      <trkpt lat="47.43308" lon="6.22717">
        <ele>272.5</ele>
        <time>2012-08-06T15:52:04Z</time>
      </trkpt>
      <trkpt lat="47.43303" lon="6.22773">
        <ele>272.2</ele>
        <time>2012-08-06T15:52:19Z</time>
      </trkpt>
      <trkpt lat="47.43301" lon="6.22805">
        <ele>272.1</ele>
        <time>2012-08-06T15:52:28Z</time>
      </trkpt>
      <trkpt lat="47.433" lon="6.22836">
        <ele>272.1</ele>
        <time>2012-08-06T15:52:36Z</time>
      </trkpt>
      <trkpt lat="47.43299" lon="6.22868">
        <ele>272.1</ele>
        <time>2012-08-06T15:52:45Z</time>
      </trkpt>
      <trkpt lat="47.43299" lon="6.22897">
        <ele>272</ele>
        <time>2012-08-06T15:52:53Z</time>
      </trkpt>
      <trkpt lat="47.43296" lon="6.22927">
        <ele>272.1</ele>
        <time>2012-08-06T15:53:01Z</time>
      </trkpt>
      <trkpt lat="47.43294" lon="6.22958">
        <ele>272.1</ele>
        <time>2012-08-06T15:53:09Z</time>
      </trkpt>
      <trkpt lat="47.43294" lon="6.22962">
        <ele>272.1</ele>
        <time>2012-08-06T15:53:10Z</time>
      </trkpt>
      <trkpt lat="47.43291" lon="6.23021">
        <ele>272.2</ele>
        <time>2012-08-06T15:53:25Z</time>
      </trkpt>
      <trkpt lat="47.4329" lon="6.23051">
        <ele>272.6</ele>
        <time>2012-08-06T15:53:32Z</time>
      </trkpt>
      <trkpt lat="47.43288" lon="6.2308">
        <ele>272.7</ele>
        <time>2012-08-06T15:53:38Z</time>
      </trkpt>
      <trkpt lat="47.43287" lon="6.23109">
        <ele>272.7</ele>
        <time>2012-08-06T15:53:44Z</time>
      </trkpt>
      <trkpt lat="47.43285" lon="6.23142">
        <ele>273</ele>
        <time>2012-08-06T15:53:51Z</time>
      </trkpt>
      <trkpt lat="47.43283" lon="6.23174">
        <ele>273.2</ele>
        <time>2012-08-06T15:53:58Z</time>
      </trkpt>
      <trkpt lat="47.43281" lon="6.23205">
        <ele>273.5</ele>
        <time>2012-08-06T15:54:05Z</time>
      </trkpt>
      <trkpt lat="47.4328" lon="6.23236">
        <ele>273.7</ele>
        <time>2012-08-06T15:54:11Z</time>
      </trkpt>
      <trkpt lat="47.43279" lon="6.23241">
        <ele>273.7</ele>
        <time>2012-08-06T15:54:12Z</time>
      </trkpt>
      <trkpt lat="47.43272" lon="6.23297">
        <ele>275</ele>
        <time>2012-08-06T15:54:22Z</time>
      </trkpt>
      <trkpt lat="47.43269" lon="6.23324">
        <ele>275.2</ele>
        <time>2012-08-06T15:54:26Z</time>
      </trkpt>
      <trkpt lat="47.43265" lon="6.23354">
        <ele>275.2</ele>
        <time>2012-08-06T15:54:31Z</time>
      </trkpt>
      <trkpt lat="47.4325" lon="6.23378">
        <ele>275.2</ele>
        <time>2012-08-06T15:54:39Z</time>
      </trkpt>
      <trkpt lat="47.43231" lon="6.23368">
        <ele>274</ele>
        <time>2012-08-06T15:54:44Z</time>
      </trkpt>
      <trkpt lat="47.43211" lon="6.23358">
        <ele>271.7</ele>
        <time>2012-08-06T15:54:48Z</time>
      </trkpt>
      <trkpt lat="47.43193" lon="6.2335">
        <ele>271.2</ele>
        <time>2012-08-06T15:54:52Z</time>
      </trkpt>
      <trkpt lat="47.43171" lon="6.23341">
        <ele>271</ele>
        <time>2012-08-06T15:54:57Z</time>
      </trkpt>
      <trkpt lat="47.43151" lon="6.23334">
        <ele>270.5</ele>
        <time>2012-08-06T15:55:02Z</time>
      </trkpt>
      <trkpt lat="47.43131" lon="6.23329">
        <ele>270</ele>
        <time>2012-08-06T15:55:07Z</time>
      </trkpt>
      <trkpt lat="47.43111" lon="6.23325">
        <ele>269.7</ele>
        <time>2012-08-06T15:55:13Z</time>
      </trkpt>
      <trkpt lat="47.43108" lon="6.23325">
        <ele>269.7</ele>
        <time>2012-08-06T15:55:14Z</time>
      </trkpt>
      <trkpt lat="47.43075" lon="6.23303">
        <ele>269.2</ele>
        <time>2012-08-06T15:55:24Z</time>
      </trkpt>
      <trkpt lat="47.43057" lon="6.23289">
        <ele>269</ele>
        <time>2012-08-06T15:55:29Z</time>
      </trkpt>
      <trkpt lat="47.43039" lon="6.23277">
        <ele>268.7</ele>
        <time>2012-08-06T15:55:34Z</time>
      </trkpt>
      <trkpt lat="47.43022" lon="6.23265">
        <ele>268.7</ele>
        <time>2012-08-06T15:55:39Z</time>
      </trkpt>
      <trkpt lat="47.43002" lon="6.23251">
        <ele>268.7</ele>
        <time>2012-08-06T15:55:45Z</time>
      </trkpt>
      <trkpt lat="47.42982" lon="6.23238">
        <ele>269.7</ele>
        <time>2012-08-06T15:55:50Z</time>
      </trkpt>
      <trkpt lat="47.42961" lon="6.23228">
        <ele>270.2</ele>
        <time>2012-08-06T15:55:55Z</time>
      </trkpt>
      <trkpt lat="47.42942" lon="6.23222">
        <ele>272.2</ele>
        <time>2012-08-06T15:55:59Z</time>
      </trkpt>
      <trkpt lat="47.42922" lon="6.23219">
        <ele>272.6</ele>
        <time>2012-08-06T15:56:03Z</time>
      </trkpt>
      <trkpt lat="47.42902" lon="6.2322">
        <ele>272.7</ele>
        <time>2012-08-06T15:56:07Z</time>
      </trkpt>
      <trkpt lat="47.42882" lon="6.23223">
        <ele>272.7</ele>
        <time>2012-08-06T15:56:11Z</time>
      </trkpt>
      <trkpt lat="47.42864" lon="6.23226">
        <ele>272.2</ele>
        <time>2012-08-06T15:56:15Z</time>
      </trkpt>
      <trkpt lat="47.42859" lon="6.23226">
        <ele>272.2</ele>
        <time>2012-08-06T15:56:16Z</time>
      </trkpt>
      <trkpt lat="47.42821" lon="6.23233">
        <ele>271.1</ele>
        <time>2012-08-06T15:56:25Z</time>
      </trkpt>
      <trkpt lat="47.42801" lon="6.23236">
        <ele>271</ele>
        <time>2012-08-06T15:56:31Z</time>
      </trkpt>
      <trkpt lat="47.42781" lon="6.23237">
        <ele>271</ele>
        <time>2012-08-06T15:56:38Z</time>
      </trkpt>
      <trkpt lat="47.42762" lon="6.23239">
        <ele>270.7</ele>
        <time>2012-08-06T15:56:45Z</time>
      </trkpt>
      <trkpt lat="47.42742" lon="6.23241">
        <ele>270.7</ele>
        <time>2012-08-06T15:56:51Z</time>
      </trkpt>
      <trkpt lat="47.42721" lon="6.23244">
        <ele>270.7</ele>
        <time>2012-08-06T15:56:57Z</time>
      </trkpt>
      <trkpt lat="47.427" lon="6.23245">
        <ele>270.6</ele>
        <time>2012-08-06T15:57:03Z</time>
      </trkpt>
      <trkpt lat="47.4268" lon="6.23244">
        <ele>270.5</ele>
        <time>2012-08-06T15:57:09Z</time>
      </trkpt>
      <trkpt lat="47.4266" lon="6.23247">
        <ele>270.2</ele>
        <time>2012-08-06T15:57:15Z</time>
      </trkpt>
      <trkpt lat="47.42638" lon="6.2325">
        <ele>270.2</ele>
        <time>2012-08-06T15:57:22Z</time>
      </trkpt>
      <trkpt lat="47.42635" lon="6.23251">
        <ele>270.2</ele>
        <time>2012-08-06T15:57:23Z</time>
      </trkpt>
      <trkpt lat="47.42599" lon="6.23263">
        <ele>270</ele>
        <time>2012-08-06T15:57:33Z</time>
      </trkpt>
      <trkpt lat="47.42579" lon="6.23272">
        <ele>269.7</ele>
        <time>2012-08-06T15:57:39Z</time>
      </trkpt>
      <trkpt lat="47.42558" lon="6.23282">
        <ele>269.7</ele>
        <time>2012-08-06T15:57:45Z</time>
      </trkpt>
      <trkpt lat="47.42539" lon="6.23292">
        <ele>269.7</ele>
        <time>2012-08-06T15:57:51Z</time>
      </trkpt>
      <trkpt lat="47.42519" lon="6.23306">
        <ele>269.5</ele>
        <time>2012-08-06T15:57:58Z</time>
      </trkpt>
      <trkpt lat="47.42501" lon="6.23323">
        <ele>269</ele>
        <time>2012-08-06T15:58:06Z</time>
      </trkpt>
      <trkpt lat="47.42484" lon="6.23341">
        <ele>268.2</ele>
        <time>2012-08-06T15:58:14Z</time>
      </trkpt>
      <trkpt lat="47.42466" lon="6.23357">
        <ele>267.6</ele>
        <time>2012-08-06T15:58:23Z</time>
      </trkpt>
      <trkpt lat="47.42464" lon="6.23358">
        <ele>267.5</ele>
        <time>2012-08-06T15:58:24Z</time>
      </trkpt>
      <trkpt lat="47.42427" lon="6.23375">
        <ele>267.1</ele>
        <time>2012-08-06T15:58:42Z</time>
      </trkpt>
      <trkpt lat="47.42406" lon="6.23372">
        <ele>267</ele>
        <time>2012-08-06T15:58:53Z</time>
      </trkpt>
      <trkpt lat="47.42385" lon="6.23369">
        <ele>266.7</ele>
        <time>2012-08-06T15:59:02Z</time>
      </trkpt>
      <trkpt lat="47.42363" lon="6.23368">
        <ele>266.7</ele>
        <time>2012-08-06T15:59:10Z</time>
      </trkpt>
      <trkpt lat="47.42342" lon="6.23366">
        <ele>266.7</ele>
        <time>2012-08-06T15:59:17Z</time>
      </trkpt>
      <trkpt lat="47.42324" lon="6.23362">
        <ele>267.2</ele>
        <time>2012-08-06T15:59:22Z</time>
      </trkpt>
      <trkpt lat="47.42303" lon="6.23354">
        <ele>268.2</ele>
        <time>2012-08-06T15:59:27Z</time>
      </trkpt>
      <trkpt lat="47.42298" lon="6.23353">
        <ele>268.7</ele>
        <time>2012-08-06T15:59:28Z</time>
      </trkpt>
      <trkpt lat="47.42266" lon="6.23348">
        <ele>269.2</ele>
        <time>2012-08-06T15:59:34Z</time>
      </trkpt>
      <trkpt lat="47.42251" lon="6.23351">
        <ele>268.7</ele>
        <time>2012-08-06T15:59:36Z</time>
      </trkpt>
      <trkpt lat="47.42235" lon="6.23354">
        <ele>268.7</ele>
        <time>2012-08-06T15:59:38Z</time>
      </trkpt>
      <trkpt lat="47.42219" lon="6.23357">
        <ele>269.2</ele>
        <time>2012-08-06T15:59:40Z</time>
      </trkpt>
      <trkpt lat="47.42198" lon="6.23364">
        <ele>270.2</ele>
        <time>2012-08-06T15:59:43Z</time>
      </trkpt>
      <trkpt lat="47.4218" lon="6.23372">
        <ele>270.6</ele>
        <time>2012-08-06T15:59:46Z</time>
      </trkpt>
      <trkpt lat="47.4216" lon="6.23382">
        <ele>270.6</ele>
        <time>2012-08-06T15:59:50Z</time>
      </trkpt>
      <trkpt lat="47.42141" lon="6.23393">
        <ele>270.2</ele>
        <time>2012-08-06T15:59:55Z</time>
      </trkpt>
      <trkpt lat="47.42123" lon="6.23402">
        <ele>269.7</ele>
        <time>2012-08-06T16:00:00Z</time>
      </trkpt>
      <trkpt lat="47.42104" lon="6.23413">
        <ele>269.6</ele>
        <time>2012-08-06T16:00:05Z</time>
      </trkpt>
      <trkpt lat="47.42084" lon="6.23424">
        <ele>269.2</ele>
        <time>2012-08-06T16:00:10Z</time>
      </trkpt>
      <trkpt lat="47.42064" lon="6.23433">
        <ele>269.2</ele>
        <time>2012-08-06T16:00:15Z</time>
      </trkpt>
      <trkpt lat="47.42044" lon="6.23443">
        <ele>269.2</ele>
        <time>2012-08-06T16:00:20Z</time>
      </trkpt>
      <trkpt lat="47.42024" lon="6.23457">
        <ele>269.2</ele>
        <time>2012-08-06T16:00:25Z</time>
      </trkpt>
      <trkpt lat="47.42008" lon="6.23469">
        <ele>268.7</ele>
        <time>2012-08-06T16:00:29Z</time>
      </trkpt>
      <trkpt lat="47.42003" lon="6.23473">
        <ele>268.7</ele>
        <time>2012-08-06T16:00:30Z</time>
      </trkpt>
      <trkpt lat="47.41974" lon="6.23502">
        <ele>268</ele>
        <time>2012-08-06T16:00:36Z</time>
      </trkpt>
      <trkpt lat="47.41956" lon="6.23514">
        <ele>268.1</ele>
        <time>2012-08-06T16:00:39Z</time>
      </trkpt>
      <trkpt lat="47.41935" lon="6.23515">
        <ele>268.2</ele>
        <time>2012-08-06T16:00:42Z</time>
      </trkpt>
      <trkpt lat="47.41914" lon="6.23509">
        <ele>268</ele>
        <time>2012-08-06T16:00:45Z</time>
      </trkpt>
      <trkpt lat="47.41892" lon="6.23503">
        <ele>267.6</ele>
        <time>2012-08-06T16:00:48Z</time>
      </trkpt>
      <trkpt lat="47.41872" lon="6.23496">
        <ele>266.7</ele>
        <time>2012-08-06T16:00:51Z</time>
      </trkpt>
      <trkpt lat="47.41854" lon="6.23489">
        <ele>265.6</ele>
        <time>2012-08-06T16:00:54Z</time>
      </trkpt>
      <trkpt lat="47.41832" lon="6.23482">
        <ele>264.7</ele>
        <time>2012-08-06T16:01:00Z</time>
      </trkpt>
      <trkpt lat="47.41815" lon="6.23498">
        <ele>263</ele>
        <time>2012-08-06T16:01:05Z</time>
      </trkpt>
      <trkpt lat="47.41798" lon="6.23518">
        <ele>261.7</ele>
        <time>2012-08-06T16:01:09Z</time>
      </trkpt>
      <trkpt lat="47.41783" lon="6.23533">
        <ele>260.7</ele>
        <time>2012-08-06T16:01:12Z</time>
      </trkpt>
      <trkpt lat="47.41767" lon="6.23548">
        <ele>259.7</ele>
        <time>2012-08-06T16:01:15Z</time>
      </trkpt>
      <trkpt lat="47.41751" lon="6.23562">
        <ele>259</ele>
        <time>2012-08-06T16:01:18Z</time>
      </trkpt>
      <trkpt lat="47.41736" lon="6.23574">
        <ele>257.7</ele>
        <time>2012-08-06T16:01:21Z</time>
      </trkpt>
      <trkpt lat="47.41716" lon="6.23589">
        <ele>255.8</ele>
        <time>2012-08-06T16:01:25Z</time>
      </trkpt>
      <trkpt lat="47.41704" lon="6.23611">
        <ele>254</ele>
        <time>2012-08-06T16:01:29Z</time>
      </trkpt>
      <trkpt lat="47.41707" lon="6.23644">
        <ele>252.1</ele>
        <time>2012-08-06T16:01:34Z</time>
      </trkpt>
      <trkpt lat="47.41709" lon="6.2365">
        <ele>252</ele>
        <time>2012-08-06T16:01:35Z</time>
      </trkpt>
      <trkpt lat="47.4172" lon="6.23704">
        <ele>250.8</ele>
        <time>2012-08-06T16:01:43Z</time>
      </trkpt>
      <trkpt lat="47.41727" lon="6.23736">
        <ele>250.5</ele>
        <time>2012-08-06T16:01:47Z</time>
      </trkpt>
      <trkpt lat="47.41732" lon="6.23762">
        <ele>250.3</ele>
        <time>2012-08-06T16:01:50Z</time>
      </trkpt>
      <trkpt lat="47.41739" lon="6.2379">
        <ele>250.1</ele>
        <time>2012-08-06T16:01:53Z</time>
      </trkpt>
      <trkpt lat="47.41746" lon="6.23821">
        <ele>249.5</ele>
        <time>2012-08-06T16:01:56Z</time>
      </trkpt>
      <trkpt lat="47.41752" lon="6.23844">
        <ele>249.1</ele>
        <time>2012-08-06T16:01:58Z</time>
      </trkpt>
      <trkpt lat="47.41758" lon="6.23868">
        <ele>248.8</ele>
        <time>2012-08-06T16:02:00Z</time>
      </trkpt>
      <trkpt lat="47.41764" lon="6.23893">
        <ele>248.6</ele>
        <time>2012-08-06T16:02:02Z</time>
      </trkpt>
      <trkpt lat="47.41769" lon="6.23918">
        <ele>248.3</ele>
        <time>2012-08-06T16:02:04Z</time>
      </trkpt>
      <trkpt lat="47.41774" lon="6.2394">
        <ele>248.3</ele>
        <time>2012-08-06T16:02:06Z</time>
      </trkpt>
      <trkpt lat="47.41781" lon="6.23972">
        <ele>248.1</ele>
        <time>2012-08-06T16:02:09Z</time>
      </trkpt>
      <trkpt lat="47.41786" lon="6.24">
        <ele>247.8</ele>
        <time>2012-08-06T16:02:12Z</time>
      </trkpt>
      <trkpt lat="47.41792" lon="6.24025">
        <ele>247.3</ele>
        <time>2012-08-06T16:02:15Z</time>
      </trkpt>
      <trkpt lat="47.41798" lon="6.24055">
        <ele>246.6</ele>
        <time>2012-08-06T16:02:19Z</time>
      </trkpt>
      <trkpt lat="47.41805" lon="6.24084">
        <ele>246.1</ele>
        <time>2012-08-06T16:02:23Z</time>
      </trkpt>
      <trkpt lat="47.41811" lon="6.2411">
        <ele>245.6</ele>
        <time>2012-08-06T16:02:27Z</time>
      </trkpt>
      <trkpt lat="47.41818" lon="6.24141">
        <ele>245.3</ele>
        <time>2012-08-06T16:02:33Z</time>
      </trkpt>
      <trkpt lat="47.41824" lon="6.24171">
        <ele>245.3</ele>
        <time>2012-08-06T16:02:40Z</time>
      </trkpt>
      <trkpt lat="47.41825" lon="6.24176">
        <ele>245.3</ele>
        <time>2012-08-06T16:02:41Z</time>
      </trkpt>
      <trkpt lat="47.41835" lon="6.24233">
        <ele>244.5</ele>
        <time>2012-08-06T16:02:51Z</time>
      </trkpt>
      <trkpt lat="47.4184" lon="6.24257">
        <ele>243.6</ele>
        <time>2012-08-06T16:02:54Z</time>
      </trkpt>
      <trkpt lat="47.41846" lon="6.24284">
        <ele>242.3</ele>
        <time>2012-08-06T16:02:57Z</time>
      </trkpt>
      <trkpt lat="47.41852" lon="6.2431">
        <ele>241.1</ele>
        <time>2012-08-06T16:03:00Z</time>
      </trkpt>
      <trkpt lat="47.41856" lon="6.24338">
        <ele>240.3</ele>
        <time>2012-08-06T16:03:04Z</time>
      </trkpt>
      <trkpt lat="47.4185" lon="6.24367">
        <ele>240.3</ele>
        <time>2012-08-06T16:03:10Z</time>
      </trkpt>
      <trkpt lat="47.41835" lon="6.24385">
        <ele>240.3</ele>
        <time>2012-08-06T16:03:16Z</time>
      </trkpt>
      <trkpt lat="47.41816" lon="6.24403">
        <ele>240.6</ele>
        <time>2012-08-06T16:03:22Z</time>
      </trkpt>
      <trkpt lat="47.41799" lon="6.24419">
        <ele>241.1</ele>
        <time>2012-08-06T16:03:27Z</time>
      </trkpt>
      <trkpt lat="47.41782" lon="6.24432">
        <ele>241.3</ele>
        <time>2012-08-06T16:03:32Z</time>
      </trkpt>
      <trkpt lat="47.41764" lon="6.24445">
        <ele>241.3</ele>
        <time>2012-08-06T16:03:38Z</time>
      </trkpt>
      <trkpt lat="47.41747" lon="6.24462">
        <ele>241.3</ele>
        <time>2012-08-06T16:03:46Z</time>
      </trkpt>
      <trkpt lat="47.41745" lon="6.24464">
        <ele>241.3</ele>
        <time>2012-08-06T16:03:47Z</time>
      </trkpt>
      <trkpt lat="47.41717" lon="6.24507">
        <ele>242.1</ele>
        <time>2012-08-06T16:04:05Z</time>
      </trkpt>
      <trkpt lat="47.41699" lon="6.24524">
        <ele>243.8</ele>
        <time>2012-08-06T16:04:32Z</time>
      </trkpt>
      <trkpt lat="47.41694" lon="6.24556">
        <ele>244.1</ele>
        <time>2012-08-06T16:04:42Z</time>
      </trkpt>
      <trkpt lat="47.41684" lon="6.24585">
        <ele>244.1</ele>
        <time>2012-08-06T16:04:53Z</time>
      </trkpt>
      <trkpt lat="47.41682" lon="6.24587">
        <ele>244.1</ele>
        <time>2012-08-06T16:04:54Z</time>
      </trkpt>
      <trkpt lat="47.41645" lon="6.2461">
        <ele>244.3</ele>
        <time>2012-08-06T16:05:12Z</time>
      </trkpt>
      <trkpt lat="47.41626" lon="6.24625">
        <ele>244.8</ele>
        <time>2012-08-06T16:05:23Z</time>
      </trkpt>
      <trkpt lat="47.41621" lon="6.24656">
        <ele>245.3</ele>
        <time>2012-08-06T16:05:33Z</time>
      </trkpt>
      <trkpt lat="47.41622" lon="6.24688">
        <ele>246</ele>
        <time>2012-08-06T16:05:43Z</time>
      </trkpt>
      <trkpt lat="47.41624" lon="6.24721">
        <ele>247</ele>
        <time>2012-08-06T16:05:54Z</time>
      </trkpt>
      <trkpt lat="47.41624" lon="6.24724">
        <ele>247.1</ele>
        <time>2012-08-06T16:05:55Z</time>
      </trkpt>
      <trkpt lat="47.41631" lon="6.24783">
        <ele>249</ele>
        <time>2012-08-06T16:06:16Z</time>
      </trkpt>
      <trkpt lat="47.4164" lon="6.2481">
        <ele>249.8</ele>
        <time>2012-08-06T16:06:26Z</time>
      </trkpt>
      <trkpt lat="47.41645" lon="6.24841">
        <ele>251.1</ele>
        <time>2012-08-06T16:06:36Z</time>
      </trkpt>
      <trkpt lat="47.41642" lon="6.24873">
        <ele>252.3</ele>
        <time>2012-08-06T16:06:47Z</time>
      </trkpt>
      <trkpt lat="47.4164" lon="6.24902">
        <ele>254.1</ele>
        <time>2012-08-06T16:06:57Z</time>
      </trkpt>
      <trkpt lat="47.4164" lon="6.24906">
        <ele>254.1</ele>
        <time>2012-08-06T16:06:58Z</time>
      </trkpt>
      <trkpt lat="47.41634" lon="6.24967">
        <ele>257.5</ele>
        <time>2012-08-06T16:07:17Z</time>
      </trkpt>
      <trkpt lat="47.41628" lon="6.24997">
        <ele>258.7</ele>
        <time>2012-08-06T16:07:27Z</time>
      </trkpt>
      <trkpt lat="47.41625" lon="6.25029">
        <ele>259.7</ele>
        <time>2012-08-06T16:07:37Z</time>
      </trkpt>
      <trkpt lat="47.41624" lon="6.2506">
        <ele>260.2</ele>
        <time>2012-08-06T16:07:47Z</time>
      </trkpt>
      <trkpt lat="47.41623" lon="6.25092">
        <ele>260.2</ele>
        <time>2012-08-06T16:07:58Z</time>
      </trkpt>
      <trkpt lat="47.41617" lon="6.25122">
        <ele>260.5</ele>
        <time>2012-08-06T16:08:09Z</time>
      </trkpt>
      <trkpt lat="47.41616" lon="6.25125">
        <ele>260.7</ele>
        <time>2012-08-06T16:08:10Z</time>
      </trkpt>
      <trkpt lat="47.41603" lon="6.25181">
        <ele>264.2</ele>
        <time>2012-08-06T16:08:28Z</time>
      </trkpt>
      <trkpt lat="47.41594" lon="6.25211">
        <ele>266.7</ele>
        <time>2012-08-06T16:08:39Z</time>
      </trkpt>
      <trkpt lat="47.41583" lon="6.25239">
        <ele>268.6</ele>
        <time>2012-08-06T16:08:50Z</time>
      </trkpt>
      <trkpt lat="47.41579" lon="6.2527">
        <ele>269.6</ele>
        <time>2012-08-06T16:09:00Z</time>
      </trkpt>
      <trkpt lat="47.41569" lon="6.25297">
        <ele>270.7</ele>
        <time>2012-08-06T16:09:08Z</time>
      </trkpt>
      <trkpt lat="47.41558" lon="6.25323">
        <ele>271.7</ele>
        <time>2012-08-06T16:09:16Z</time>
      </trkpt>
      <trkpt lat="47.41557" lon="6.25326">
        <ele>272.1</ele>
        <time>2012-08-06T16:09:17Z</time>
      </trkpt>
      <trkpt lat="47.4154" lon="6.25381">
        <ele>274.7</ele>
        <time>2012-08-06T16:09:36Z</time>
      </trkpt>
      <trkpt lat="47.41531" lon="6.2541">
        <ele>275.2</ele>
        <time>2012-08-06T16:09:45Z</time>
      </trkpt>
      <trkpt lat="47.41522" lon="6.2544">
        <ele>279</ele>
        <time>2012-08-06T16:12:01Z</time>
      </trkpt>
      <trkpt lat="47.41521" lon="6.25442">
        <ele>279.1</ele>
        <time>2012-08-06T16:12:02Z</time>
      </trkpt>
      <trkpt lat="47.41504" lon="6.25497">
        <ele>281.7</ele>
        <time>2012-08-06T16:12:21Z</time>
      </trkpt>
      <trkpt lat="47.41496" lon="6.25526">
        <ele>282.7</ele>
        <time>2012-08-06T16:12:30Z</time>
      </trkpt>
      <trkpt lat="47.41488" lon="6.25555">
        <ele>283.5</ele>
        <time>2012-08-06T16:12:39Z</time>
      </trkpt>
      <trkpt lat="47.41479" lon="6.25584">
        <ele>284</ele>
        <time>2012-08-06T16:12:48Z</time>
      </trkpt>
      <trkpt lat="47.41471" lon="6.25611">
        <ele>284.6</ele>
        <time>2012-08-06T16:12:57Z</time>
      </trkpt>
      <trkpt lat="47.41464" lon="6.2564">
        <ele>285</ele>
        <time>2012-08-06T16:13:06Z</time>
      </trkpt>
      <trkpt lat="47.41463" lon="6.25643">
        <ele>285</ele>
        <time>2012-08-06T16:13:07Z</time>
      </trkpt>
      <trkpt lat="47.41448" lon="6.25699">
        <ele>285.6</ele>
        <time>2012-08-06T16:13:26Z</time>
      </trkpt>
      <trkpt lat="47.41436" lon="6.25725">
        <ele>285.2</ele>
        <time>2012-08-06T16:13:37Z</time>
      </trkpt>
      <trkpt lat="47.4142" lon="6.25745">
        <ele>284.2</ele>
        <time>2012-08-06T16:13:51Z</time>
      </trkpt>
      <trkpt lat="47.41402" lon="6.25762">
        <ele>283.7</ele>
        <time>2012-08-06T16:14:00Z</time>
      </trkpt>
      <trkpt lat="47.41385" lon="6.25776">
        <ele>283.5</ele>
        <time>2012-08-06T16:14:07Z</time>
      </trkpt>
      <trkpt lat="47.41371" lon="6.25796">
        <ele>282.7</ele>
        <time>2012-08-06T16:14:13Z</time>
      </trkpt>
      <trkpt lat="47.41369" lon="6.258">
        <ele>282.5</ele>
        <time>2012-08-06T16:14:14Z</time>
      </trkpt>
      <trkpt lat="47.41352" lon="6.25846">
        <ele>281.5</ele>
        <time>2012-08-06T16:14:23Z</time>
      </trkpt>
      <trkpt lat="47.41342" lon="6.25874">
        <ele>281.2</ele>
        <time>2012-08-06T16:14:29Z</time>
      </trkpt>
      <trkpt lat="47.41332" lon="6.25901">
        <ele>281.2</ele>
        <time>2012-08-06T16:14:35Z</time>
      </trkpt>
      <trkpt lat="47.41321" lon="6.25928">
        <ele>281.6</ele>
        <time>2012-08-06T16:14:41Z</time>
      </trkpt>
      <trkpt lat="47.41311" lon="6.25952">
        <ele>282.6</ele>
        <time>2012-08-06T16:14:45Z</time>
      </trkpt>
      <trkpt lat="47.413" lon="6.25977">
        <ele>283.1</ele>
        <time>2012-08-06T16:14:50Z</time>
      </trkpt>
      <trkpt lat="47.41288" lon="6.26005">
        <ele>283.6</ele>
        <time>2012-08-06T16:14:55Z</time>
      </trkpt>
      <trkpt lat="47.41279" lon="6.26032">
        <ele>284.1</ele>
        <time>2012-08-06T16:15:00Z</time>
      </trkpt>
      <trkpt lat="47.41269" lon="6.26062">
        <ele>284.2</ele>
        <time>2012-08-06T16:15:06Z</time>
      </trkpt>
      <trkpt lat="47.41259" lon="6.26091">
        <ele>284.5</ele>
        <time>2012-08-06T16:15:12Z</time>
      </trkpt>
      <trkpt lat="47.41248" lon="6.2612">
        <ele>284.7</ele>
        <time>2012-08-06T16:15:18Z</time>
      </trkpt>
      <trkpt lat="47.41247" lon="6.26125">
        <ele>284.7</ele>
        <time>2012-08-06T16:15:19Z</time>
      </trkpt>
      <trkpt lat="47.41231" lon="6.26176">
        <ele>283.1</ele>
        <time>2012-08-06T16:15:27Z</time>
      </trkpt>
      <trkpt lat="47.41227" lon="6.26203">
        <ele>283</ele>
        <time>2012-08-06T16:15:30Z</time>
      </trkpt>
      <trkpt lat="47.41217" lon="6.26227">
        <ele>282.7</ele>
        <time>2012-08-06T16:15:33Z</time>
      </trkpt>
      <trkpt lat="47.412" lon="6.26248">
        <ele>282.6</ele>
        <time>2012-08-06T16:15:37Z</time>
      </trkpt>
      <trkpt lat="47.41188" lon="6.26268">
        <ele>282.5</ele>
        <time>2012-08-06T16:15:40Z</time>
      </trkpt>
      <trkpt lat="47.41178" lon="6.26295">
        <ele>282.5</ele>
        <time>2012-08-06T16:15:43Z</time>
      </trkpt>
      <trkpt lat="47.41169" lon="6.26324">
        <ele>283</ele>
        <time>2012-08-06T16:15:46Z</time>
      </trkpt>
      <trkpt lat="47.41161" lon="6.26351">
        <ele>283.7</ele>
        <time>2012-08-06T16:15:49Z</time>
      </trkpt>
      <trkpt lat="47.41155" lon="6.26381">
        <ele>284.2</ele>
        <time>2012-08-06T16:15:53Z</time>
      </trkpt>
      <trkpt lat="47.41154" lon="6.2641">
        <ele>284.7</ele>
        <time>2012-08-06T16:15:58Z</time>
      </trkpt>
      <trkpt lat="47.41153" lon="6.2644">
        <ele>284.7</ele>
        <time>2012-08-06T16:16:04Z</time>
      </trkpt>
      <trkpt lat="47.41152" lon="6.26471">
        <ele>284.7</ele>
        <time>2012-08-06T16:16:11Z</time>
      </trkpt>
      <trkpt lat="47.41149" lon="6.265">
        <ele>284.7</ele>
        <time>2012-08-06T16:16:19Z</time>
      </trkpt>
      <trkpt lat="47.41148" lon="6.26504">
        <ele>284.7</ele>
        <time>2012-08-06T16:16:20Z</time>
      </trkpt>
      <trkpt lat="47.4113" lon="6.26558">
        <ele>284.6</ele>
        <time>2012-08-06T16:16:37Z</time>
      </trkpt>
      <trkpt lat="47.41116" lon="6.26581">
        <ele>284.5</ele>
        <time>2012-08-06T16:16:47Z</time>
      </trkpt>
      <trkpt lat="47.411" lon="6.26602">
        <ele>284.5</ele>
        <time>2012-08-06T16:16:58Z</time>
      </trkpt>
      <trkpt lat="47.41085" lon="6.26624">
        <ele>284.2</ele>
        <time>2012-08-06T16:17:09Z</time>
      </trkpt>
      <trkpt lat="47.41073" lon="6.26651">
        <ele>284.2</ele>
        <time>2012-08-06T16:17:21Z</time>
      </trkpt>
      <trkpt lat="47.41072" lon="6.26653">
        <ele>284.2</ele>
        <time>2012-08-06T16:17:22Z</time>
      </trkpt>
      <trkpt lat="47.41053" lon="6.26706">
        <ele>284.5</ele>
        <time>2012-08-06T16:17:43Z</time>
      </trkpt>
      <trkpt lat="47.41033" lon="6.2672">
        <ele>284.7</ele>
        <time>2012-08-06T16:17:55Z</time>
      </trkpt>
      <trkpt lat="47.41014" lon="6.26735">
        <ele>285.7</ele>
        <time>2012-08-06T16:18:08Z</time>
      </trkpt>
      <trkpt lat="47.41003" lon="6.2671">
        <ele>286.7</ele>
        <time>2012-08-06T16:18:23Z</time>
      </trkpt>
      <trkpt lat="47.41003" lon="6.26705">
        <ele>287</ele>
        <time>2012-08-06T16:18:24Z</time>
      </trkpt>
      <trkpt lat="47.41006" lon="6.26654">
        <ele>291.1</ele>
        <time>2012-08-06T16:18:31Z</time>
      </trkpt>
      <trkpt lat="47.41" lon="6.26628">
        <ele>291.6</ele>
        <time>2012-08-06T16:18:34Z</time>
      </trkpt>
      <trkpt lat="47.4099" lon="6.26605">
        <ele>291.7</ele>
        <time>2012-08-06T16:18:37Z</time>
      </trkpt>
      <trkpt lat="47.40979" lon="6.26584">
        <ele>291.7</ele>
        <time>2012-08-06T16:18:40Z</time>
      </trkpt>
      <trkpt lat="47.40967" lon="6.26562">
        <ele>291.7</ele>
        <time>2012-08-06T16:18:43Z</time>
      </trkpt>
      <trkpt lat="47.40955" lon="6.26542">
        <ele>291.7</ele>
        <time>2012-08-06T16:18:46Z</time>
      </trkpt>
      <trkpt lat="47.40944" lon="6.26521">
        <ele>291.7</ele>
        <time>2012-08-06T16:18:49Z</time>
      </trkpt>
      <trkpt lat="47.40933" lon="6.26499">
        <ele>291.7</ele>
        <time>2012-08-06T16:18:52Z</time>
      </trkpt>
      <trkpt lat="47.40925" lon="6.26475">
        <ele>291.7</ele>
        <time>2012-08-06T16:18:55Z</time>
      </trkpt>
      <trkpt lat="47.40921" lon="6.26449">
        <ele>291.7</ele>
        <time>2012-08-06T16:18:58Z</time>
      </trkpt>
      <trkpt lat="47.40917" lon="6.26421">
        <ele>291.7</ele>
        <time>2012-08-06T16:19:01Z</time>
      </trkpt>
      <trkpt lat="47.40907" lon="6.26395">
        <ele>291.5</ele>
        <time>2012-08-06T16:19:04Z</time>
      </trkpt>
      <trkpt lat="47.40896" lon="6.2637">
        <ele>291.2</ele>
        <time>2012-08-06T16:19:07Z</time>
      </trkpt>
      <trkpt lat="47.40884" lon="6.26345">
        <ele>291.2</ele>
        <time>2012-08-06T16:19:10Z</time>
      </trkpt>
      <trkpt lat="47.40873" lon="6.26319">
        <ele>291.2</ele>
        <time>2012-08-06T16:19:13Z</time>
      </trkpt>
      <trkpt lat="47.4086" lon="6.26293">
        <ele>291.1</ele>
        <time>2012-08-06T16:19:16Z</time>
      </trkpt>
      <trkpt lat="47.40845" lon="6.26274">
        <ele>290.7</ele>
        <time>2012-08-06T16:19:19Z</time>
      </trkpt>
      <trkpt lat="47.40823" lon="6.26268">
        <ele>290</ele>
        <time>2012-08-06T16:19:23Z</time>
      </trkpt>
      <trkpt lat="47.40802" lon="6.26267">
        <ele>289.5</ele>
        <time>2012-08-06T16:19:28Z</time>
      </trkpt>
      <trkpt lat="47.408" lon="6.26266">
        <ele>289.5</ele>
        <time>2012-08-06T16:19:29Z</time>
      </trkpt>
      <trkpt lat="47.40758" lon="6.2626">
        <ele>289</ele>
        <time>2012-08-06T16:19:49Z</time>
      </trkpt>
      <trkpt lat="47.40736" lon="6.26254">
        <ele>288.5</ele>
        <time>2012-08-06T16:20:00Z</time>
      </trkpt>
      <trkpt lat="47.40715" lon="6.26244">
        <ele>288</ele>
        <time>2012-08-06T16:20:11Z</time>
      </trkpt>
      <trkpt lat="47.40694" lon="6.26237">
        <ele>287.2</ele>
        <time>2012-08-06T16:20:23Z</time>
      </trkpt>
      <trkpt lat="47.40673" lon="6.2623">
        <ele>286.6</ele>
        <time>2012-08-06T16:20:35Z</time>
      </trkpt>
      <trkpt lat="47.40671" lon="6.2623">
        <ele>286.5</ele>
        <time>2012-08-06T16:20:36Z</time>
      </trkpt>
      <trkpt lat="47.40629" lon="6.26218">
        <ele>285.7</ele>
        <time>2012-08-06T16:20:58Z</time>
      </trkpt>
      <trkpt lat="47.40607" lon="6.26216">
        <ele>286</ele>
        <time>2012-08-06T16:21:11Z</time>
      </trkpt>
      <trkpt lat="47.40586" lon="6.26211">
        <ele>286.2</ele>
        <time>2012-08-06T16:21:24Z</time>
      </trkpt>
      <trkpt lat="47.40565" lon="6.26206">
        <ele>286.2</ele>
        <time>2012-08-06T16:21:34Z</time>
      </trkpt>
      <trkpt lat="47.40544" lon="6.26214">
        <ele>286.5</ele>
        <time>2012-08-06T16:21:45Z</time>
      </trkpt>
      <trkpt lat="47.40541" lon="6.26217">
        <ele>286.5</ele>
        <time>2012-08-06T16:21:46Z</time>
      </trkpt>
      <trkpt lat="47.4051" lon="6.26246">
        <ele>282.7</ele>
        <time>2012-08-06T16:21:53Z</time>
      </trkpt>
      <trkpt lat="47.40495" lon="6.26267">
        <ele>280.5</ele>
        <time>2012-08-06T16:21:56Z</time>
      </trkpt>
      <trkpt lat="47.40486" lon="6.26285">
        <ele>279.2</ele>
        <time>2012-08-06T16:21:58Z</time>
      </trkpt>
      <trkpt lat="47.40476" lon="6.26304">
        <ele>278.2</ele>
        <time>2012-08-06T16:22:00Z</time>
      </trkpt>
      <trkpt lat="47.40467" lon="6.26324">
        <ele>278</ele>
        <time>2012-08-06T16:22:02Z</time>
      </trkpt>
      <trkpt lat="47.40457" lon="6.26342">
        <ele>277.7</ele>
        <time>2012-08-06T16:22:04Z</time>
      </trkpt>
      <trkpt lat="47.40442" lon="6.26367">
        <ele>277.7</ele>
        <time>2012-08-06T16:22:07Z</time>
      </trkpt>
      <trkpt lat="47.40429" lon="6.26385">
        <ele>278.2</ele>
        <time>2012-08-06T16:22:10Z</time>
      </trkpt>
      <trkpt lat="47.40411" lon="6.26402">
        <ele>278.7</ele>
        <time>2012-08-06T16:22:17Z</time>
      </trkpt>
      <trkpt lat="47.40389" lon="6.26406">
        <ele>279.2</ele>
        <time>2012-08-06T16:22:26Z</time>
      </trkpt>
      <trkpt lat="47.40367" lon="6.26404">
        <ele>279.7</ele>
        <time>2012-08-06T16:22:33Z</time>
      </trkpt>
      <trkpt lat="47.40347" lon="6.26401">
        <ele>280.7</ele>
        <time>2012-08-06T16:22:39Z</time>
      </trkpt>
      <trkpt lat="47.40328" lon="6.26396">
        <ele>282.2</ele>
        <time>2012-08-06T16:22:43Z</time>
      </trkpt>
      <trkpt lat="47.40311" lon="6.26389">
        <ele>282.7</ele>
        <time>2012-08-06T16:22:46Z</time>
      </trkpt>
      <trkpt lat="47.40305" lon="6.26386">
        <ele>282.7</ele>
        <time>2012-08-06T16:22:47Z</time>
      </trkpt>
      <trkpt lat="47.40269" lon="6.26374">
        <ele>282.7</ele>
        <time>2012-08-06T16:22:52Z</time>
      </trkpt>
      <trkpt lat="47.40254" lon="6.26371">
        <ele>282.7</ele>
        <time>2012-08-06T16:22:54Z</time>
      </trkpt>
      <trkpt lat="47.40233" lon="6.26367">
        <ele>282.7</ele>
        <time>2012-08-06T16:22:57Z</time>
      </trkpt>
      <trkpt lat="47.40212" lon="6.26363">
        <ele>282.7</ele>
        <time>2012-08-06T16:23:00Z</time>
      </trkpt>
      <trkpt lat="47.40192" lon="6.26358">
        <ele>282.7</ele>
        <time>2012-08-06T16:23:03Z</time>
      </trkpt>
      <trkpt lat="47.40173" lon="6.26354">
        <ele>282.7</ele>
        <time>2012-08-06T16:23:06Z</time>
      </trkpt>
      <trkpt lat="47.40154" lon="6.2635">
        <ele>282.6</ele>
        <time>2012-08-06T16:23:09Z</time>
      </trkpt>
      <trkpt lat="47.40135" lon="6.26347">
        <ele>282.6</ele>
        <time>2012-08-06T16:23:12Z</time>
      </trkpt>
      <trkpt lat="47.40116" lon="6.26341">
        <ele>282.5</ele>
        <time>2012-08-06T16:23:15Z</time>
      </trkpt>
      <trkpt lat="47.40096" lon="6.26335">
        <ele>282.2</ele>
        <time>2012-08-06T16:23:18Z</time>
      </trkpt>
      <trkpt lat="47.40075" lon="6.26329">
        <ele>282.2</ele>
        <time>2012-08-06T16:23:21Z</time>
      </trkpt>
      <trkpt lat="47.40054" lon="6.26325">
        <ele>281.7</ele>
        <time>2012-08-06T16:23:24Z</time>
      </trkpt>
      <trkpt lat="47.40032" lon="6.26322">
        <ele>281.1</ele>
        <time>2012-08-06T16:23:27Z</time>
      </trkpt>
      <trkpt lat="47.4001" lon="6.26321">
        <ele>280.7</ele>
        <time>2012-08-06T16:23:30Z</time>
      </trkpt>
      <trkpt lat="47.3999" lon="6.26324">
        <ele>280.7</ele>
        <time>2012-08-06T16:23:33Z</time>
      </trkpt>
      <trkpt lat="47.39971" lon="6.26334">
        <ele>280.2</ele>
        <time>2012-08-06T16:23:36Z</time>
      </trkpt>
      <trkpt lat="47.39959" lon="6.26345">
        <ele>279.5</ele>
        <time>2012-08-06T16:23:38Z</time>
      </trkpt>
      <trkpt lat="47.39946" lon="6.26357">
        <ele>278.6</ele>
        <time>2012-08-06T16:23:40Z</time>
      </trkpt>
      <trkpt lat="47.39934" lon="6.2637">
        <ele>277.7</ele>
        <time>2012-08-06T16:23:42Z</time>
      </trkpt>
      <trkpt lat="47.39914" lon="6.26385">
        <ele>277.2</ele>
        <time>2012-08-06T16:23:45Z</time>
      </trkpt>
      <trkpt lat="47.39894" lon="6.2639">
        <ele>276.7</ele>
        <time>2012-08-06T16:23:48Z</time>
      </trkpt>
      <trkpt lat="47.39888" lon="6.26391">
        <ele>276.6</ele>
        <time>2012-08-06T16:23:49Z</time>
      </trkpt>
      <trkpt lat="47.39859" lon="6.26392">
        <ele>275.5</ele>
        <time>2012-08-06T16:23:54Z</time>
      </trkpt>
      <trkpt lat="47.39841" lon="6.26386">
        <ele>274.7</ele>
        <time>2012-08-06T16:23:57Z</time>
      </trkpt>
      <trkpt lat="47.39825" lon="6.26374">
        <ele>274.2</ele>
        <time>2012-08-06T16:24:00Z</time>
      </trkpt>
      <trkpt lat="47.39812" lon="6.26356">
        <ele>273.6</ele>
        <time>2012-08-06T16:24:03Z</time>
      </trkpt>
      <trkpt lat="47.39799" lon="6.26334">
        <ele>272.6</ele>
        <time>2012-08-06T16:24:07Z</time>
      </trkpt>
      <trkpt lat="47.39786" lon="6.26314">
        <ele>272.2</ele>
        <time>2012-08-06T16:24:13Z</time>
      </trkpt>
      <trkpt lat="47.39769" lon="6.26294">
        <ele>268.7</ele>
        <time>2012-08-06T16:24:19Z</time>
      </trkpt>
      <trkpt lat="47.3975" lon="6.26277">
        <ele>267.7</ele>
        <time>2012-08-06T16:24:28Z</time>
      </trkpt>
      <trkpt lat="47.39732" lon="6.26262">
        <ele>266.7</ele>
        <time>2012-08-06T16:24:39Z</time>
      </trkpt>
      <trkpt lat="47.39711" lon="6.2626">
        <ele>265.5</ele>
        <time>2012-08-06T16:24:51Z</time>
      </trkpt>
      <trkpt lat="47.39709" lon="6.26261">
        <ele>265.2</ele>
        <time>2012-08-06T16:24:52Z</time>
      </trkpt>
      <trkpt lat="47.39674" lon="6.2628">
        <ele>264</ele>
        <time>2012-08-06T16:25:23Z</time>
      </trkpt>
      <trkpt lat="47.39673" lon="6.26311">
        <ele>263.7</ele>
        <time>2012-08-06T16:25:34Z</time>
      </trkpt>
      <trkpt lat="47.39665" lon="6.26341">
        <ele>263.7</ele>
        <time>2012-08-06T16:25:45Z</time>
      </trkpt>
      <trkpt lat="47.39657" lon="6.26369">
        <ele>263.7</ele>
        <time>2012-08-06T16:25:55Z</time>
      </trkpt>
      <trkpt lat="47.39656" lon="6.26372">
        <ele>263.7</ele>
        <time>2012-08-06T16:25:56Z</time>
      </trkpt>
      <trkpt lat="47.39644" lon="6.26428">
        <ele>264</ele>
        <time>2012-08-06T16:26:11Z</time>
      </trkpt>
      <trkpt lat="47.3964" lon="6.26457">
        <ele>264.1</ele>
        <time>2012-08-06T16:26:17Z</time>
      </trkpt>
      <trkpt lat="47.39636" lon="6.26488">
        <ele>264.1</ele>
        <time>2012-08-06T16:26:22Z</time>
      </trkpt>
      <trkpt lat="47.39633" lon="6.26516">
        <ele>263.7</ele>
        <time>2012-08-06T16:26:26Z</time>
      </trkpt>
      <trkpt lat="47.39627" lon="6.26542">
        <ele>263.2</ele>
        <time>2012-08-06T16:26:30Z</time>
      </trkpt>
      <trkpt lat="47.39618" lon="6.2657">
        <ele>263.2</ele>
        <time>2012-08-06T16:26:35Z</time>
      </trkpt>
      <trkpt lat="47.39607" lon="6.26596">
        <ele>263.2</ele>
        <time>2012-08-06T16:26:41Z</time>
      </trkpt>
      <trkpt lat="47.39595" lon="6.26623">
        <ele>263.2</ele>
        <time>2012-08-06T16:26:48Z</time>
      </trkpt>
      <trkpt lat="47.39582" lon="6.26648">
        <ele>263.2</ele>
        <time>2012-08-06T16:26:56Z</time>
      </trkpt>
      <trkpt lat="47.3957" lon="6.26675">
        <ele>263.5</ele>
        <time>2012-08-06T16:27:04Z</time>
      </trkpt>
      <trkpt lat="47.39568" lon="6.26678">
        <ele>263.5</ele>
        <time>2012-08-06T16:27:05Z</time>
      </trkpt>
      <trkpt lat="47.39551" lon="6.26729">
        <ele>264</ele>
        <time>2012-08-06T16:27:20Z</time>
      </trkpt>
      <trkpt lat="47.39542" lon="6.26756">
        <ele>264.2</ele>
        <time>2012-08-06T16:27:27Z</time>
      </trkpt>
      <trkpt lat="47.39534" lon="6.26784">
        <ele>264.6</ele>
        <time>2012-08-06T16:27:34Z</time>
      </trkpt>
      <trkpt lat="47.39525" lon="6.26812">
        <ele>265</ele>
        <time>2012-08-06T16:27:41Z</time>
      </trkpt>
      <trkpt lat="47.39517" lon="6.2684">
        <ele>265.2</ele>
        <time>2012-08-06T16:27:48Z</time>
      </trkpt>
      <trkpt lat="47.39509" lon="6.26869">
        <ele>265.7</ele>
        <time>2012-08-06T16:27:55Z</time>
      </trkpt>
      <trkpt lat="47.39502" lon="6.26899">
        <ele>266.2</ele>
        <time>2012-08-06T16:28:03Z</time>
      </trkpt>
      <trkpt lat="47.39495" lon="6.26927">
        <ele>266.7</ele>
        <time>2012-08-06T16:28:09Z</time>
      </trkpt>
      <trkpt lat="47.39494" lon="6.26932">
        <ele>266.7</ele>
        <time>2012-08-06T16:28:10Z</time>
      </trkpt>
      <trkpt lat="47.39479" lon="6.26983">
        <ele>267.6</ele>
        <time>2012-08-06T16:28:22Z</time>
      </trkpt>
      <trkpt lat="47.39468" lon="6.2701">
        <ele>268</ele>
        <time>2012-08-06T16:28:29Z</time>
      </trkpt>
      <trkpt lat="47.39452" lon="6.27031">
        <ele>268.6</ele>
        <time>2012-08-06T16:28:38Z</time>
      </trkpt>
      <trkpt lat="47.39435" lon="6.27047">
        <ele>269.2</ele>
        <time>2012-08-06T16:28:47Z</time>
      </trkpt>
      <trkpt lat="47.39416" lon="6.2706">
        <ele>269.7</ele>
        <time>2012-08-06T16:28:57Z</time>
      </trkpt>
      <trkpt lat="47.39397" lon="6.27074">
        <ele>270.6</ele>
        <time>2012-08-06T16:29:07Z</time>
      </trkpt>
      <trkpt lat="47.39379" lon="6.27089">
        <ele>271.6</ele>
        <time>2012-08-06T16:29:18Z</time>
      </trkpt>
      <trkpt lat="47.39377" lon="6.2709">
        <ele>271.7</ele>
        <time>2012-08-06T16:29:19Z</time>
      </trkpt>
      <trkpt lat="47.39342" lon="6.27119">
        <ele>274</ele>
        <time>2012-08-06T16:29:41Z</time>
      </trkpt>
      <trkpt lat="47.39324" lon="6.27134">
        <ele>275.2</ele>
        <time>2012-08-06T16:29:52Z</time>
      </trkpt>
      <trkpt lat="47.39307" lon="6.27155">
        <ele>276.2</ele>
        <time>2012-08-06T16:30:03Z</time>
      </trkpt>
      <trkpt lat="47.39294" lon="6.2718">
        <ele>277.2</ele>
        <time>2012-08-06T16:30:14Z</time>
      </trkpt>
      <trkpt lat="47.39285" lon="6.27208">
        <ele>278.5</ele>
        <time>2012-08-06T16:30:26Z</time>
      </trkpt>
      <trkpt lat="47.39284" lon="6.27211">
        <ele>278.5</ele>
        <time>2012-08-06T16:30:27Z</time>
      </trkpt>
      <trkpt lat="47.39262" lon="6.27262">
        <ele>280.2</ele>
        <time>2012-08-06T16:30:51Z</time>
      </trkpt>
      <trkpt lat="47.39247" lon="6.27285">
        <ele>281</ele>
        <time>2012-08-06T16:31:05Z</time>
      </trkpt>
      <trkpt lat="47.3923" lon="6.27306">
        <ele>281.6</ele>
        <time>2012-08-06T16:31:17Z</time>
      </trkpt>
      <trkpt lat="47.39212" lon="6.27323">
        <ele>282.2</ele>
        <time>2012-08-06T16:31:29Z</time>
      </trkpt>
      <trkpt lat="47.39211" lon="6.27324">
        <ele>282.2</ele>
        <time>2012-08-06T16:31:30Z</time>
      </trkpt>
      <trkpt lat="47.39171" lon="6.27342">
        <ele>283.7</ele>
        <time>2012-08-06T16:31:53Z</time>
      </trkpt>
      <trkpt lat="47.39149" lon="6.27346">
        <ele>284.2</ele>
        <time>2012-08-06T16:32:05Z</time>
      </trkpt>
      <trkpt lat="47.39127" lon="6.27347">
        <ele>284.7</ele>
        <time>2012-08-06T16:32:16Z</time>
      </trkpt>
      <trkpt lat="47.39106" lon="6.27347">
        <ele>285.2</ele>
        <time>2012-08-06T16:32:27Z</time>
      </trkpt>
      <trkpt lat="47.39085" lon="6.27347">
        <ele>286.7</ele>
        <time>2012-08-06T16:32:38Z</time>
      </trkpt>
      <trkpt lat="47.39082" lon="6.27347">
        <ele>286.7</ele>
        <time>2012-08-06T16:32:39Z</time>
      </trkpt>
      <trkpt lat="47.39043" lon="6.27342">
        <ele>291.5</ele>
        <time>2012-08-06T16:32:58Z</time>
      </trkpt>
      <trkpt lat="47.39021" lon="6.27345">
        <ele>294</ele>
        <time>2012-08-06T16:33:08Z</time>
      </trkpt>
      <trkpt lat="47.39" lon="6.27352">
        <ele>296.2</ele>
        <time>2012-08-06T16:33:17Z</time>
      </trkpt>
      <trkpt lat="47.3898" lon="6.27365">
        <ele>298.6</ele>
        <time>2012-08-06T16:33:28Z</time>
      </trkpt>
      <trkpt lat="47.38962" lon="6.27382">
        <ele>300.5</ele>
        <time>2012-08-06T16:33:38Z</time>
      </trkpt>
      <trkpt lat="47.38943" lon="6.27396">
        <ele>302.2</ele>
        <time>2012-08-06T16:33:48Z</time>
      </trkpt>
      <trkpt lat="47.38941" lon="6.27397">
        <ele>302.5</ele>
        <time>2012-08-06T16:33:49Z</time>
      </trkpt>
      <trkpt lat="47.38903" lon="6.27417">
        <ele>305.2</ele>
        <time>2012-08-06T16:34:08Z</time>
      </trkpt>
      <trkpt lat="47.38881" lon="6.27423">
        <ele>306.7</ele>
        <time>2012-08-06T16:34:18Z</time>
      </trkpt>
      <trkpt lat="47.38859" lon="6.27425">
        <ele>308.1</ele>
        <time>2012-08-06T16:34:28Z</time>
      </trkpt>
      <trkpt lat="47.38837" lon="6.27428">
        <ele>309.2</ele>
        <time>2012-08-06T16:34:38Z</time>
      </trkpt>
      <trkpt lat="47.38814" lon="6.27432">
        <ele>310.2</ele>
        <time>2012-08-06T16:34:48Z</time>
      </trkpt>
      <trkpt lat="47.38793" lon="6.27438">
        <ele>311.1</ele>
        <time>2012-08-06T16:34:56Z</time>
      </trkpt>
      <trkpt lat="47.38791" lon="6.27439">
        <ele>311.2</ele>
        <time>2012-08-06T16:34:57Z</time>
      </trkpt>
      <trkpt lat="47.3875" lon="6.27447">
        <ele>312.5</ele>
        <time>2012-08-06T16:35:15Z</time>
      </trkpt>
      <trkpt lat="47.3873" lon="6.27446">
        <ele>313.1</ele>
        <time>2012-08-06T16:35:23Z</time>
      </trkpt>
      <trkpt lat="47.38709" lon="6.27445">
        <ele>313.5</ele>
        <time>2012-08-06T16:35:31Z</time>
      </trkpt>
      <trkpt lat="47.38688" lon="6.27443">
        <ele>314</ele>
        <time>2012-08-06T16:35:39Z</time>
      </trkpt>
      <trkpt lat="47.38667" lon="6.27443">
        <ele>314.2</ele>
        <time>2012-08-06T16:35:45Z</time>
      </trkpt>
      <trkpt lat="47.38645" lon="6.27441">
        <ele>314.6</ele>
        <time>2012-08-06T16:35:52Z</time>
      </trkpt>
      <trkpt lat="47.38624" lon="6.27438">
        <ele>314.7</ele>
        <time>2012-08-06T16:35:59Z</time>
      </trkpt>
      <trkpt lat="47.38621" lon="6.27438">
        <ele>314.7</ele>
        <time>2012-08-06T16:36:00Z</time>
      </trkpt>
      <trkpt lat="47.38581" lon="6.27438">
        <ele>315.5</ele>
        <time>2012-08-06T16:36:13Z</time>
      </trkpt>
      <trkpt lat="47.3856" lon="6.2744">
        <ele>315.7</ele>
        <time>2012-08-06T16:36:20Z</time>
      </trkpt>
      <trkpt lat="47.38539" lon="6.27442">
        <ele>316</ele>
        <time>2012-08-06T16:36:27Z</time>
      </trkpt>
      <trkpt lat="47.38518" lon="6.27444">
        <ele>316.2</ele>
        <time>2012-08-06T16:36:34Z</time>
      </trkpt>
      <trkpt lat="47.38498" lon="6.27445">
        <ele>316.7</ele>
        <time>2012-08-06T16:36:41Z</time>
      </trkpt>
      <trkpt lat="47.38477" lon="6.27447">
        <ele>317.1</ele>
        <time>2012-08-06T16:36:48Z</time>
      </trkpt>
      <trkpt lat="47.38455" lon="6.27447">
        <ele>317.6</ele>
        <time>2012-08-06T16:36:56Z</time>
      </trkpt>
      <trkpt lat="47.38433" lon="6.27442">
        <ele>318.1</ele>
        <time>2012-08-06T16:37:04Z</time>
      </trkpt>
      <trkpt lat="47.3843" lon="6.27441">
        <ele>318.1</ele>
        <time>2012-08-06T16:37:05Z</time>
      </trkpt>
      <trkpt lat="47.38392" lon="6.2743">
        <ele>318.7</ele>
        <time>2012-08-06T16:37:18Z</time>
      </trkpt>
      <trkpt lat="47.3837" lon="6.27425">
        <ele>319.2</ele>
        <time>2012-08-06T16:37:25Z</time>
      </trkpt>
      <trkpt lat="47.38349" lon="6.27421">
        <ele>319.7</ele>
        <time>2012-08-06T16:37:34Z</time>
      </trkpt>
      <trkpt lat="47.38327" lon="6.27416">
        <ele>320.5</ele>
        <time>2012-08-06T16:37:44Z</time>
      </trkpt>
      <trkpt lat="47.38306" lon="6.27412">
        <ele>321.1</ele>
        <time>2012-08-06T16:37:53Z</time>
      </trkpt>
      <trkpt lat="47.38284" lon="6.27413">
        <ele>323.2</ele>
        <time>2012-08-06T16:39:29Z</time>
      </trkpt>
      <trkpt lat="47.38284" lon="6.27413">
        <ele>323.2</ele>
        <time>2012-08-06T16:39:30Z</time>
      </trkpt>
      <trkpt lat="47.38239" lon="6.27413">
        <ele>335.1</ele>
        <time>2012-08-06T16:40:38Z</time>
      </trkpt>
      <trkpt lat="47.38237" lon="6.27413">
        <ele>335.2</ele>
        <time>2012-08-06T16:40:39Z</time>
      </trkpt>
      <trkpt lat="47.38197" lon="6.27419">
        <ele>338.2</ele>
        <time>2012-08-06T16:40:58Z</time>
      </trkpt>
      <trkpt lat="47.38174" lon="6.27423">
        <ele>340</ele>
        <time>2012-08-06T16:41:10Z</time>
      </trkpt>
      <trkpt lat="47.38153" lon="6.27418">
        <ele>341.2</ele>
        <time>2012-08-06T16:41:24Z</time>
      </trkpt>
      <trkpt lat="47.38131" lon="6.27416">
        <ele>342.2</ele>
        <time>2012-08-06T16:41:38Z</time>
      </trkpt>
      <trkpt lat="47.3811" lon="6.27409">
        <ele>342.6</ele>
        <time>2012-08-06T16:41:50Z</time>
      </trkpt>
      <trkpt lat="47.38108" lon="6.27408">
        <ele>342.6</ele>
        <time>2012-08-06T16:41:51Z</time>
      </trkpt>
      <trkpt lat="47.38069" lon="6.27393">
        <ele>343.7</ele>
        <time>2012-08-06T16:42:11Z</time>
      </trkpt>
      <trkpt lat="47.38049" lon="6.27385">
        <ele>344.5</ele>
        <time>2012-08-06T16:42:21Z</time>
      </trkpt>
      <trkpt lat="47.38029" lon="6.27378">
        <ele>345.2</ele>
        <time>2012-08-06T16:42:31Z</time>
      </trkpt>
      <trkpt lat="47.38007" lon="6.27373">
        <ele>346.1</ele>
        <time>2012-08-06T16:42:41Z</time>
      </trkpt>
      <trkpt lat="47.37986" lon="6.27371">
        <ele>346.6</ele>
        <time>2012-08-06T16:42:51Z</time>
      </trkpt>
      <trkpt lat="47.37984" lon="6.27371">
        <ele>346.6</ele>
        <time>2012-08-06T16:42:52Z</time>
      </trkpt>
      <trkpt lat="47.37943" lon="6.27366">
        <ele>347.6</ele>
        <time>2012-08-06T16:43:13Z</time>
      </trkpt>
      <trkpt lat="47.37923" lon="6.27358">
        <ele>348.1</ele>
        <time>2012-08-06T16:43:24Z</time>
      </trkpt>
      <trkpt lat="47.37909" lon="6.27333">
        <ele>348.2</ele>
        <time>2012-08-06T16:43:32Z</time>
      </trkpt>
      <trkpt lat="47.37909" lon="6.27304">
        <ele>348.7</ele>
        <time>2012-08-06T16:43:37Z</time>
      </trkpt>
      <trkpt lat="47.37916" lon="6.27277">
        <ele>349.2</ele>
        <time>2012-08-06T16:43:41Z</time>
      </trkpt>
      <trkpt lat="47.37926" lon="6.27248">
        <ele>349.5</ele>
        <time>2012-08-06T16:43:45Z</time>
      </trkpt>
      <trkpt lat="47.37935" lon="6.27222">
        <ele>349.7</ele>
        <time>2012-08-06T16:43:49Z</time>
      </trkpt>
      <trkpt lat="47.37945" lon="6.27197">
        <ele>349.7</ele>
        <time>2012-08-06T16:43:54Z</time>
      </trkpt>
      <trkpt lat="47.37947" lon="6.27193">
        <ele>349.7</ele>
        <time>2012-08-06T16:43:55Z</time>
      </trkpt>
      <trkpt lat="47.3795" lon="6.27139">
        <ele>349.7</ele>
        <time>2012-08-06T16:44:13Z</time>
      </trkpt>
      <trkpt lat="47.37938" lon="6.27115">
        <ele>350</ele>
        <time>2012-08-06T16:44:22Z</time>
      </trkpt>
      <trkpt lat="47.37919" lon="6.27098">
        <ele>350.2</ele>
        <time>2012-08-06T16:44:31Z</time>
      </trkpt>
      <trkpt lat="47.37901" lon="6.27084">
        <ele>350.2</ele>
        <time>2012-08-06T16:44:39Z</time>
      </trkpt>
      <trkpt lat="47.3788" lon="6.27073">
        <ele>350.6</ele>
        <time>2012-08-06T16:44:48Z</time>
      </trkpt>
      <trkpt lat="47.37859" lon="6.27067">
        <ele>350.7</ele>
        <time>2012-08-06T16:44:58Z</time>
      </trkpt>
      <trkpt lat="47.37857" lon="6.27068">
        <ele>350.7</ele>
        <time>2012-08-06T16:44:59Z</time>
      </trkpt>
      <trkpt lat="47.37816" lon="6.2708">
        <ele>351.1</ele>
        <time>2012-08-06T16:45:16Z</time>
      </trkpt>
      <trkpt lat="47.37795" lon="6.27087">
        <ele>351.2</ele>
        <time>2012-08-06T16:45:25Z</time>
      </trkpt>
      <trkpt lat="47.37774" lon="6.27085">
        <ele>351.7</ele>
        <time>2012-08-06T16:45:34Z</time>
      </trkpt>
      <trkpt lat="47.37755" lon="6.27073">
        <ele>352.2</ele>
        <time>2012-08-06T16:45:43Z</time>
      </trkpt>
      <trkpt lat="47.37734" lon="6.27062">
        <ele>353.2</ele>
        <time>2012-08-06T16:45:53Z</time>
      </trkpt>
      <trkpt lat="47.37713" lon="6.27063">
        <ele>354</ele>
        <time>2012-08-06T16:46:00Z</time>
      </trkpt>
      <trkpt lat="47.3771" lon="6.27063">
        <ele>354.1</ele>
        <time>2012-08-06T16:46:01Z</time>
      </trkpt>
      <trkpt lat="47.37672" lon="6.27068">
        <ele>355.2</ele>
        <time>2012-08-06T16:46:14Z</time>
      </trkpt>
      <trkpt lat="47.37651" lon="6.27069">
        <ele>356.2</ele>
        <time>2012-08-06T16:46:24Z</time>
      </trkpt>
      <trkpt lat="47.37629" lon="6.2707">
        <ele>356.7</ele>
        <time>2012-08-06T16:46:34Z</time>
      </trkpt>
      <trkpt lat="47.37607" lon="6.27072">
        <ele>357.2</ele>
        <time>2012-08-06T16:46:44Z</time>
      </trkpt>
      <trkpt lat="47.37585" lon="6.27071">
        <ele>357.7</ele>
        <time>2012-08-06T16:46:54Z</time>
      </trkpt>
      <trkpt lat="47.37564" lon="6.27076">
        <ele>358.2</ele>
        <time>2012-08-06T16:47:03Z</time>
      </trkpt>
      <trkpt lat="47.37561" lon="6.27077">
        <ele>358.2</ele>
        <time>2012-08-06T16:47:04Z</time>
      </trkpt>
      <trkpt lat="47.37524" lon="6.27096">
        <ele>359.7</ele>
        <time>2012-08-06T16:47:21Z</time>
      </trkpt>
      <trkpt lat="47.37502" lon="6.27098">
        <ele>360.5</ele>
        <time>2012-08-06T16:47:31Z</time>
      </trkpt>
      <trkpt lat="47.37482" lon="6.27085">
        <ele>361.2</ele>
        <time>2012-08-06T16:47:42Z</time>
      </trkpt>
      <trkpt lat="47.37466" lon="6.27062">
        <ele>362.5</ele>
        <time>2012-08-06T16:47:55Z</time>
      </trkpt>
      <trkpt lat="47.37445" lon="6.27055">
        <ele>366.2</ele>
        <time>2012-08-06T16:48:26Z</time>
      </trkpt>
      <trkpt lat="47.37444" lon="6.27055">
        <ele>366.2</ele>
        <time>2012-08-06T16:48:27Z</time>
      </trkpt>
      <trkpt lat="47.374" lon="6.27058">
        <ele>369.7</ele>
        <time>2012-08-06T16:49:22Z</time>
      </trkpt>
      <trkpt lat="47.37379" lon="6.27051">
        <ele>371.5</ele>
        <time>2012-08-06T16:49:44Z</time>
      </trkpt>
      <trkpt lat="47.37378" lon="6.27051">
        <ele>371.6</ele>
        <time>2012-08-06T16:49:45Z</time>
      </trkpt>
      <trkpt lat="47.37338" lon="6.27027">
        <ele>374.5</ele>
        <time>2012-08-06T16:50:30Z</time>
      </trkpt>
      <trkpt lat="47.37319" lon="6.27012">
        <ele>376</ele>
        <time>2012-08-06T16:50:51Z</time>
      </trkpt>
      <trkpt lat="47.37318" lon="6.27011">
        <ele>376</ele>
        <time>2012-08-06T16:50:52Z</time>
      </trkpt>
      <trkpt lat="47.37279" lon="6.26983">
        <ele>378.2</ele>
        <time>2012-08-06T16:51:32Z</time>
      </trkpt>
      <trkpt lat="47.3726" lon="6.2697">
        <ele>379.2</ele>
        <time>2012-08-06T16:51:52Z</time>
      </trkpt>
      <trkpt lat="47.3724" lon="6.26957">
        <ele>380.2</ele>
        <time>2012-08-06T16:52:14Z</time>
      </trkpt>
      <trkpt lat="47.37239" lon="6.26956">
        <ele>380.2</ele>
        <time>2012-08-06T16:52:15Z</time>
      </trkpt>
      <trkpt lat="47.37202" lon="6.26924">
        <ele>382.7</ele>
        <time>2012-08-06T16:53:00Z</time>
      </trkpt>
      <trkpt lat="47.37184" lon="6.26905">
        <ele>384.5</ele>
        <time>2012-08-06T16:53:23Z</time>
      </trkpt>
      <trkpt lat="47.37184" lon="6.26905">
        <ele>384.6</ele>
        <time>2012-08-06T16:53:24Z</time>
      </trkpt>
      <trkpt lat="47.37141" lon="6.26891">
        <ele>389</ele>
        <time>2012-08-06T16:54:10Z</time>
      </trkpt>
      <trkpt lat="47.3712" lon="6.26886">
        <ele>390.7</ele>
        <time>2012-08-06T16:54:35Z</time>
      </trkpt>
      <trkpt lat="47.37119" lon="6.26886">
        <ele>390.7</ele>
        <time>2012-08-06T16:54:36Z</time>
      </trkpt>
      <trkpt lat="47.37076" lon="6.26892">
        <ele>394.1</ele>
        <time>2012-08-06T16:55:29Z</time>
      </trkpt>
      <trkpt lat="47.37054" lon="6.26894">
        <ele>395.7</ele>
        <time>2012-08-06T16:55:42Z</time>
      </trkpt>
      <trkpt lat="47.37052" lon="6.26894">
        <ele>395.7</ele>
        <time>2012-08-06T16:55:43Z</time>
      </trkpt>
      <trkpt lat="47.3701" lon="6.2689">
        <ele>398.7</ele>
        <time>2012-08-06T16:56:09Z</time>
      </trkpt>
      <trkpt lat="47.36989" lon="6.26881">
        <ele>400.5</ele>
        <time>2012-08-06T16:56:21Z</time>
      </trkpt>
      <trkpt lat="47.36971" lon="6.26864">
        <ele>401.6</ele>
        <time>2012-08-06T16:56:31Z</time>
      </trkpt>
      <trkpt lat="47.36954" lon="6.26845">
        <ele>402.5</ele>
        <time>2012-08-06T16:56:40Z</time>
      </trkpt>
      <trkpt lat="47.36938" lon="6.26825">
        <ele>403.7</ele>
        <time>2012-08-06T16:56:53Z</time>
      </trkpt>
      <trkpt lat="47.36936" lon="6.26823">
        <ele>403.7</ele>
        <time>2012-08-06T16:56:54Z</time>
      </trkpt>
      <trkpt lat="47.3692" lon="6.26768">
        <ele>405.6</ele>
        <time>2012-08-06T16:57:15Z</time>
      </trkpt>
      <trkpt lat="47.36902" lon="6.26748">
        <ele>406.2</ele>
        <time>2012-08-06T16:57:26Z</time>
      </trkpt>
      <trkpt lat="47.36884" lon="6.26733">
        <ele>407.1</ele>
        <time>2012-08-06T16:57:36Z</time>
      </trkpt>
      <trkpt lat="47.36865" lon="6.2672">
        <ele>408</ele>
        <time>2012-08-06T16:57:47Z</time>
      </trkpt>
      <trkpt lat="47.36846" lon="6.26708">
        <ele>408.7</ele>
        <time>2012-08-06T16:57:57Z</time>
      </trkpt>
      <trkpt lat="47.36844" lon="6.26706">
        <ele>408.7</ele>
        <time>2012-08-06T16:57:58Z</time>
      </trkpt>
      <trkpt lat="47.36808" lon="6.26676">
        <ele>409.7</ele>
        <time>2012-08-06T16:58:17Z</time>
      </trkpt>
      <trkpt lat="47.36789" lon="6.26664">
        <ele>410.2</ele>
        <time>2012-08-06T16:58:25Z</time>
      </trkpt>
      <trkpt lat="47.3677" lon="6.26654">
        <ele>410.5</ele>
        <time>2012-08-06T16:58:32Z</time>
      </trkpt>
      <trkpt lat="47.3675" lon="6.26646">
        <ele>410.7</ele>
        <time>2012-08-06T16:58:39Z</time>
      </trkpt>
      <trkpt lat="47.3673" lon="6.26639">
        <ele>410.7</ele>
        <time>2012-08-06T16:58:45Z</time>
      </trkpt>
      <trkpt lat="47.36712" lon="6.26628">
        <ele>410.7</ele>
        <time>2012-08-06T16:58:51Z</time>
      </trkpt>
      <trkpt lat="47.36692" lon="6.26614">
        <ele>410.7</ele>
        <time>2012-08-06T16:58:58Z</time>
      </trkpt>
      <trkpt lat="47.36689" lon="6.26612">
        <ele>410.7</ele>
        <time>2012-08-06T16:58:59Z</time>
      </trkpt>
      <trkpt lat="47.36653" lon="6.26586">
        <ele>410.7</ele>
        <time>2012-08-06T16:59:13Z</time>
      </trkpt>
      <trkpt lat="47.36636" lon="6.26571">
        <ele>410.7</ele>
        <time>2012-08-06T16:59:20Z</time>
      </trkpt>
      <trkpt lat="47.36619" lon="6.26553">
        <ele>410.7</ele>
        <time>2012-08-06T16:59:27Z</time>
      </trkpt>
      <trkpt lat="47.36602" lon="6.26531">
        <ele>410.7</ele>
        <time>2012-08-06T16:59:34Z</time>
      </trkpt>
      <trkpt lat="47.36586" lon="6.2651">
        <ele>410.7</ele>
        <time>2012-08-06T16:59:41Z</time>
      </trkpt>
      <trkpt lat="47.3657" lon="6.26492">
        <ele>410.7</ele>
        <time>2012-08-06T16:59:48Z</time>
      </trkpt>
      <trkpt lat="47.36551" lon="6.26478">
        <ele>410.7</ele>
        <time>2012-08-06T16:59:56Z</time>
      </trkpt>
      <trkpt lat="47.3653" lon="6.26476">
        <ele>410.7</ele>
        <time>2012-08-06T17:00:03Z</time>
      </trkpt>
      <trkpt lat="47.36526" lon="6.26476">
        <ele>410.6</ele>
        <time>2012-08-06T17:00:04Z</time>
      </trkpt>
      <trkpt lat="47.36491" lon="6.26486">
        <ele>409.1</ele>
        <time>2012-08-06T17:00:13Z</time>
      </trkpt>
      <trkpt lat="47.36472" lon="6.2649">
        <ele>408.7</ele>
        <time>2012-08-06T17:00:18Z</time>
      </trkpt>
      <trkpt lat="47.36452" lon="6.2649">
        <ele>408.2</ele>
        <time>2012-08-06T17:00:23Z</time>
      </trkpt>
      <trkpt lat="47.36433" lon="6.26489">
        <ele>408.2</ele>
        <time>2012-08-06T17:00:28Z</time>
      </trkpt>
      <trkpt lat="47.36414" lon="6.26492">
        <ele>407.7</ele>
        <time>2012-08-06T17:00:33Z</time>
      </trkpt>
      <trkpt lat="47.36394" lon="6.26492">
        <ele>407.7</ele>
        <time>2012-08-06T17:00:38Z</time>
      </trkpt>
      <trkpt lat="47.36373" lon="6.26487">
        <ele>407.7</ele>
        <time>2012-08-06T17:00:44Z</time>
      </trkpt>
      <trkpt lat="47.36353" lon="6.26484">
        <ele>407.7</ele>
        <time>2012-08-06T17:00:51Z</time>
      </trkpt>
      <trkpt lat="47.36333" lon="6.2648">
        <ele>407.6</ele>
        <time>2012-08-06T17:00:58Z</time>
      </trkpt>
      <trkpt lat="47.36313" lon="6.26474">
        <ele>407.6</ele>
        <time>2012-08-06T17:01:04Z</time>
      </trkpt>
      <trkpt lat="47.36295" lon="6.26461">
        <ele>407.5</ele>
        <time>2012-08-06T17:01:10Z</time>
      </trkpt>
      <trkpt lat="47.36292" lon="6.26459">
        <ele>407.5</ele>
        <time>2012-08-06T17:01:11Z</time>
      </trkpt>
      <trkpt lat="47.3626" lon="6.2643">
        <ele>407.2</ele>
        <time>2012-08-06T17:01:22Z</time>
      </trkpt>
      <trkpt lat="47.3624" lon="6.26426">
        <ele>407.2</ele>
        <time>2012-08-06T17:01:30Z</time>
      </trkpt>
      <trkpt lat="47.36218" lon="6.26434">
        <ele>407.2</ele>
        <time>2012-08-06T17:01:40Z</time>
      </trkpt>
      <trkpt lat="47.36198" lon="6.26442">
        <ele>407.1</ele>
        <time>2012-08-06T17:01:49Z</time>
      </trkpt>
      <trkpt lat="47.36177" lon="6.26443">
        <ele>407.1</ele>
        <time>2012-08-06T17:01:58Z</time>
      </trkpt>
      <trkpt lat="47.36155" lon="6.2645">
        <ele>407.2</ele>
        <time>2012-08-06T17:02:06Z</time>
      </trkpt>
      <trkpt lat="47.36135" lon="6.2646">
        <ele>407.7</ele>
        <time>2012-08-06T17:02:12Z</time>
      </trkpt>
      <trkpt lat="47.36131" lon="6.26462">
        <ele>407.7</ele>
        <time>2012-08-06T17:02:13Z</time>
      </trkpt>
      <trkpt lat="47.36096" lon="6.26478">
        <ele>408.2</ele>
        <time>2012-08-06T17:02:21Z</time>
      </trkpt>
      <trkpt lat="47.36077" lon="6.26484">
        <ele>408.2</ele>
        <time>2012-08-06T17:02:25Z</time>
      </trkpt>
      <trkpt lat="47.36058" lon="6.26486">
        <ele>408.2</ele>
        <time>2012-08-06T17:02:29Z</time>
      </trkpt>
      <trkpt lat="47.36039" lon="6.26489">
        <ele>408.1</ele>
        <time>2012-08-06T17:02:33Z</time>
      </trkpt>
      <trkpt lat="47.36017" lon="6.26491">
        <ele>408</ele>
        <time>2012-08-06T17:02:37Z</time>
      </trkpt>
      <trkpt lat="47.35996" lon="6.26495">
        <ele>407.7</ele>
        <time>2012-08-06T17:02:41Z</time>
      </trkpt>
      <trkpt lat="47.35975" lon="6.26498">
        <ele>407.7</ele>
        <time>2012-08-06T17:02:45Z</time>
      </trkpt>
      <trkpt lat="47.35954" lon="6.26501">
        <ele>407.7</ele>
        <time>2012-08-06T17:02:49Z</time>
      </trkpt>
      <trkpt lat="47.35933" lon="6.26502">
        <ele>407.6</ele>
        <time>2012-08-06T17:02:53Z</time>
      </trkpt>
      <trkpt lat="47.35913" lon="6.26501">
        <ele>407.6</ele>
        <time>2012-08-06T17:02:57Z</time>
      </trkpt>
      <trkpt lat="47.35892" lon="6.26499">
        <ele>407.6</ele>
        <time>2012-08-06T17:03:01Z</time>
      </trkpt>
      <trkpt lat="47.35874" lon="6.26496">
        <ele>407.5</ele>
        <time>2012-08-06T17:03:04Z</time>
      </trkpt>
      <trkpt lat="47.35854" lon="6.26492">
        <ele>407.2</ele>
        <time>2012-08-06T17:03:07Z</time>
      </trkpt>
      <trkpt lat="47.35833" lon="6.26487">
        <ele>406.7</ele>
        <time>2012-08-06T17:03:10Z</time>
      </trkpt>
      <trkpt lat="47.35813" lon="6.26482">
        <ele>406.2</ele>
        <time>2012-08-06T17:03:13Z</time>
      </trkpt>
      <trkpt lat="47.35794" lon="6.26476">
        <ele>406.1</ele>
        <time>2012-08-06T17:03:16Z</time>
      </trkpt>
      <trkpt lat="47.35787" lon="6.26474">
        <ele>406.1</ele>
        <time>2012-08-06T17:03:17Z</time>
      </trkpt>
      <trkpt lat="47.35757" lon="6.26465">
        <ele>406</ele>
        <time>2012-08-06T17:03:22Z</time>
      </trkpt>
      <trkpt lat="47.35741" lon="6.26461">
        <ele>405.7</ele>
        <time>2012-08-06T17:03:25Z</time>
      </trkpt>
      <trkpt lat="47.3572" lon="6.26457">
        <ele>405.2</ele>
        <time>2012-08-06T17:03:29Z</time>
      </trkpt>
      <trkpt lat="47.357" lon="6.26452">
        <ele>404.7</ele>
        <time>2012-08-06T17:03:33Z</time>
      </trkpt>
      <trkpt lat="47.35679" lon="6.26445">
        <ele>404.1</ele>
        <time>2012-08-06T17:03:37Z</time>
      </trkpt>
      <trkpt lat="47.35663" lon="6.26437">
        <ele>403.6</ele>
        <time>2012-08-06T17:03:40Z</time>
      </trkpt>
      <trkpt lat="47.35642" lon="6.26427">
        <ele>403.1</ele>
        <time>2012-08-06T17:03:44Z</time>
      </trkpt>
      <trkpt lat="47.35621" lon="6.26418">
        <ele>402.7</ele>
        <time>2012-08-06T17:03:48Z</time>
      </trkpt>
      <trkpt lat="47.35602" lon="6.26411">
        <ele>402.6</ele>
        <time>2012-08-06T17:03:52Z</time>
      </trkpt>
      <trkpt lat="47.35581" lon="6.26406">
        <ele>402.2</ele>
        <time>2012-08-06T17:03:57Z</time>
      </trkpt>
      <trkpt lat="47.35561" lon="6.26399">
        <ele>402.2</ele>
        <time>2012-08-06T17:04:02Z</time>
      </trkpt>
      <trkpt lat="47.3554" lon="6.26392">
        <ele>402.1</ele>
        <time>2012-08-06T17:04:07Z</time>
      </trkpt>
      <trkpt lat="47.3552" lon="6.26385">
        <ele>401.7</ele>
        <time>2012-08-06T17:04:11Z</time>
      </trkpt>
      <trkpt lat="47.35503" lon="6.2638">
        <ele>401.7</ele>
        <time>2012-08-06T17:04:14Z</time>
      </trkpt>
      <trkpt lat="47.35485" lon="6.26374">
        <ele>401.5</ele>
        <time>2012-08-06T17:04:17Z</time>
      </trkpt>
      <trkpt lat="47.35466" lon="6.26364">
        <ele>401.2</ele>
        <time>2012-08-06T17:04:20Z</time>
      </trkpt>
      <trkpt lat="47.3546" lon="6.26359">
        <ele>401.2</ele>
        <time>2012-08-06T17:04:21Z</time>
      </trkpt>
      <trkpt lat="47.35431" lon="6.26328">
        <ele>400.7</ele>
        <time>2012-08-06T17:04:26Z</time>
      </trkpt>
      <trkpt lat="47.35419" lon="6.26313">
        <ele>400.6</ele>
        <time>2012-08-06T17:04:28Z</time>
      </trkpt>
      <trkpt lat="47.35406" lon="6.26298">
        <ele>400.1</ele>
        <time>2012-08-06T17:04:30Z</time>
      </trkpt>
      <trkpt lat="47.35391" lon="6.26285">
        <ele>399.7</ele>
        <time>2012-08-06T17:04:32Z</time>
      </trkpt>
      <trkpt lat="47.35375" lon="6.26277">
        <ele>399.2</ele>
        <time>2012-08-06T17:04:34Z</time>
      </trkpt>
      <trkpt lat="47.35359" lon="6.26273">
        <ele>398.7</ele>
        <time>2012-08-06T17:04:36Z</time>
      </trkpt>
      <trkpt lat="47.35344" lon="6.26272">
        <ele>398.5</ele>
        <time>2012-08-06T17:04:38Z</time>
      </trkpt>
      <trkpt lat="47.35322" lon="6.26271">
        <ele>398.2</ele>
        <time>2012-08-06T17:04:41Z</time>
      </trkpt>
      <trkpt lat="47.35304" lon="6.26269">
        <ele>398</ele>
        <time>2012-08-06T17:04:44Z</time>
      </trkpt>
      <trkpt lat="47.35284" lon="6.26266">
        <ele>397.6</ele>
        <time>2012-08-06T17:04:48Z</time>
      </trkpt>
      <trkpt lat="47.35263" lon="6.26262">
        <ele>397.2</ele>
        <time>2012-08-06T17:04:54Z</time>
      </trkpt>
      <trkpt lat="47.3524" lon="6.26264">
        <ele>397</ele>
        <time>2012-08-06T17:05:01Z</time>
      </trkpt>
      <trkpt lat="47.3522" lon="6.26277">
        <ele>396.6</ele>
        <time>2012-08-06T17:05:08Z</time>
      </trkpt>
      <trkpt lat="47.35204" lon="6.26291">
        <ele>395.6</ele>
        <time>2012-08-06T17:05:13Z</time>
      </trkpt>
      <trkpt lat="47.35186" lon="6.26303">
        <ele>393.5</ele>
        <time>2012-08-06T17:05:17Z</time>
      </trkpt>
      <trkpt lat="47.35169" lon="6.26312">
        <ele>392.1</ele>
        <time>2012-08-06T17:05:20Z</time>
      </trkpt>
      <trkpt lat="47.35148" lon="6.26323">
        <ele>390.7</ele>
        <time>2012-08-06T17:05:23Z</time>
      </trkpt>
      <trkpt lat="47.35141" lon="6.26326">
        <ele>390.6</ele>
        <time>2012-08-06T17:05:24Z</time>
      </trkpt>
      <trkpt lat="47.35118" lon="6.26337">
        <ele>389.2</ele>
        <time>2012-08-06T17:05:27Z</time>
      </trkpt>
      <trkpt lat="47.35101" lon="6.26346">
        <ele>388.2</ele>
        <time>2012-08-06T17:05:29Z</time>
      </trkpt>
      <trkpt lat="47.35083" lon="6.26355">
        <ele>387.7</ele>
        <time>2012-08-06T17:05:31Z</time>
      </trkpt>
      <trkpt lat="47.35064" lon="6.26363">
        <ele>387.2</ele>
        <time>2012-08-06T17:05:33Z</time>
      </trkpt>
      <trkpt lat="47.35045" lon="6.26369">
        <ele>386.6</ele>
        <time>2012-08-06T17:05:35Z</time>
      </trkpt>
      <trkpt lat="47.35025" lon="6.26372">
        <ele>385.7</ele>
        <time>2012-08-06T17:05:37Z</time>
      </trkpt>
      <trkpt lat="47.35005" lon="6.26374">
        <ele>385.2</ele>
        <time>2012-08-06T17:05:39Z</time>
      </trkpt>
      <trkpt lat="47.34985" lon="6.26374">
        <ele>384.6</ele>
        <time>2012-08-06T17:05:41Z</time>
      </trkpt>
      <trkpt lat="47.34966" lon="6.26374">
        <ele>383.7</ele>
        <time>2012-08-06T17:05:43Z</time>
      </trkpt>
      <trkpt lat="47.34946" lon="6.26376">
        <ele>382.7</ele>
        <time>2012-08-06T17:05:45Z</time>
      </trkpt>
      <trkpt lat="47.34926" lon="6.26378">
        <ele>382.2</ele>
        <time>2012-08-06T17:05:47Z</time>
      </trkpt>
      <trkpt lat="47.34908" lon="6.2638">
        <ele>381.7</ele>
        <time>2012-08-06T17:05:49Z</time>
      </trkpt>
      <trkpt lat="47.3489" lon="6.26382">
        <ele>381.2</ele>
        <time>2012-08-06T17:05:51Z</time>
      </trkpt>
      <trkpt lat="47.34873" lon="6.26384">
        <ele>380.2</ele>
        <time>2012-08-06T17:05:53Z</time>
      </trkpt>
      <trkpt lat="47.34856" lon="6.26384">
        <ele>379.7</ele>
        <time>2012-08-06T17:05:55Z</time>
      </trkpt>
      <trkpt lat="47.34839" lon="6.26382">
        <ele>379.2</ele>
        <time>2012-08-06T17:05:57Z</time>
      </trkpt>
      <trkpt lat="47.34822" lon="6.26379">
        <ele>378.7</ele>
        <time>2012-08-06T17:05:59Z</time>
      </trkpt>
      <trkpt lat="47.34805" lon="6.26379">
        <ele>378.2</ele>
        <time>2012-08-06T17:06:01Z</time>
      </trkpt>
      <trkpt lat="47.34788" lon="6.26385">
        <ele>378.1</ele>
        <time>2012-08-06T17:06:03Z</time>
      </trkpt>
      <trkpt lat="47.34773" lon="6.26397">
        <ele>377.7</ele>
        <time>2012-08-06T17:06:05Z</time>
      </trkpt>
      <trkpt lat="47.3476" lon="6.26411">
        <ele>377.2</ele>
        <time>2012-08-06T17:06:07Z</time>
      </trkpt>
      <trkpt lat="47.34749" lon="6.26429">
        <ele>377.2</ele>
        <time>2012-08-06T17:06:09Z</time>
      </trkpt>
      <trkpt lat="47.34738" lon="6.26448">
        <ele>377.2</ele>
        <time>2012-08-06T17:06:11Z</time>
      </trkpt>
      <trkpt lat="47.34727" lon="6.26467">
        <ele>377.2</ele>
        <time>2012-08-06T17:06:13Z</time>
      </trkpt>
      <trkpt lat="47.34718" lon="6.26485">
        <ele>377.2</ele>
        <time>2012-08-06T17:06:15Z</time>
      </trkpt>
      <trkpt lat="47.34703" lon="6.26503">
        <ele>377.2</ele>
        <time>2012-08-06T17:06:18Z</time>
      </trkpt>
      <trkpt lat="47.34685" lon="6.26517">
        <ele>376.7</ele>
        <time>2012-08-06T17:06:22Z</time>
      </trkpt>
      <trkpt lat="47.34664" lon="6.26527">
        <ele>376.2</ele>
        <time>2012-08-06T17:06:28Z</time>
      </trkpt>
      <trkpt lat="47.34661" lon="6.26528">
        <ele>376.2</ele>
        <time>2012-08-06T17:06:29Z</time>
      </trkpt>
      <trkpt lat="47.34623" lon="6.26533">
        <ele>375.1</ele>
        <time>2012-08-06T17:06:44Z</time>
      </trkpt>
      <trkpt lat="47.34603" lon="6.26529">
        <ele>374.6</ele>
        <time>2012-08-06T17:06:53Z</time>
      </trkpt>
      <trkpt lat="47.34581" lon="6.26525">
        <ele>374.6</ele>
        <time>2012-08-06T17:07:01Z</time>
      </trkpt>
      <trkpt lat="47.34561" lon="6.26525">
        <ele>374.5</ele>
        <time>2012-08-06T17:07:08Z</time>
      </trkpt>
      <trkpt lat="47.34539" lon="6.26528">
        <ele>374.2</ele>
        <time>2012-08-06T17:07:16Z</time>
      </trkpt>
      <trkpt lat="47.34518" lon="6.26535">
        <ele>374.5</ele>
        <time>2012-08-06T17:07:25Z</time>
      </trkpt>
      <trkpt lat="47.34496" lon="6.26542">
        <ele>374.7</ele>
        <time>2012-08-06T17:07:34Z</time>
      </trkpt>
      <trkpt lat="47.34494" lon="6.26543">
        <ele>374.7</ele>
        <time>2012-08-06T17:07:35Z</time>
      </trkpt>
      <trkpt lat="47.34455" lon="6.26557">
        <ele>375.2</ele>
        <time>2012-08-06T17:07:52Z</time>
      </trkpt>
      <trkpt lat="47.34434" lon="6.26565">
        <ele>375.2</ele>
        <time>2012-08-06T17:08:01Z</time>
      </trkpt>
      <trkpt lat="47.34413" lon="6.26572">
        <ele>375.2</ele>
        <time>2012-08-06T17:08:08Z</time>
      </trkpt>
      <trkpt lat="47.34393" lon="6.26579">
        <ele>375.5</ele>
        <time>2012-08-06T17:08:15Z</time>
      </trkpt>
      <trkpt lat="47.34373" lon="6.26587">
        <ele>375.5</ele>
        <time>2012-08-06T17:08:21Z</time>
      </trkpt>
      <trkpt lat="47.34356" lon="6.26597">
        <ele>375.2</ele>
        <time>2012-08-06T17:08:26Z</time>
      </trkpt>
      <trkpt lat="47.34338" lon="6.26614">
        <ele>375.2</ele>
        <time>2012-08-06T17:08:31Z</time>
      </trkpt>
      <trkpt lat="47.34325" lon="6.26633">
        <ele>375.2</ele>
        <time>2012-08-06T17:08:35Z</time>
      </trkpt>
      <trkpt lat="47.3431" lon="6.26655">
        <ele>375.2</ele>
        <time>2012-08-06T17:08:39Z</time>
      </trkpt>
      <trkpt lat="47.34306" lon="6.26661">
        <ele>375.2</ele>
        <time>2012-08-06T17:08:40Z</time>
      </trkpt>
      <trkpt lat="47.34282" lon="6.26692">
        <ele>375.2</ele>
        <time>2012-08-06T17:08:45Z</time>
      </trkpt>
      <trkpt lat="47.34265" lon="6.26708">
        <ele>375.1</ele>
        <time>2012-08-06T17:08:48Z</time>
      </trkpt>
      <trkpt lat="47.34245" lon="6.2672">
        <ele>374.7</ele>
        <time>2012-08-06T17:08:51Z</time>
      </trkpt>
      <trkpt lat="47.3423" lon="6.26726">
        <ele>374.5</ele>
        <time>2012-08-06T17:08:53Z</time>
      </trkpt>
      <trkpt lat="47.34215" lon="6.2673">
        <ele>374.2</ele>
        <time>2012-08-06T17:08:55Z</time>
      </trkpt>
      <trkpt lat="47.34198" lon="6.26734">
        <ele>373.7</ele>
        <time>2012-08-06T17:08:57Z</time>
      </trkpt>
      <trkpt lat="47.34181" lon="6.26739">
        <ele>373.2</ele>
        <time>2012-08-06T17:08:59Z</time>
      </trkpt>
      <trkpt lat="47.34163" lon="6.26745">
        <ele>372.7</ele>
        <time>2012-08-06T17:09:01Z</time>
      </trkpt>
      <trkpt lat="47.34145" lon="6.2675">
        <ele>372.2</ele>
        <time>2012-08-06T17:09:03Z</time>
      </trkpt>
      <trkpt lat="47.34127" lon="6.26755">
        <ele>371.7</ele>
        <time>2012-08-06T17:09:05Z</time>
      </trkpt>
      <trkpt lat="47.34111" lon="6.2676">
        <ele>371.2</ele>
        <time>2012-08-06T17:09:07Z</time>
      </trkpt>
      <trkpt lat="47.34095" lon="6.26765">
        <ele>370.7</ele>
        <time>2012-08-06T17:09:09Z</time>
      </trkpt>
      <trkpt lat="47.34074" lon="6.26771">
        <ele>370</ele>
        <time>2012-08-06T17:09:12Z</time>
      </trkpt>
      <trkpt lat="47.34054" lon="6.2678">
        <ele>369</ele>
        <time>2012-08-06T17:09:17Z</time>
      </trkpt>
      <trkpt lat="47.34059" lon="6.26809">
        <ele>368.6</ele>
        <time>2012-08-06T17:09:24Z</time>
      </trkpt>
      <trkpt lat="47.3407" lon="6.26832">
        <ele>368.2</ele>
        <time>2012-08-06T17:09:30Z</time>
      </trkpt>
      <trkpt lat="47.34077" lon="6.26863">
        <ele>367.5</ele>
        <time>2012-08-06T17:09:37Z</time>
      </trkpt>
      <trkpt lat="47.3408" lon="6.26892">
        <ele>366.7</ele>
        <time>2012-08-06T17:09:44Z</time>
      </trkpt>
      <trkpt lat="47.3408" lon="6.26897">
        <ele>366.6</ele>
        <time>2012-08-06T17:09:45Z</time>
      </trkpt>
      <trkpt lat="47.34081" lon="6.26957">
        <ele>364.7</ele>
        <time>2012-08-06T17:10:00Z</time>
      </trkpt>
      <trkpt lat="47.34081" lon="6.26987">
        <ele>363.7</ele>
        <time>2012-08-06T17:10:09Z</time>
      </trkpt>
      <trkpt lat="47.3408" lon="6.27018">
        <ele>363</ele>
        <time>2012-08-06T17:10:18Z</time>
      </trkpt>
      <trkpt lat="47.34079" lon="6.27049">
        <ele>362.2</ele>
        <time>2012-08-06T17:10:27Z</time>
      </trkpt>
      <trkpt lat="47.34081" lon="6.27081">
        <ele>361.7</ele>
        <time>2012-08-06T17:10:36Z</time>
      </trkpt>
      <trkpt lat="47.34084" lon="6.27111">
        <ele>361.2</ele>
        <time>2012-08-06T17:10:45Z</time>
      </trkpt>
      <trkpt lat="47.34088" lon="6.27144">
        <ele>361.1</ele>
        <time>2012-08-06T17:10:55Z</time>
      </trkpt>
      <trkpt lat="47.34089" lon="6.27147">
        <ele>361.1</ele>
        <time>2012-08-06T17:10:56Z</time>
      </trkpt>
      <trkpt lat="47.34094" lon="6.27206">
        <ele>361</ele>
        <time>2012-08-06T17:11:14Z</time>
      </trkpt>
      <trkpt lat="47.34088" lon="6.27237">
        <ele>361</ele>
        <time>2012-08-06T17:11:23Z</time>
      </trkpt>
      <trkpt lat="47.34077" lon="6.27262">
        <ele>361</ele>
        <time>2012-08-06T17:11:32Z</time>
      </trkpt>
      <trkpt lat="47.34065" lon="6.27287">
        <ele>361</ele>
        <time>2012-08-06T17:11:41Z</time>
      </trkpt>
      <trkpt lat="47.34056" lon="6.27315">
        <ele>361.1</ele>
        <time>2012-08-06T17:11:50Z</time>
      </trkpt>
      <trkpt lat="47.3405" lon="6.27347">
        <ele>361.2</ele>
        <time>2012-08-06T17:12:00Z</time>
      </trkpt>
      <trkpt lat="47.34049" lon="6.2735">
        <ele>361.2</ele>
        <time>2012-08-06T17:12:01Z</time>
      </trkpt>
      <trkpt lat="47.34043" lon="6.27409">
        <ele>361.2</ele>
        <time>2012-08-06T17:12:19Z</time>
      </trkpt>
      <trkpt lat="47.3404" lon="6.27438">
        <ele>361.5</ele>
        <time>2012-08-06T17:12:26Z</time>
      </trkpt>
      <trkpt lat="47.34038" lon="6.27468">
        <ele>361.6</ele>
        <time>2012-08-06T17:12:33Z</time>
      </trkpt>
      <trkpt lat="47.34034" lon="6.27499">
        <ele>361.6</ele>
        <time>2012-08-06T17:12:40Z</time>
      </trkpt>
      <trkpt lat="47.34028" lon="6.27529">
        <ele>361.7</ele>
        <time>2012-08-06T17:12:47Z</time>
      </trkpt>
      <trkpt lat="47.34021" lon="6.27559">
        <ele>362</ele>
        <time>2012-08-06T17:12:54Z</time>
      </trkpt>
      <trkpt lat="47.34015" lon="6.27588">
        <ele>362.2</ele>
        <time>2012-08-06T17:13:02Z</time>
      </trkpt>
      <trkpt lat="47.34014" lon="6.27591">
        <ele>362.2</ele>
        <time>2012-08-06T17:13:03Z</time>
      </trkpt>
      <trkpt lat="47.34003" lon="6.27652">
        <ele>362.7</ele>
        <time>2012-08-06T17:13:22Z</time>
      </trkpt>
      <trkpt lat="47.33999" lon="6.27683">
        <ele>363.2</ele>
        <time>2012-08-06T17:13:31Z</time>
      </trkpt>
      <trkpt lat="47.33994" lon="6.27713">
        <ele>363.7</ele>
        <time>2012-08-06T17:13:41Z</time>
      </trkpt>
      <trkpt lat="47.33988" lon="6.27741">
        <ele>364</ele>
        <time>2012-08-06T17:13:48Z</time>
      </trkpt>
      <trkpt lat="47.33981" lon="6.27769">
        <ele>364.2</ele>
        <time>2012-08-06T17:13:54Z</time>
      </trkpt>
      <trkpt lat="47.33973" lon="6.27799">
        <ele>365.2</ele>
        <time>2012-08-06T17:13:59Z</time>
      </trkpt>
      <trkpt lat="47.33969" lon="6.27827">
        <ele>365.7</ele>
        <time>2012-08-06T17:14:03Z</time>
      </trkpt>
      <trkpt lat="47.33971" lon="6.27859">
        <ele>366.1</ele>
        <time>2012-08-06T17:14:08Z</time>
      </trkpt>
      <trkpt lat="47.33972" lon="6.27865">
        <ele>366.2</ele>
        <time>2012-08-06T17:14:09Z</time>
      </trkpt>
      <trkpt lat="47.3398" lon="6.27921">
        <ele>366.2</ele>
        <time>2012-08-06T17:14:18Z</time>
      </trkpt>
      <trkpt lat="47.33979" lon="6.2795">
        <ele>366.5</ele>
        <time>2012-08-06T17:14:23Z</time>
      </trkpt>
      <trkpt lat="47.33976" lon="6.2798">
        <ele>366.5</ele>
        <time>2012-08-06T17:14:29Z</time>
      </trkpt>
      <trkpt lat="47.3397" lon="6.28012">
        <ele>366.6</ele>
        <time>2012-08-06T17:14:35Z</time>
      </trkpt>
      <trkpt lat="47.33964" lon="6.28043">
        <ele>366.5</ele>
        <time>2012-08-06T17:14:40Z</time>
      </trkpt>
      <trkpt lat="47.33959" lon="6.28073">
        <ele>366.2</ele>
        <time>2012-08-06T17:14:44Z</time>
      </trkpt>
      <trkpt lat="47.33954" lon="6.28103">
        <ele>366.1</ele>
        <time>2012-08-06T17:14:48Z</time>
      </trkpt>
      <trkpt lat="47.33949" lon="6.28133">
        <ele>366</ele>
        <time>2012-08-06T17:14:52Z</time>
      </trkpt>
      <trkpt lat="47.33944" lon="6.2816">
        <ele>365.7</ele>
        <time>2012-08-06T17:14:56Z</time>
      </trkpt>
      <trkpt lat="47.33939" lon="6.28187">
        <ele>365.6</ele>
        <time>2012-08-06T17:15:01Z</time>
      </trkpt>
      <trkpt lat="47.33934" lon="6.28215">
        <ele>365</ele>
        <time>2012-08-06T17:15:06Z</time>
      </trkpt>
      <trkpt lat="47.33928" lon="6.28246">
        <ele>364.2</ele>
        <time>2012-08-06T17:15:11Z</time>
      </trkpt>
      <trkpt lat="47.33927" lon="6.28252">
        <ele>364.2</ele>
        <time>2012-08-06T17:15:12Z</time>
      </trkpt>
      <trkpt lat="47.33927" lon="6.28306">
        <ele>364</ele>
        <time>2012-08-06T17:15:23Z</time>
      </trkpt>
      <trkpt lat="47.33927" lon="6.28335">
        <ele>363.7</ele>
        <time>2012-08-06T17:15:29Z</time>
      </trkpt>
      <trkpt lat="47.33926" lon="6.28364">
        <ele>363.2</ele>
        <time>2012-08-06T17:15:34Z</time>
      </trkpt>
      <trkpt lat="47.33921" lon="6.28395">
        <ele>362.2</ele>
        <time>2012-08-06T17:15:39Z</time>
      </trkpt>
      <trkpt lat="47.33917" lon="6.28424">
        <ele>361.7</ele>
        <time>2012-08-06T17:15:43Z</time>
      </trkpt>
      <trkpt lat="47.33913" lon="6.28448">
        <ele>361.2</ele>
        <time>2012-08-06T17:15:46Z</time>
      </trkpt>
      <trkpt lat="47.33909" lon="6.28474">
        <ele>361.1</ele>
        <time>2012-08-06T17:15:49Z</time>
      </trkpt>
      <trkpt lat="47.33907" lon="6.285">
        <ele>360.7</ele>
        <time>2012-08-06T17:15:52Z</time>
      </trkpt>
      <trkpt lat="47.33902" lon="6.28527">
        <ele>360.7</ele>
        <time>2012-08-06T17:15:55Z</time>
      </trkpt>
      <trkpt lat="47.33896" lon="6.28555">
        <ele>360.7</ele>
        <time>2012-08-06T17:15:58Z</time>
      </trkpt>
      <trkpt lat="47.33886" lon="6.28582">
        <ele>360.6</ele>
        <time>2012-08-06T17:16:01Z</time>
      </trkpt>
      <trkpt lat="47.33876" lon="6.28609">
        <ele>360.2</ele>
        <time>2012-08-06T17:16:04Z</time>
      </trkpt>
      <trkpt lat="47.33867" lon="6.28637">
        <ele>360</ele>
        <time>2012-08-06T17:16:07Z</time>
      </trkpt>
      <trkpt lat="47.33857" lon="6.28664">
        <ele>359.5</ele>
        <time>2012-08-06T17:16:10Z</time>
      </trkpt>
      <trkpt lat="47.33842" lon="6.28686">
        <ele>359.2</ele>
        <time>2012-08-06T17:16:14Z</time>
      </trkpt>
      <trkpt lat="47.33838" lon="6.28689">
        <ele>359.2</ele>
        <time>2012-08-06T17:16:15Z</time>
      </trkpt>
      <trkpt lat="47.33828" lon="6.28735">
        <ele>358.7</ele>
        <time>2012-08-06T17:16:28Z</time>
      </trkpt>
      <trkpt lat="47.33831" lon="6.28766">
        <ele>358.6</ele>
        <time>2012-08-06T17:16:32Z</time>
      </trkpt>
      <trkpt lat="47.33833" lon="6.28797">
        <ele>358.2</ele>
        <time>2012-08-06T17:16:36Z</time>
      </trkpt>
      <trkpt lat="47.33835" lon="6.28829">
        <ele>358</ele>
        <time>2012-08-06T17:16:40Z</time>
      </trkpt>
      <trkpt lat="47.33837" lon="6.2886">
        <ele>357.5</ele>
        <time>2012-08-06T17:16:44Z</time>
      </trkpt>
      <trkpt lat="47.33839" lon="6.2889">
        <ele>357.1</ele>
        <time>2012-08-06T17:16:48Z</time>
      </trkpt>
      <trkpt lat="47.33842" lon="6.28918">
        <ele>356.7</ele>
        <time>2012-08-06T17:16:52Z</time>
      </trkpt>
      <trkpt lat="47.33843" lon="6.28944">
        <ele>356.2</ele>
        <time>2012-08-06T17:16:56Z</time>
      </trkpt>
      <trkpt lat="47.33845" lon="6.28976">
        <ele>356</ele>
        <time>2012-08-06T17:17:01Z</time>
      </trkpt>
      <trkpt lat="47.33847" lon="6.29004">
        <ele>355.2</ele>
        <time>2012-08-06T17:17:06Z</time>
      </trkpt>
      <trkpt lat="47.33848" lon="6.29034">
        <ele>355</ele>
        <time>2012-08-06T17:17:11Z</time>
      </trkpt>
      <trkpt lat="47.3385" lon="6.29066">
        <ele>354.7</ele>
        <time>2012-08-06T17:17:16Z</time>
      </trkpt>
      <trkpt lat="47.3385" lon="6.29072">
        <ele>354.7</ele>
        <time>2012-08-06T17:17:17Z</time>
      </trkpt>
      <trkpt lat="47.33852" lon="6.29125">
        <ele>354.7</ele>
        <time>2012-08-06T17:17:28Z</time>
      </trkpt>
      <trkpt lat="47.33854" lon="6.29157">
        <ele>354.7</ele>
        <time>2012-08-06T17:17:37Z</time>
      </trkpt>
      <trkpt lat="47.33857" lon="6.2919">
        <ele>354.7</ele>
        <time>2012-08-06T17:17:46Z</time>
      </trkpt>
      <trkpt lat="47.33839" lon="6.2921">
        <ele>355</ele>
        <time>2012-08-06T17:17:56Z</time>
      </trkpt>
      <trkpt lat="47.33819" lon="6.29223">
        <ele>355</ele>
        <time>2012-08-06T17:18:05Z</time>
      </trkpt>
      <trkpt lat="47.33799" lon="6.29234">
        <ele>355</ele>
        <time>2012-08-06T17:18:12Z</time>
      </trkpt>
      <trkpt lat="47.33782" lon="6.29242">
        <ele>354.6</ele>
        <time>2012-08-06T17:18:16Z</time>
      </trkpt>
      <trkpt lat="47.33762" lon="6.2925">
        <ele>354.2</ele>
        <time>2012-08-06T17:18:20Z</time>
      </trkpt>
      <trkpt lat="47.33758" lon="6.29252">
        <ele>354.2</ele>
        <time>2012-08-06T17:18:21Z</time>
      </trkpt>
      <trkpt lat="47.33725" lon="6.29265">
        <ele>352.7</ele>
        <time>2012-08-06T17:18:28Z</time>
      </trkpt>
      <trkpt lat="47.3371" lon="6.29284">
        <ele>351.7</ele>
        <time>2012-08-06T17:18:31Z</time>
      </trkpt>
      <trkpt lat="47.33692" lon="6.29301">
        <ele>351</ele>
        <time>2012-08-06T17:18:34Z</time>
      </trkpt>
      <trkpt lat="47.33673" lon="6.29308">
        <ele>350.2</ele>
        <time>2012-08-06T17:18:37Z</time>
      </trkpt>
      <trkpt lat="47.33655" lon="6.29314">
        <ele>349.7</ele>
        <time>2012-08-06T17:18:40Z</time>
      </trkpt>
      <trkpt lat="47.33635" lon="6.2932">
        <ele>349.2</ele>
        <time>2012-08-06T17:18:45Z</time>
      </trkpt>
      <trkpt lat="47.33623" lon="6.29345">
        <ele>349</ele>
        <time>2012-08-06T17:18:55Z</time>
      </trkpt>
      <trkpt lat="47.3363" lon="6.29373">
        <ele>348.7</ele>
        <time>2012-08-06T17:19:04Z</time>
      </trkpt>
      <trkpt lat="47.33615" lon="6.29394">
        <ele>348.6</ele>
        <time>2012-08-06T17:19:12Z</time>
      </trkpt>
      <trkpt lat="47.33593" lon="6.29403">
        <ele>348</ele>
        <time>2012-08-06T17:19:18Z</time>
      </trkpt>
      <trkpt lat="47.33575" lon="6.2941">
        <ele>347.6</ele>
        <time>2012-08-06T17:19:22Z</time>
      </trkpt>
      <trkpt lat="47.33571" lon="6.29412">
        <ele>347.5</ele>
        <time>2012-08-06T17:19:23Z</time>
      </trkpt>
      <trkpt lat="47.33535" lon="6.2943">
        <ele>346.7</ele>
        <time>2012-08-06T17:19:30Z</time>
      </trkpt>
      <trkpt lat="47.33515" lon="6.29439">
        <ele>346.5</ele>
        <time>2012-08-06T17:19:34Z</time>
      </trkpt>
      <trkpt lat="47.33494" lon="6.29448">
        <ele>346.2</ele>
        <time>2012-08-06T17:19:40Z</time>
      </trkpt>
      <trkpt lat="47.33474" lon="6.29456">
        <ele>346.2</ele>
        <time>2012-08-06T17:19:48Z</time>
      </trkpt>
      <trkpt lat="47.33453" lon="6.29464">
        <ele>346.2</ele>
        <time>2012-08-06T17:19:57Z</time>
      </trkpt>
      <trkpt lat="47.33434" lon="6.29472">
        <ele>346.1</ele>
        <time>2012-08-06T17:20:07Z</time>
      </trkpt>
      <trkpt lat="47.33412" lon="6.29481">
        <ele>345.7</ele>
        <time>2012-08-06T17:20:17Z</time>
      </trkpt>
      <trkpt lat="47.33392" lon="6.29489">
        <ele>345.7</ele>
        <time>2012-08-06T17:20:25Z</time>
      </trkpt>
      <trkpt lat="47.3339" lon="6.29491">
        <ele>345.7</ele>
        <time>2012-08-06T17:20:26Z</time>
      </trkpt>
      <trkpt lat="47.33394" lon="6.29543">
        <ele>345.6</ele>
        <time>2012-08-06T17:20:38Z</time>
      </trkpt>
      <trkpt lat="47.33402" lon="6.29569">
        <ele>345.7</ele>
        <time>2012-08-06T17:20:43Z</time>
      </trkpt>
      <trkpt lat="47.33409" lon="6.29597">
        <ele>345.7</ele>
        <time>2012-08-06T17:20:49Z</time>
      </trkpt>
      <trkpt lat="47.33417" lon="6.29627">
        <ele>345.6</ele>
        <time>2012-08-06T17:20:55Z</time>
      </trkpt>
      <trkpt lat="47.33425" lon="6.29657">
        <ele>345.6</ele>
        <time>2012-08-06T17:21:01Z</time>
      </trkpt>
      <trkpt lat="47.33433" lon="6.29684">
        <ele>345.7</ele>
        <time>2012-08-06T17:21:07Z</time>
      </trkpt>
      <trkpt lat="47.33442" lon="6.29714">
        <ele>345.7</ele>
        <time>2012-08-06T17:21:13Z</time>
      </trkpt>
      <trkpt lat="47.3345" lon="6.29742">
        <ele>346.1</ele>
        <time>2012-08-06T17:21:18Z</time>
      </trkpt>
      <trkpt lat="47.33456" lon="6.2977">
        <ele>346</ele>
        <time>2012-08-06T17:21:22Z</time>
      </trkpt>
      <trkpt lat="47.33457" lon="6.29795">
        <ele>345.7</ele>
        <time>2012-08-06T17:21:25Z</time>
      </trkpt>
      <trkpt lat="47.3345" lon="6.29825">
        <ele>345.6</ele>
        <time>2012-08-06T17:21:29Z</time>
      </trkpt>
      <trkpt lat="47.33447" lon="6.29832">
        <ele>345.5</ele>
        <time>2012-08-06T17:21:30Z</time>
      </trkpt>
      <trkpt lat="47.3344" lon="6.29882">
        <ele>345.2</ele>
        <time>2012-08-06T17:21:38Z</time>
      </trkpt>
      <trkpt lat="47.33442" lon="6.29915">
        <ele>344.6</ele>
        <time>2012-08-06T17:21:44Z</time>
      </trkpt>
      <trkpt lat="47.33448" lon="6.29946">
        <ele>344.2</ele>
        <time>2012-08-06T17:21:50Z</time>
      </trkpt>
      <trkpt lat="47.33455" lon="6.29974">
        <ele>343.2</ele>
        <time>2012-08-06T17:21:55Z</time>
      </trkpt>
      <trkpt lat="47.33463" lon="6.30003">
        <ele>342.6</ele>
        <time>2012-08-06T17:21:59Z</time>
      </trkpt>
      <trkpt lat="47.33472" lon="6.30032">
        <ele>341.6</ele>
        <time>2012-08-06T17:22:03Z</time>
      </trkpt>
      <trkpt lat="47.33468" lon="6.30063">
        <ele>340.2</ele>
        <time>2012-08-06T17:22:08Z</time>
      </trkpt>
      <trkpt lat="47.33454" lon="6.30083">
        <ele>338.7</ele>
        <time>2012-08-06T17:22:11Z</time>
      </trkpt>
      <trkpt lat="47.33442" lon="6.30097">
        <ele>338</ele>
        <time>2012-08-06T17:22:13Z</time>
      </trkpt>
      <trkpt lat="47.33429" lon="6.30111">
        <ele>337.2</ele>
        <time>2012-08-06T17:22:15Z</time>
      </trkpt>
      <trkpt lat="47.33416" lon="6.30125">
        <ele>336.5</ele>
        <time>2012-08-06T17:22:17Z</time>
      </trkpt>
      <trkpt lat="47.33399" lon="6.30144">
        <ele>335.6</ele>
        <time>2012-08-06T17:22:20Z</time>
      </trkpt>
      <trkpt lat="47.33382" lon="6.30166">
        <ele>334.2</ele>
        <time>2012-08-06T17:22:24Z</time>
      </trkpt>
      <trkpt lat="47.33377" lon="6.30192">
        <ele>333.2</ele>
        <time>2012-08-06T17:22:28Z</time>
      </trkpt>
      <trkpt lat="47.33382" lon="6.30223">
        <ele>330.2</ele>
        <time>2012-08-06T17:22:32Z</time>
      </trkpt>
      <trkpt lat="47.33384" lon="6.30229">
        <ele>329.2</ele>
        <time>2012-08-06T17:22:33Z</time>
      </trkpt>
      <trkpt lat="47.3341" lon="6.30272">
        <ele>327.2</ele>
        <time>2012-08-06T17:22:47Z</time>
      </trkpt>
      <trkpt lat="47.33417" lon="6.30302">
        <ele>326.7</ele>
        <time>2012-08-06T17:22:57Z</time>
      </trkpt>
      <trkpt lat="47.33422" lon="6.30332">
        <ele>326.2</ele>
        <time>2012-08-06T17:23:06Z</time>
      </trkpt>
      <trkpt lat="47.33412" lon="6.30361">
        <ele>325.7</ele>
        <time>2012-08-06T17:23:15Z</time>
      </trkpt>
      <trkpt lat="47.33397" lon="6.30339">
        <ele>325.2</ele>
        <time>2012-08-06T17:23:42Z</time>
      </trkpt>
      <trkpt lat="47.33394" lon="6.30335">
        <ele>324.7</ele>
        <time>2012-08-06T17:23:43Z</time>
      </trkpt>
      <trkpt lat="47.3336" lon="6.30322">
        <ele>322.7</ele>
        <time>2012-08-06T17:23:51Z</time>
      </trkpt>
      <trkpt lat="47.33352" lon="6.30344">
        <ele>322.5</ele>
        <time>2012-08-06T17:23:54Z</time>
      </trkpt>
      <trkpt lat="47.33348" lon="6.30372">
        <ele>322.2</ele>
        <time>2012-08-06T17:23:57Z</time>
      </trkpt>
      <trkpt lat="47.33345" lon="6.30401">
        <ele>321.7</ele>
        <time>2012-08-06T17:24:01Z</time>
      </trkpt>
      <trkpt lat="47.33339" lon="6.30432">
        <ele>321.6</ele>
        <time>2012-08-06T17:24:09Z</time>
      </trkpt>
      <trkpt lat="47.33331" lon="6.30461">
        <ele>321.5</ele>
        <time>2012-08-06T17:24:16Z</time>
      </trkpt>
      <trkpt lat="47.33319" lon="6.30488">
        <ele>320.7</ele>
        <time>2012-08-06T17:24:22Z</time>
      </trkpt>
      <trkpt lat="47.33302" lon="6.30504">
        <ele>320.7</ele>
        <time>2012-08-06T17:24:27Z</time>
      </trkpt>
      <trkpt lat="47.33284" lon="6.30505">
        <ele>320.2</ele>
        <time>2012-08-06T17:24:30Z</time>
      </trkpt>
      <trkpt lat="47.33269" lon="6.30507">
        <ele>320.1</ele>
        <time>2012-08-06T17:24:32Z</time>
      </trkpt>
      <trkpt lat="47.33253" lon="6.30512">
        <ele>319.7</ele>
        <time>2012-08-06T17:24:34Z</time>
      </trkpt>
      <trkpt lat="47.33238" lon="6.30523">
        <ele>319.5</ele>
        <time>2012-08-06T17:24:36Z</time>
      </trkpt>
      <trkpt lat="47.33227" lon="6.30539">
        <ele>319.2</ele>
        <time>2012-08-06T17:24:38Z</time>
      </trkpt>
      <trkpt lat="47.33214" lon="6.30563">
        <ele>319</ele>
        <time>2012-08-06T17:24:41Z</time>
      </trkpt>
      <trkpt lat="47.33204" lon="6.30586">
        <ele>318.7</ele>
        <time>2012-08-06T17:24:44Z</time>
      </trkpt>
      <trkpt lat="47.33202" lon="6.30593">
        <ele>318.7</ele>
        <time>2012-08-06T17:24:45Z</time>
      </trkpt>
      <trkpt lat="47.33175" lon="6.30624">
        <ele>317.6</ele>
        <time>2012-08-06T17:24:53Z</time>
      </trkpt>
      <trkpt lat="47.33166" lon="6.30602">
        <ele>317.2</ele>
        <time>2012-08-06T17:24:56Z</time>
      </trkpt>
      <trkpt lat="47.33163" lon="6.3058">
        <ele>317.1</ele>
        <time>2012-08-06T17:24:58Z</time>
      </trkpt>
      <trkpt lat="47.33161" lon="6.30555">
        <ele>316.7</ele>
        <time>2012-08-06T17:25:00Z</time>
      </trkpt>
      <trkpt lat="47.33163" lon="6.30529">
        <ele>316</ele>
        <time>2012-08-06T17:25:02Z</time>
      </trkpt>
      <trkpt lat="47.33166" lon="6.30503">
        <ele>314.7</ele>
        <time>2012-08-06T17:25:04Z</time>
      </trkpt>
      <trkpt lat="47.33175" lon="6.3048">
        <ele>313.7</ele>
        <time>2012-08-06T17:25:06Z</time>
      </trkpt>
      <trkpt lat="47.33189" lon="6.30462">
        <ele>312.5</ele>
        <time>2012-08-06T17:25:08Z</time>
      </trkpt>
      <trkpt lat="47.33205" lon="6.30451">
        <ele>311.5</ele>
        <time>2012-08-06T17:25:10Z</time>
      </trkpt>
      <trkpt lat="47.33225" lon="6.30441">
        <ele>309.7</ele>
        <time>2012-08-06T17:25:13Z</time>
      </trkpt>
      <trkpt lat="47.33235" lon="6.30416">
        <ele>307.5</ele>
        <time>2012-08-06T17:25:17Z</time>
      </trkpt>
      <trkpt lat="47.33225" lon="6.30391">
        <ele>305.2</ele>
        <time>2012-08-06T17:25:21Z</time>
      </trkpt>
      <trkpt lat="47.33206" lon="6.30389">
        <ele>303.7</ele>
        <time>2012-08-06T17:25:24Z</time>
      </trkpt>
      <trkpt lat="47.3319" lon="6.30391">
        <ele>302.5</ele>
        <time>2012-08-06T17:25:26Z</time>
      </trkpt>
      <trkpt lat="47.33173" lon="6.30392">
        <ele>301.2</ele>
        <time>2012-08-06T17:25:28Z</time>
      </trkpt>
      <trkpt lat="47.33156" lon="6.30392">
        <ele>300</ele>
        <time>2012-08-06T17:25:30Z</time>
      </trkpt>
      <trkpt lat="47.33135" lon="6.30391">
        <ele>298.2</ele>
        <time>2012-08-06T17:25:33Z</time>
      </trkpt>
      <trkpt lat="47.33119" lon="6.30387">
        <ele>297.1</ele>
        <time>2012-08-06T17:25:36Z</time>
      </trkpt>
      <trkpt lat="47.33102" lon="6.30376">
        <ele>296</ele>
        <time>2012-08-06T17:25:39Z</time>
      </trkpt>
      <trkpt lat="47.33083" lon="6.30365">
        <ele>294.7</ele>
        <time>2012-08-06T17:25:42Z</time>
      </trkpt>
      <trkpt lat="47.33062" lon="6.3036">
        <ele>293.6</ele>
        <time>2012-08-06T17:25:45Z</time>
      </trkpt>
      <trkpt lat="47.33056" lon="6.30359">
        <ele>293.2</ele>
        <time>2012-08-06T17:25:46Z</time>
      </trkpt>
    </trkseg>
  </trk>
</gpx>